<?xml version="1.0" encoding="UTF-8" standalone="no" ?>
<gpx xmlns="http://www.topografix.com/GPX/1/1" xmlns:xsi="http://www.w3.org/2001/XMLSchema-instance" xsi:schemaLocation="http://www.topografix.com/GPX/1/1 http://www.topografix.com/GPX/1/1/gpx.xsd" version="1.1" creator="VisuGPX - https://www.visugpx.com">
  <metadata>
    <name>2019-08-07 08:55_VTT La colle St Michel_Corradour_Lacs de Lignin</name>
    <desc><![CDATA[
<p>Heure de départ: 08/07/2019 08:56<br/>Heure d'arrivée: 08/07/2019 15:17<br/>Distance: 40,6 km (06:21)<br/>Temps déplacement: 03:41<br/>Vitesse moyenne: 6,38 km/h<br/>Vitesse moyenne mouv.: 10,99 km/h<br/>Vitesse Max.: 54,96 km/h<br/>Altitude minimale: 1392 m<br/>Altitude maximale: 2421 m<br/>Vitesse de montée: 705,9 m/h<br/>Vitesse de descente: -729,6 m/h<br/>Gain d'altitude: 2105 m<br/>Perte d'altitude: -2133 m<br/>Temps de montée: 02:58<br/>Temps de descente: 02:55<br/></p><hr align="center" width="480" style="height: 2px; width: 517px"/>]]></desc>
  </metadata>
  <trk>
    <name><![CDATA[2019-08-07 08:55]]></name>
    <desc><![CDATA[<p>Heure de départ: 08/07/2019 08:56<br/>Heure d'arrivée: 08/07/2019 15:17<br/>Distance: 40,6 km (06:21)<br/>Temps déplacement: 03:41<br/>Vitesse moyenne: 6,38 km/h<br/>Vitesse moyenne mouv.: 10,99 km/h<br/>Vitesse Max.: 54,96 km/h<br/>Altitude minimale: 1392 m<br/>Altitude maximale: 2421 m<br/>Vitesse de montée: 705,9 m/h<br/>Vitesse de descente: -729,6 m/h<br/>Gain d'altitude: 2105 m<br/>Perte d'altitude: -2133 m<br/>Temps de montée: 02:58<br/>Temps de descente: 02:55<br/></p><hr align="center" width="480" style="height: 2px; width: 517px"/>]]></desc>
    <trkseg>
      <trkpt lat="44.04803" lon="6.59429">
        <ele>1418.23</ele>
        <time>2019-08-07T06:56:02Z</time>
      </trkpt>
      <trkpt lat="44.04794" lon="6.59454">
        <ele>1441.67</ele>
        <time>2019-08-07T06:56:20Z</time>
      </trkpt>
      <trkpt lat="44.04765" lon="6.59447">
        <ele>1435.68</ele>
        <time>2019-08-07T06:56:28Z</time>
      </trkpt>
      <trkpt lat="44.0476" lon="6.59421">
        <ele>1406.75</ele>
        <time>2019-08-07T06:57:36Z</time>
      </trkpt>
      <trkpt lat="44.04772" lon="6.59398">
        <ele>1414.47</ele>
        <time>2019-08-07T06:58:08Z</time>
      </trkpt>
      <trkpt lat="44.04788" lon="6.59386">
        <ele>1416.03</ele>
        <time>2019-08-07T06:58:18Z</time>
      </trkpt>
      <trkpt lat="44.04803" lon="6.59365">
        <ele>1417.67</ele>
        <time>2019-08-07T06:58:32Z</time>
      </trkpt>
      <trkpt lat="44.04845" lon="6.5932">
        <ele>1415.04</ele>
        <time>2019-08-07T06:58:45Z</time>
      </trkpt>
      <trkpt lat="44.04834" lon="6.5934">
        <ele>1415.24</ele>
        <time>2019-08-07T06:58:48Z</time>
      </trkpt>
      <trkpt lat="44.04853" lon="6.59329">
        <ele>1414.64</ele>
        <time>2019-08-07T06:58:54Z</time>
      </trkpt>
      <trkpt lat="44.04868" lon="6.59316">
        <ele>1415.1</ele>
        <time>2019-08-07T06:59:04Z</time>
      </trkpt>
      <trkpt lat="44.04882" lon="6.59295">
        <ele>1415.69</ele>
        <time>2019-08-07T06:59:18Z</time>
      </trkpt>
      <trkpt lat="44.04887" lon="6.59268">
        <ele>1417.74</ele>
        <time>2019-08-07T06:59:30Z</time>
      </trkpt>
      <trkpt lat="44.04892" lon="6.59241">
        <ele>1420.4</ele>
        <time>2019-08-07T06:59:40Z</time>
      </trkpt>
      <trkpt lat="44.04902" lon="6.59219">
        <ele>1422.66</ele>
        <time>2019-08-07T06:59:48Z</time>
      </trkpt>
      <trkpt lat="44.0491" lon="6.59188">
        <ele>1426.62</ele>
        <time>2019-08-07T06:59:58Z</time>
      </trkpt>
      <trkpt lat="44.04917" lon="6.59154">
        <ele>1430.28</ele>
        <time>2019-08-07T07:00:06Z</time>
      </trkpt>
      <trkpt lat="44.0493" lon="6.59131">
        <ele>1435.06</ele>
        <time>2019-08-07T07:00:14Z</time>
      </trkpt>
      <trkpt lat="44.04945" lon="6.59111">
        <ele>1442.01</ele>
        <time>2019-08-07T07:00:26Z</time>
      </trkpt>
      <trkpt lat="44.04964" lon="6.59099">
        <ele>1444.55</ele>
        <time>2019-08-07T07:00:34Z</time>
      </trkpt>
      <trkpt lat="44.04954" lon="6.59123">
        <ele>1450.36</ele>
        <time>2019-08-07T07:00:52Z</time>
      </trkpt>
      <trkpt lat="44.04956" lon="6.59148">
        <ele>1452.56</ele>
        <time>2019-08-07T07:01:00Z</time>
      </trkpt>
      <trkpt lat="44.04975" lon="6.5916">
        <ele>1452.21</ele>
        <time>2019-08-07T07:01:08Z</time>
      </trkpt>
      <trkpt lat="44.04992" lon="6.59174">
        <ele>1455.6</ele>
        <time>2019-08-07T07:01:22Z</time>
      </trkpt>
      <trkpt lat="44.05009" lon="6.59193">
        <ele>1453.75</ele>
        <time>2019-08-07T07:01:30Z</time>
      </trkpt>
      <trkpt lat="44.05026" lon="6.59203">
        <ele>1454.74</ele>
        <time>2019-08-07T07:01:38Z</time>
      </trkpt>
      <trkpt lat="44.05044" lon="6.59205">
        <ele>1455.11</ele>
        <time>2019-08-07T07:01:46Z</time>
      </trkpt>
      <trkpt lat="44.05066" lon="6.59209">
        <ele>1458.81</ele>
        <time>2019-08-07T07:01:56Z</time>
      </trkpt>
      <trkpt lat="44.05086" lon="6.59211">
        <ele>1461.3</ele>
        <time>2019-08-07T07:02:04Z</time>
      </trkpt>
      <trkpt lat="44.05106" lon="6.59214">
        <ele>1463.06</ele>
        <time>2019-08-07T07:02:16Z</time>
      </trkpt>
      <trkpt lat="44.05125" lon="6.59218">
        <ele>1460.6</ele>
        <time>2019-08-07T07:02:22Z</time>
      </trkpt>
      <trkpt lat="44.05145" lon="6.5921">
        <ele>1459.6</ele>
        <time>2019-08-07T07:02:30Z</time>
      </trkpt>
      <trkpt lat="44.05165" lon="6.59205">
        <ele>1462.49</ele>
        <time>2019-08-07T07:02:38Z</time>
      </trkpt>
      <trkpt lat="44.05185" lon="6.59202">
        <ele>1468.85</ele>
        <time>2019-08-07T07:02:48Z</time>
      </trkpt>
      <trkpt lat="44.05203" lon="6.59198">
        <ele>1473.06</ele>
        <time>2019-08-07T07:02:56Z</time>
      </trkpt>
      <trkpt lat="44.05222" lon="6.59194">
        <ele>1476.31</ele>
        <time>2019-08-07T07:03:06Z</time>
      </trkpt>
      <trkpt lat="44.05241" lon="6.59195">
        <ele>1481.08</ele>
        <time>2019-08-07T07:03:48Z</time>
      </trkpt>
      <trkpt lat="44.05262" lon="6.59206">
        <ele>1480.97</ele>
        <time>2019-08-07T07:03:58Z</time>
      </trkpt>
      <trkpt lat="44.0528" lon="6.59214">
        <ele>1483.49</ele>
        <time>2019-08-07T07:04:08Z</time>
      </trkpt>
      <trkpt lat="44.05295" lon="6.59229">
        <ele>1490.02</ele>
        <time>2019-08-07T07:04:26Z</time>
      </trkpt>
      <trkpt lat="44.05312" lon="6.59239">
        <ele>1494.72</ele>
        <time>2019-08-07T07:04:40Z</time>
      </trkpt>
      <trkpt lat="44.05322" lon="6.59264">
        <ele>1498.09</ele>
        <time>2019-08-07T07:04:52Z</time>
      </trkpt>
      <trkpt lat="44.05334" lon="6.59284">
        <ele>1497.99</ele>
        <time>2019-08-07T07:05:02Z</time>
      </trkpt>
      <trkpt lat="44.05352" lon="6.59299">
        <ele>1497.92</ele>
        <time>2019-08-07T07:05:10Z</time>
      </trkpt>
      <trkpt lat="44.0537" lon="6.59319">
        <ele>1498.11</ele>
        <time>2019-08-07T07:05:16Z</time>
      </trkpt>
      <trkpt lat="44.05388" lon="6.59345">
        <ele>1504.65</ele>
        <time>2019-08-07T07:05:22Z</time>
      </trkpt>
      <trkpt lat="44.05406" lon="6.59363">
        <ele>1514.67</ele>
        <time>2019-08-07T07:05:30Z</time>
      </trkpt>
      <trkpt lat="44.05421" lon="6.59384">
        <ele>1519.58</ele>
        <time>2019-08-07T07:05:38Z</time>
      </trkpt>
      <trkpt lat="44.05433" lon="6.59404">
        <ele>1520.49</ele>
        <time>2019-08-07T07:05:44Z</time>
      </trkpt>
      <trkpt lat="44.0545" lon="6.59419">
        <ele>1519.9</ele>
        <time>2019-08-07T07:05:54Z</time>
      </trkpt>
      <trkpt lat="44.05465" lon="6.59438">
        <ele>1520.95</ele>
        <time>2019-08-07T07:06:06Z</time>
      </trkpt>
      <trkpt lat="44.05478" lon="6.59464">
        <ele>1518.22</ele>
        <time>2019-08-07T07:06:16Z</time>
      </trkpt>
      <trkpt lat="44.05487" lon="6.59489">
        <ele>1514.52</ele>
        <time>2019-08-07T07:06:24Z</time>
      </trkpt>
      <trkpt lat="44.05496" lon="6.59511">
        <ele>1514.34</ele>
        <time>2019-08-07T07:06:30Z</time>
      </trkpt>
      <trkpt lat="44.05504" lon="6.59536">
        <ele>1510.37</ele>
        <time>2019-08-07T07:06:36Z</time>
      </trkpt>
      <trkpt lat="44.05516" lon="6.59556">
        <ele>1508.25</ele>
        <time>2019-08-07T07:06:44Z</time>
      </trkpt>
      <trkpt lat="44.05534" lon="6.59567">
        <ele>1508.66</ele>
        <time>2019-08-07T07:06:52Z</time>
      </trkpt>
      <trkpt lat="44.0555" lon="6.59577">
        <ele>1509.98</ele>
        <time>2019-08-07T07:06:58Z</time>
      </trkpt>
      <trkpt lat="44.05568" lon="6.59586">
        <ele>1510.03</ele>
        <time>2019-08-07T07:07:10Z</time>
      </trkpt>
      <trkpt lat="44.05587" lon="6.59592">
        <ele>1510.45</ele>
        <time>2019-08-07T07:08:10Z</time>
      </trkpt>
      <trkpt lat="44.05603" lon="6.59603">
        <ele>1507.6</ele>
        <time>2019-08-07T07:08:18Z</time>
      </trkpt>
      <trkpt lat="44.05616" lon="6.59621">
        <ele>1507.47</ele>
        <time>2019-08-07T07:08:26Z</time>
      </trkpt>
      <trkpt lat="44.05626" lon="6.5965">
        <ele>1509.93</ele>
        <time>2019-08-07T07:08:32Z</time>
      </trkpt>
      <trkpt lat="44.0563" lon="6.59675">
        <ele>1512.85</ele>
        <time>2019-08-07T07:08:36Z</time>
      </trkpt>
      <trkpt lat="44.05631" lon="6.59709">
        <ele>1512.93</ele>
        <time>2019-08-07T07:08:40Z</time>
      </trkpt>
      <trkpt lat="44.05633" lon="6.59754">
        <ele>1511.67</ele>
        <time>2019-08-07T07:08:44Z</time>
      </trkpt>
      <trkpt lat="44.05635" lon="6.59802">
        <ele>1511.31</ele>
        <time>2019-08-07T07:08:48Z</time>
      </trkpt>
      <trkpt lat="44.05635" lon="6.5984">
        <ele>1510.99</ele>
        <time>2019-08-07T07:08:52Z</time>
      </trkpt>
      <trkpt lat="44.05643" lon="6.59867">
        <ele>1510.73</ele>
        <time>2019-08-07T07:08:56Z</time>
      </trkpt>
      <trkpt lat="44.05658" lon="6.59897">
        <ele>1510.75</ele>
        <time>2019-08-07T07:09:02Z</time>
      </trkpt>
      <trkpt lat="44.0568" lon="6.59914">
        <ele>1510.82</ele>
        <time>2019-08-07T07:09:08Z</time>
      </trkpt>
      <trkpt lat="44.05704" lon="6.59918">
        <ele>1510.48</ele>
        <time>2019-08-07T07:09:14Z</time>
      </trkpt>
      <trkpt lat="44.0573" lon="6.59918">
        <ele>1510.77</ele>
        <time>2019-08-07T07:09:20Z</time>
      </trkpt>
      <trkpt lat="44.05748" lon="6.59919">
        <ele>1510.41</ele>
        <time>2019-08-07T07:09:24Z</time>
      </trkpt>
      <trkpt lat="44.05766" lon="6.59923">
        <ele>1510.25</ele>
        <time>2019-08-07T07:09:28Z</time>
      </trkpt>
      <trkpt lat="44.05787" lon="6.59928">
        <ele>1510</ele>
        <time>2019-08-07T07:09:34Z</time>
      </trkpt>
      <trkpt lat="44.05806" lon="6.59933">
        <ele>1509.76</ele>
        <time>2019-08-07T07:09:40Z</time>
      </trkpt>
      <trkpt lat="44.05822" lon="6.5995">
        <ele>1509.85</ele>
        <time>2019-08-07T07:09:46Z</time>
      </trkpt>
      <trkpt lat="44.05826" lon="6.59979">
        <ele>1510.09</ele>
        <time>2019-08-07T07:09:54Z</time>
      </trkpt>
      <trkpt lat="44.05825" lon="6.60005">
        <ele>1510.62</ele>
        <time>2019-08-07T07:10:00Z</time>
      </trkpt>
      <trkpt lat="44.05826" lon="6.60034">
        <ele>1511.26</ele>
        <time>2019-08-07T07:10:06Z</time>
      </trkpt>
      <trkpt lat="44.05823" lon="6.60068">
        <ele>1512.05</ele>
        <time>2019-08-07T07:10:12Z</time>
      </trkpt>
      <trkpt lat="44.05817" lon="6.60102">
        <ele>1512.23</ele>
        <time>2019-08-07T07:10:18Z</time>
      </trkpt>
      <trkpt lat="44.05808" lon="6.60135">
        <ele>1512.21</ele>
        <time>2019-08-07T07:10:24Z</time>
      </trkpt>
      <trkpt lat="44.05801" lon="6.60166">
        <ele>1510.7</ele>
        <time>2019-08-07T07:10:30Z</time>
      </trkpt>
      <trkpt lat="44.05794" lon="6.60204">
        <ele>1509.28</ele>
        <time>2019-08-07T07:10:36Z</time>
      </trkpt>
      <trkpt lat="44.05786" lon="6.60236">
        <ele>1507.91</ele>
        <time>2019-08-07T07:10:42Z</time>
      </trkpt>
      <trkpt lat="44.05788" lon="6.60262">
        <ele>1507.88</ele>
        <time>2019-08-07T07:10:46Z</time>
      </trkpt>
      <trkpt lat="44.058" lon="6.60292">
        <ele>1507.78</ele>
        <time>2019-08-07T07:10:52Z</time>
      </trkpt>
      <trkpt lat="44.05812" lon="6.60312">
        <ele>1506.56</ele>
        <time>2019-08-07T07:10:56Z</time>
      </trkpt>
      <trkpt lat="44.05828" lon="6.60332">
        <ele>1505.32</ele>
        <time>2019-08-07T07:11:00Z</time>
      </trkpt>
      <trkpt lat="44.05846" lon="6.60352">
        <ele>1504.34</ele>
        <time>2019-08-07T07:11:04Z</time>
      </trkpt>
      <trkpt lat="44.05863" lon="6.60365">
        <ele>1503.92</ele>
        <time>2019-08-07T07:11:08Z</time>
      </trkpt>
      <trkpt lat="44.05882" lon="6.60361">
        <ele>1504.07</ele>
        <time>2019-08-07T07:11:14Z</time>
      </trkpt>
      <trkpt lat="44.05902" lon="6.6036">
        <ele>1505.51</ele>
        <time>2019-08-07T07:11:22Z</time>
      </trkpt>
      <trkpt lat="44.05923" lon="6.60348">
        <ele>1506.87</ele>
        <time>2019-08-07T07:11:28Z</time>
      </trkpt>
      <trkpt lat="44.05943" lon="6.6034">
        <ele>1509.29</ele>
        <time>2019-08-07T07:11:34Z</time>
      </trkpt>
      <trkpt lat="44.05961" lon="6.60332">
        <ele>1512.74</ele>
        <time>2019-08-07T07:11:40Z</time>
      </trkpt>
      <trkpt lat="44.05979" lon="6.60315">
        <ele>1514.22</ele>
        <time>2019-08-07T07:11:46Z</time>
      </trkpt>
      <trkpt lat="44.05998" lon="6.603">
        <ele>1515.53</ele>
        <time>2019-08-07T07:11:52Z</time>
      </trkpt>
      <trkpt lat="44.06023" lon="6.60293">
        <ele>1517.74</ele>
        <time>2019-08-07T07:11:58Z</time>
      </trkpt>
      <trkpt lat="44.06045" lon="6.60296">
        <ele>1520.39</ele>
        <time>2019-08-07T07:12:04Z</time>
      </trkpt>
      <trkpt lat="44.0607" lon="6.60297">
        <ele>1523.08</ele>
        <time>2019-08-07T07:12:10Z</time>
      </trkpt>
      <trkpt lat="44.06089" lon="6.60303">
        <ele>1525.07</ele>
        <time>2019-08-07T07:12:16Z</time>
      </trkpt>
      <trkpt lat="44.06113" lon="6.60313">
        <ele>1526.25</ele>
        <time>2019-08-07T07:12:22Z</time>
      </trkpt>
      <trkpt lat="44.06132" lon="6.60325">
        <ele>1523.79</ele>
        <time>2019-08-07T07:12:28Z</time>
      </trkpt>
      <trkpt lat="44.06157" lon="6.60326">
        <ele>1523.05</ele>
        <time>2019-08-07T07:12:34Z</time>
      </trkpt>
      <trkpt lat="44.06176" lon="6.6032">
        <ele>1523.09</ele>
        <time>2019-08-07T07:12:42Z</time>
      </trkpt>
      <trkpt lat="44.06198" lon="6.60322">
        <ele>1515.41</ele>
        <time>2019-08-07T07:12:48Z</time>
      </trkpt>
      <trkpt lat="44.06225" lon="6.60323">
        <ele>1510.91</ele>
        <time>2019-08-07T07:12:54Z</time>
      </trkpt>
      <trkpt lat="44.06248" lon="6.60324">
        <ele>1509.05</ele>
        <time>2019-08-07T07:13:00Z</time>
      </trkpt>
      <trkpt lat="44.06273" lon="6.60335">
        <ele>1505.96</ele>
        <time>2019-08-07T07:13:06Z</time>
      </trkpt>
      <trkpt lat="44.06293" lon="6.60339">
        <ele>1503.94</ele>
        <time>2019-08-07T07:13:10Z</time>
      </trkpt>
      <trkpt lat="44.06314" lon="6.60339">
        <ele>1501.89</ele>
        <time>2019-08-07T07:13:14Z</time>
      </trkpt>
      <trkpt lat="44.06332" lon="6.60335">
        <ele>1499.92</ele>
        <time>2019-08-07T07:13:18Z</time>
      </trkpt>
      <trkpt lat="44.06356" lon="6.60327">
        <ele>1497.57</ele>
        <time>2019-08-07T07:13:22Z</time>
      </trkpt>
      <trkpt lat="44.06377" lon="6.60332">
        <ele>1495.2</ele>
        <time>2019-08-07T07:13:26Z</time>
      </trkpt>
      <trkpt lat="44.06403" lon="6.60341">
        <ele>1491.97</ele>
        <time>2019-08-07T07:13:30Z</time>
      </trkpt>
      <trkpt lat="44.06428" lon="6.60355">
        <ele>1488.74</ele>
        <time>2019-08-07T07:13:34Z</time>
      </trkpt>
      <trkpt lat="44.06455" lon="6.60357">
        <ele>1484.43</ele>
        <time>2019-08-07T07:13:38Z</time>
      </trkpt>
      <trkpt lat="44.0648" lon="6.60344">
        <ele>1480.68</ele>
        <time>2019-08-07T07:13:42Z</time>
      </trkpt>
      <trkpt lat="44.065" lon="6.6033">
        <ele>1476.4</ele>
        <time>2019-08-07T07:13:48Z</time>
      </trkpt>
      <trkpt lat="44.06516" lon="6.60318">
        <ele>1473.84</ele>
        <time>2019-08-07T07:13:52Z</time>
      </trkpt>
      <trkpt lat="44.06534" lon="6.60294">
        <ele>1471.31</ele>
        <time>2019-08-07T07:13:58Z</time>
      </trkpt>
      <trkpt lat="44.06555" lon="6.60281">
        <ele>1470.61</ele>
        <time>2019-08-07T07:14:06Z</time>
      </trkpt>
      <trkpt lat="44.06575" lon="6.60272">
        <ele>1470.83</ele>
        <time>2019-08-07T07:14:12Z</time>
      </trkpt>
      <trkpt lat="44.06595" lon="6.6027">
        <ele>1471.61</ele>
        <time>2019-08-07T07:14:18Z</time>
      </trkpt>
      <trkpt lat="44.06613" lon="6.60272">
        <ele>1475.27</ele>
        <time>2019-08-07T07:14:24Z</time>
      </trkpt>
      <trkpt lat="44.06632" lon="6.60277">
        <ele>1481.74</ele>
        <time>2019-08-07T07:14:32Z</time>
      </trkpt>
      <trkpt lat="44.06652" lon="6.60281">
        <ele>1487.03</ele>
        <time>2019-08-07T07:14:40Z</time>
      </trkpt>
      <trkpt lat="44.06672" lon="6.6029">
        <ele>1492.49</ele>
        <time>2019-08-07T07:14:48Z</time>
      </trkpt>
      <trkpt lat="44.06695" lon="6.60301">
        <ele>1499.67</ele>
        <time>2019-08-07T07:14:56Z</time>
      </trkpt>
      <trkpt lat="44.0671" lon="6.60314">
        <ele>1502.38</ele>
        <time>2019-08-07T07:15:00Z</time>
      </trkpt>
      <trkpt lat="44.06729" lon="6.60321">
        <ele>1506.87</ele>
        <time>2019-08-07T07:15:06Z</time>
      </trkpt>
      <trkpt lat="44.06752" lon="6.60338">
        <ele>1511.55</ele>
        <time>2019-08-07T07:15:14Z</time>
      </trkpt>
      <trkpt lat="44.06771" lon="6.60347">
        <ele>1515.98</ele>
        <time>2019-08-07T07:15:22Z</time>
      </trkpt>
      <trkpt lat="44.06792" lon="6.60358">
        <ele>1520.11</ele>
        <time>2019-08-07T07:15:30Z</time>
      </trkpt>
      <trkpt lat="44.0681" lon="6.60368">
        <ele>1523.23</ele>
        <time>2019-08-07T07:15:36Z</time>
      </trkpt>
      <trkpt lat="44.06831" lon="6.60377">
        <ele>1525.37</ele>
        <time>2019-08-07T07:15:42Z</time>
      </trkpt>
      <trkpt lat="44.06851" lon="6.60372">
        <ele>1529.24</ele>
        <time>2019-08-07T07:15:54Z</time>
      </trkpt>
      <trkpt lat="44.06869" lon="6.60363">
        <ele>1534.01</ele>
        <time>2019-08-07T07:16:02Z</time>
      </trkpt>
      <trkpt lat="44.0689" lon="6.60354">
        <ele>1541.55</ele>
        <time>2019-08-07T07:16:12Z</time>
      </trkpt>
      <trkpt lat="44.06915" lon="6.60344">
        <ele>1547.38</ele>
        <time>2019-08-07T07:16:20Z</time>
      </trkpt>
      <trkpt lat="44.06935" lon="6.60339">
        <ele>1550.33</ele>
        <time>2019-08-07T07:16:26Z</time>
      </trkpt>
      <trkpt lat="44.06954" lon="6.60327">
        <ele>1551.35</ele>
        <time>2019-08-07T07:16:32Z</time>
      </trkpt>
      <trkpt lat="44.06971" lon="6.60315">
        <ele>1554.1</ele>
        <time>2019-08-07T07:16:38Z</time>
      </trkpt>
      <trkpt lat="44.06991" lon="6.60299">
        <ele>1557.58</ele>
        <time>2019-08-07T07:16:44Z</time>
      </trkpt>
      <trkpt lat="44.07012" lon="6.60283">
        <ele>1560.07</ele>
        <time>2019-08-07T07:16:48Z</time>
      </trkpt>
      <trkpt lat="44.07034" lon="6.60262">
        <ele>1561.78</ele>
        <time>2019-08-07T07:16:52Z</time>
      </trkpt>
      <trkpt lat="44.07051" lon="6.60249">
        <ele>1564.53</ele>
        <time>2019-08-07T07:16:56Z</time>
      </trkpt>
      <trkpt lat="44.07074" lon="6.60239">
        <ele>1566.6</ele>
        <time>2019-08-07T07:17:00Z</time>
      </trkpt>
      <trkpt lat="44.07095" lon="6.60232">
        <ele>1570.45</ele>
        <time>2019-08-07T07:17:06Z</time>
      </trkpt>
      <trkpt lat="44.07117" lon="6.60217">
        <ele>1574.54</ele>
        <time>2019-08-07T07:17:12Z</time>
      </trkpt>
      <trkpt lat="44.07138" lon="6.60207">
        <ele>1580.04</ele>
        <time>2019-08-07T07:17:20Z</time>
      </trkpt>
      <trkpt lat="44.07157" lon="6.60199">
        <ele>1584.19</ele>
        <time>2019-08-07T07:17:26Z</time>
      </trkpt>
      <trkpt lat="44.07176" lon="6.6019">
        <ele>1588.16</ele>
        <time>2019-08-07T07:17:32Z</time>
      </trkpt>
      <trkpt lat="44.07194" lon="6.60182">
        <ele>1591.54</ele>
        <time>2019-08-07T07:17:38Z</time>
      </trkpt>
      <trkpt lat="44.07214" lon="6.6017">
        <ele>1594.47</ele>
        <time>2019-08-07T07:17:44Z</time>
      </trkpt>
      <trkpt lat="44.07235" lon="6.6016">
        <ele>1598.14</ele>
        <time>2019-08-07T07:17:52Z</time>
      </trkpt>
      <trkpt lat="44.07253" lon="6.60157">
        <ele>1602.37</ele>
        <time>2019-08-07T07:18:00Z</time>
      </trkpt>
      <trkpt lat="44.07271" lon="6.60136">
        <ele>1607.56</ele>
        <time>2019-08-07T07:18:08Z</time>
      </trkpt>
      <trkpt lat="44.07287" lon="6.60122">
        <ele>1613.14</ele>
        <time>2019-08-07T07:18:16Z</time>
      </trkpt>
      <trkpt lat="44.07306" lon="6.60101">
        <ele>1620.75</ele>
        <time>2019-08-07T07:18:24Z</time>
      </trkpt>
      <trkpt lat="44.07326" lon="6.6008">
        <ele>1628.89</ele>
        <time>2019-08-07T07:18:30Z</time>
      </trkpt>
      <trkpt lat="44.07341" lon="6.60066">
        <ele>1634.64</ele>
        <time>2019-08-07T07:18:36Z</time>
      </trkpt>
      <trkpt lat="44.0736" lon="6.6005">
        <ele>1639.64</ele>
        <time>2019-08-07T07:18:42Z</time>
      </trkpt>
      <trkpt lat="44.07375" lon="6.60032">
        <ele>1643.85</ele>
        <time>2019-08-07T07:18:48Z</time>
      </trkpt>
      <trkpt lat="44.07381" lon="6.60004">
        <ele>1649.66</ele>
        <time>2019-08-07T07:18:56Z</time>
      </trkpt>
      <trkpt lat="44.07366" lon="6.59985">
        <ele>1654.71</ele>
        <time>2019-08-07T07:19:04Z</time>
      </trkpt>
      <trkpt lat="44.07349" lon="6.59968">
        <ele>1658.32</ele>
        <time>2019-08-07T07:19:10Z</time>
      </trkpt>
      <trkpt lat="44.07333" lon="6.59953">
        <ele>1661.94</ele>
        <time>2019-08-07T07:19:16Z</time>
      </trkpt>
      <trkpt lat="44.07351" lon="6.59942">
        <ele>1674.33</ele>
        <time>2019-08-07T07:19:38Z</time>
      </trkpt>
      <trkpt lat="44.07371" lon="6.59937">
        <ele>1678.33</ele>
        <time>2019-08-07T07:19:46Z</time>
      </trkpt>
      <trkpt lat="44.07392" lon="6.59922">
        <ele>1681.39</ele>
        <time>2019-08-07T07:19:52Z</time>
      </trkpt>
      <trkpt lat="44.07417" lon="6.59916">
        <ele>1684.16</ele>
        <time>2019-08-07T07:19:58Z</time>
      </trkpt>
      <trkpt lat="44.07437" lon="6.59907">
        <ele>1687.26</ele>
        <time>2019-08-07T07:20:04Z</time>
      </trkpt>
      <trkpt lat="44.07455" lon="6.59899">
        <ele>1690.3</ele>
        <time>2019-08-07T07:20:10Z</time>
      </trkpt>
      <trkpt lat="44.0748" lon="6.59892">
        <ele>1692.66</ele>
        <time>2019-08-07T07:20:16Z</time>
      </trkpt>
      <trkpt lat="44.07504" lon="6.59885">
        <ele>1695.66</ele>
        <time>2019-08-07T07:20:22Z</time>
      </trkpt>
      <trkpt lat="44.07528" lon="6.59883">
        <ele>1697.67</ele>
        <time>2019-08-07T07:20:28Z</time>
      </trkpt>
      <trkpt lat="44.07548" lon="6.59883">
        <ele>1700</ele>
        <time>2019-08-07T07:20:34Z</time>
      </trkpt>
      <trkpt lat="44.07571" lon="6.59888">
        <ele>1701.86</ele>
        <time>2019-08-07T07:20:40Z</time>
      </trkpt>
      <trkpt lat="44.0759" lon="6.59889">
        <ele>1703.72</ele>
        <time>2019-08-07T07:20:46Z</time>
      </trkpt>
      <trkpt lat="44.0761" lon="6.59895">
        <ele>1706.07</ele>
        <time>2019-08-07T07:20:52Z</time>
      </trkpt>
      <trkpt lat="44.07632" lon="6.59902">
        <ele>1708.28</ele>
        <time>2019-08-07T07:20:58Z</time>
      </trkpt>
      <trkpt lat="44.07651" lon="6.59906">
        <ele>1710.11</ele>
        <time>2019-08-07T07:21:04Z</time>
      </trkpt>
      <trkpt lat="44.07673" lon="6.59915">
        <ele>1713.29</ele>
        <time>2019-08-07T07:21:12Z</time>
      </trkpt>
      <trkpt lat="44.07694" lon="6.59922">
        <ele>1715.78</ele>
        <time>2019-08-07T07:21:18Z</time>
      </trkpt>
      <trkpt lat="44.07713" lon="6.59933">
        <ele>1718.28</ele>
        <time>2019-08-07T07:21:24Z</time>
      </trkpt>
      <trkpt lat="44.07735" lon="6.59942">
        <ele>1720.54</ele>
        <time>2019-08-07T07:21:30Z</time>
      </trkpt>
      <trkpt lat="44.07756" lon="6.59942">
        <ele>1722.89</ele>
        <time>2019-08-07T07:21:36Z</time>
      </trkpt>
      <trkpt lat="44.07775" lon="6.59948">
        <ele>1725.17</ele>
        <time>2019-08-07T07:21:42Z</time>
      </trkpt>
      <trkpt lat="44.07797" lon="6.59952">
        <ele>1726.79</ele>
        <time>2019-08-07T07:21:48Z</time>
      </trkpt>
      <trkpt lat="44.07815" lon="6.59947">
        <ele>1728.86</ele>
        <time>2019-08-07T07:21:54Z</time>
      </trkpt>
      <trkpt lat="44.07833" lon="6.59935">
        <ele>1731.98</ele>
        <time>2019-08-07T07:22:02Z</time>
      </trkpt>
      <trkpt lat="44.0785" lon="6.59926">
        <ele>1734.83</ele>
        <time>2019-08-07T07:22:10Z</time>
      </trkpt>
      <trkpt lat="44.07868" lon="6.5991">
        <ele>1738.01</ele>
        <time>2019-08-07T07:22:18Z</time>
      </trkpt>
      <trkpt lat="44.07889" lon="6.599">
        <ele>1738.9</ele>
        <time>2019-08-07T07:22:26Z</time>
      </trkpt>
      <trkpt lat="44.07902" lon="6.5988">
        <ele>1725.27</ele>
        <time>2019-08-07T07:22:28Z</time>
      </trkpt>
      <trkpt lat="44.07921" lon="6.59873">
        <ele>1717.75</ele>
        <time>2019-08-07T07:22:30Z</time>
      </trkpt>
      <trkpt lat="44.07944" lon="6.59861">
        <ele>1713.54</ele>
        <time>2019-08-07T07:22:38Z</time>
      </trkpt>
      <trkpt lat="44.07959" lon="6.59847">
        <ele>1710.46</ele>
        <time>2019-08-07T07:22:42Z</time>
      </trkpt>
      <trkpt lat="44.0797" lon="6.59823">
        <ele>1712.57</ele>
        <time>2019-08-07T07:22:50Z</time>
      </trkpt>
      <trkpt lat="44.07972" lon="6.59794">
        <ele>1713.93</ele>
        <time>2019-08-07T07:22:58Z</time>
      </trkpt>
      <trkpt lat="44.07988" lon="6.59771">
        <ele>1713.68</ele>
        <time>2019-08-07T07:23:04Z</time>
      </trkpt>
      <trkpt lat="44.08005" lon="6.59758">
        <ele>1712.62</ele>
        <time>2019-08-07T07:23:10Z</time>
      </trkpt>
      <trkpt lat="44.08025" lon="6.5974">
        <ele>1716.16</ele>
        <time>2019-08-07T07:23:18Z</time>
      </trkpt>
      <trkpt lat="44.08045" lon="6.5973">
        <ele>1717.49</ele>
        <time>2019-08-07T07:23:26Z</time>
      </trkpt>
      <trkpt lat="44.08065" lon="6.59718">
        <ele>1718.55</ele>
        <time>2019-08-07T07:23:32Z</time>
      </trkpt>
      <trkpt lat="44.08079" lon="6.59703">
        <ele>1723.25</ele>
        <time>2019-08-07T07:23:40Z</time>
      </trkpt>
      <trkpt lat="44.08099" lon="6.59682">
        <ele>1728.61</ele>
        <time>2019-08-07T07:23:48Z</time>
      </trkpt>
      <trkpt lat="44.08112" lon="6.59657">
        <ele>1733.25</ele>
        <time>2019-08-07T07:23:56Z</time>
      </trkpt>
      <trkpt lat="44.08123" lon="6.59633">
        <ele>1737.36</ele>
        <time>2019-08-07T07:24:04Z</time>
      </trkpt>
      <trkpt lat="44.08135" lon="6.59615">
        <ele>1740.43</ele>
        <time>2019-08-07T07:24:10Z</time>
      </trkpt>
      <trkpt lat="44.08144" lon="6.59589">
        <ele>1744.81</ele>
        <time>2019-08-07T07:24:18Z</time>
      </trkpt>
      <trkpt lat="44.08146" lon="6.59562">
        <ele>1748.4</ele>
        <time>2019-08-07T07:24:26Z</time>
      </trkpt>
      <trkpt lat="44.0814" lon="6.59529">
        <ele>1753.28</ele>
        <time>2019-08-07T07:24:34Z</time>
      </trkpt>
      <trkpt lat="44.08132" lon="6.59498">
        <ele>1757.57</ele>
        <time>2019-08-07T07:24:42Z</time>
      </trkpt>
      <trkpt lat="44.08125" lon="6.59472">
        <ele>1761.88</ele>
        <time>2019-08-07T07:24:48Z</time>
      </trkpt>
      <trkpt lat="44.08117" lon="6.59449">
        <ele>1765.45</ele>
        <time>2019-08-07T07:24:54Z</time>
      </trkpt>
      <trkpt lat="44.08114" lon="6.59418">
        <ele>1769.93</ele>
        <time>2019-08-07T07:25:02Z</time>
      </trkpt>
      <trkpt lat="44.08116" lon="6.59381">
        <ele>1772.7</ele>
        <time>2019-08-07T07:25:08Z</time>
      </trkpt>
      <trkpt lat="44.08113" lon="6.5935">
        <ele>1775.36</ele>
        <time>2019-08-07T07:25:14Z</time>
      </trkpt>
      <trkpt lat="44.08118" lon="6.59324">
        <ele>1777.28</ele>
        <time>2019-08-07T07:25:20Z</time>
      </trkpt>
      <trkpt lat="44.08128" lon="6.59302">
        <ele>1780.08</ele>
        <time>2019-08-07T07:25:26Z</time>
      </trkpt>
      <trkpt lat="44.08136" lon="6.59275">
        <ele>1783.06</ele>
        <time>2019-08-07T07:25:32Z</time>
      </trkpt>
      <trkpt lat="44.0814" lon="6.59247">
        <ele>1787.92</ele>
        <time>2019-08-07T07:25:40Z</time>
      </trkpt>
      <trkpt lat="44.08144" lon="6.59221">
        <ele>1791.94</ele>
        <time>2019-08-07T07:25:46Z</time>
      </trkpt>
      <trkpt lat="44.08156" lon="6.59192">
        <ele>1797.53</ele>
        <time>2019-08-07T07:25:54Z</time>
      </trkpt>
      <trkpt lat="44.08169" lon="6.59171">
        <ele>1802.94</ele>
        <time>2019-08-07T07:26:02Z</time>
      </trkpt>
      <trkpt lat="44.08169" lon="6.59141">
        <ele>1801.5</ele>
        <time>2019-08-07T07:26:10Z</time>
      </trkpt>
      <trkpt lat="44.08163" lon="6.59113">
        <ele>1803.43</ele>
        <time>2019-08-07T07:26:20Z</time>
      </trkpt>
      <trkpt lat="44.08164" lon="6.59083">
        <ele>1805.08</ele>
        <time>2019-08-07T07:26:26Z</time>
      </trkpt>
      <trkpt lat="44.08158" lon="6.59057">
        <ele>1809.42</ele>
        <time>2019-08-07T07:26:32Z</time>
      </trkpt>
      <trkpt lat="44.08163" lon="6.59026">
        <ele>1813.96</ele>
        <time>2019-08-07T07:26:38Z</time>
      </trkpt>
      <trkpt lat="44.08179" lon="6.59001">
        <ele>1812.15</ele>
        <time>2019-08-07T07:26:42Z</time>
      </trkpt>
      <trkpt lat="44.08195" lon="6.58983">
        <ele>1806.9</ele>
        <time>2019-08-07T07:26:46Z</time>
      </trkpt>
      <trkpt lat="44.08213" lon="6.58959">
        <ele>1798.91</ele>
        <time>2019-08-07T07:26:52Z</time>
      </trkpt>
      <trkpt lat="44.08231" lon="6.58942">
        <ele>1795.43</ele>
        <time>2019-08-07T07:26:58Z</time>
      </trkpt>
      <trkpt lat="44.08246" lon="6.58926">
        <ele>1790.4</ele>
        <time>2019-08-07T07:27:02Z</time>
      </trkpt>
      <trkpt lat="44.08266" lon="6.58916">
        <ele>1783.79</ele>
        <time>2019-08-07T07:27:08Z</time>
      </trkpt>
      <trkpt lat="44.08283" lon="6.58907">
        <ele>1780.67</ele>
        <time>2019-08-07T07:27:14Z</time>
      </trkpt>
      <trkpt lat="44.08304" lon="6.58896">
        <ele>1780.75</ele>
        <time>2019-08-07T07:27:20Z</time>
      </trkpt>
      <trkpt lat="44.08324" lon="6.5889">
        <ele>1782.06</ele>
        <time>2019-08-07T07:27:26Z</time>
      </trkpt>
      <trkpt lat="44.08344" lon="6.58893">
        <ele>1783.04</ele>
        <time>2019-08-07T07:27:32Z</time>
      </trkpt>
      <trkpt lat="44.08363" lon="6.58893">
        <ele>1783.98</ele>
        <time>2019-08-07T07:27:38Z</time>
      </trkpt>
      <trkpt lat="44.08383" lon="6.58895">
        <ele>1784.72</ele>
        <time>2019-08-07T07:27:44Z</time>
      </trkpt>
      <trkpt lat="44.08404" lon="6.58899">
        <ele>1782.98</ele>
        <time>2019-08-07T07:27:52Z</time>
      </trkpt>
      <trkpt lat="44.08423" lon="6.58906">
        <ele>1781.47</ele>
        <time>2019-08-07T07:28:00Z</time>
      </trkpt>
      <trkpt lat="44.08442" lon="6.58916">
        <ele>1781.7</ele>
        <time>2019-08-07T07:28:06Z</time>
      </trkpt>
      <trkpt lat="44.08459" lon="6.5893">
        <ele>1782.57</ele>
        <time>2019-08-07T07:28:12Z</time>
      </trkpt>
      <trkpt lat="44.08487" lon="6.5894">
        <ele>1777.11</ele>
        <time>2019-08-07T07:28:16Z</time>
      </trkpt>
      <trkpt lat="44.08505" lon="6.58957">
        <ele>1774.77</ele>
        <time>2019-08-07T07:28:20Z</time>
      </trkpt>
      <trkpt lat="44.08525" lon="6.58972">
        <ele>1773.9</ele>
        <time>2019-08-07T07:28:26Z</time>
      </trkpt>
      <trkpt lat="44.08543" lon="6.58991">
        <ele>1772.13</ele>
        <time>2019-08-07T07:28:30Z</time>
      </trkpt>
      <trkpt lat="44.08567" lon="6.58993">
        <ele>1772.96</ele>
        <time>2019-08-07T07:28:38Z</time>
      </trkpt>
      <trkpt lat="44.08586" lon="6.58989">
        <ele>1772.03</ele>
        <time>2019-08-07T07:28:42Z</time>
      </trkpt>
      <trkpt lat="44.08605" lon="6.58978">
        <ele>1773.33</ele>
        <time>2019-08-07T07:28:48Z</time>
      </trkpt>
      <trkpt lat="44.08622" lon="6.5897">
        <ele>1775.24</ele>
        <time>2019-08-07T07:28:54Z</time>
      </trkpt>
      <trkpt lat="44.08642" lon="6.58958">
        <ele>1777.36</ele>
        <time>2019-08-07T07:29:00Z</time>
      </trkpt>
      <trkpt lat="44.08665" lon="6.58949">
        <ele>1770.54</ele>
        <time>2019-08-07T07:29:04Z</time>
      </trkpt>
      <trkpt lat="44.08684" lon="6.58951">
        <ele>1764.34</ele>
        <time>2019-08-07T07:29:08Z</time>
      </trkpt>
      <trkpt lat="44.08687" lon="6.58981">
        <ele>1761.6</ele>
        <time>2019-08-07T07:29:14Z</time>
      </trkpt>
      <trkpt lat="44.08693" lon="6.59006">
        <ele>1760.25</ele>
        <time>2019-08-07T07:29:20Z</time>
      </trkpt>
      <trkpt lat="44.08712" lon="6.59019">
        <ele>1756.17</ele>
        <time>2019-08-07T07:29:26Z</time>
      </trkpt>
      <trkpt lat="44.08732" lon="6.59039">
        <ele>1749.98</ele>
        <time>2019-08-07T07:29:32Z</time>
      </trkpt>
      <trkpt lat="44.08746" lon="6.59059">
        <ele>1745.95</ele>
        <time>2019-08-07T07:29:38Z</time>
      </trkpt>
      <trkpt lat="44.08757" lon="6.59083">
        <ele>1741.68</ele>
        <time>2019-08-07T07:29:42Z</time>
      </trkpt>
      <trkpt lat="44.08764" lon="6.59108">
        <ele>1737.92</ele>
        <time>2019-08-07T07:29:46Z</time>
      </trkpt>
      <trkpt lat="44.08752" lon="6.59135">
        <ele>1727.12</ele>
        <time>2019-08-07T07:29:54Z</time>
      </trkpt>
      <trkpt lat="44.08735" lon="6.59156">
        <ele>1709.1</ele>
        <time>2019-08-07T07:30:02Z</time>
      </trkpt>
      <trkpt lat="44.08729" lon="6.59186">
        <ele>1700.89</ele>
        <time>2019-08-07T07:30:08Z</time>
      </trkpt>
      <trkpt lat="44.0871" lon="6.59193">
        <ele>1690.89</ele>
        <time>2019-08-07T07:30:16Z</time>
      </trkpt>
      <trkpt lat="44.08692" lon="6.59212">
        <ele>1687.97</ele>
        <time>2019-08-07T07:30:24Z</time>
      </trkpt>
      <trkpt lat="44.08675" lon="6.59225">
        <ele>1688.98</ele>
        <time>2019-08-07T07:30:30Z</time>
      </trkpt>
      <trkpt lat="44.08658" lon="6.59236">
        <ele>1690.47</ele>
        <time>2019-08-07T07:30:36Z</time>
      </trkpt>
      <trkpt lat="44.08638" lon="6.5925">
        <ele>1691.69</ele>
        <time>2019-08-07T07:30:40Z</time>
      </trkpt>
      <trkpt lat="44.08624" lon="6.59272">
        <ele>1693.03</ele>
        <time>2019-08-07T07:30:46Z</time>
      </trkpt>
      <trkpt lat="44.08608" lon="6.59295">
        <ele>1684.94</ele>
        <time>2019-08-07T07:30:54Z</time>
      </trkpt>
      <trkpt lat="44.08595" lon="6.59325">
        <ele>1681.52</ele>
        <time>2019-08-07T07:31:00Z</time>
      </trkpt>
      <trkpt lat="44.08599" lon="6.59365">
        <ele>1674.28</ele>
        <time>2019-08-07T07:31:04Z</time>
      </trkpt>
      <trkpt lat="44.08609" lon="6.59401">
        <ele>1669.41</ele>
        <time>2019-08-07T07:31:06Z</time>
      </trkpt>
      <trkpt lat="44.08619" lon="6.59433">
        <ele>1661.55</ele>
        <time>2019-08-07T07:31:12Z</time>
      </trkpt>
      <trkpt lat="44.08628" lon="6.59455">
        <ele>1655.68</ele>
        <time>2019-08-07T07:31:18Z</time>
      </trkpt>
      <trkpt lat="44.08641" lon="6.59477">
        <ele>1652.3</ele>
        <time>2019-08-07T07:31:24Z</time>
      </trkpt>
      <trkpt lat="44.08637" lon="6.59502">
        <ele>1652.01</ele>
        <time>2019-08-07T07:31:32Z</time>
      </trkpt>
      <trkpt lat="44.08644" lon="6.59533">
        <ele>1649.37</ele>
        <time>2019-08-07T07:31:38Z</time>
      </trkpt>
      <trkpt lat="44.08657" lon="6.59563">
        <ele>1644.89</ele>
        <time>2019-08-07T07:31:44Z</time>
      </trkpt>
      <trkpt lat="44.08672" lon="6.59582">
        <ele>1640.4</ele>
        <time>2019-08-07T07:31:50Z</time>
      </trkpt>
      <trkpt lat="44.0869" lon="6.59602">
        <ele>1635.27</ele>
        <time>2019-08-07T07:31:56Z</time>
      </trkpt>
      <trkpt lat="44.08705" lon="6.59619">
        <ele>1631.9</ele>
        <time>2019-08-07T07:32:00Z</time>
      </trkpt>
      <trkpt lat="44.0872" lon="6.59642">
        <ele>1628.69</ele>
        <time>2019-08-07T07:32:06Z</time>
      </trkpt>
      <trkpt lat="44.08736" lon="6.5966">
        <ele>1625.42</ele>
        <time>2019-08-07T07:32:14Z</time>
      </trkpt>
      <trkpt lat="44.08756" lon="6.59678">
        <ele>1623.78</ele>
        <time>2019-08-07T07:32:20Z</time>
      </trkpt>
      <trkpt lat="44.08773" lon="6.59704">
        <ele>1622.76</ele>
        <time>2019-08-07T07:32:24Z</time>
      </trkpt>
      <trkpt lat="44.08797" lon="6.59725">
        <ele>1623.94</ele>
        <time>2019-08-07T07:32:30Z</time>
      </trkpt>
      <trkpt lat="44.08816" lon="6.59729">
        <ele>1625.44</ele>
        <time>2019-08-07T07:32:36Z</time>
      </trkpt>
      <trkpt lat="44.08842" lon="6.59735">
        <ele>1624.7</ele>
        <time>2019-08-07T07:32:44Z</time>
      </trkpt>
      <trkpt lat="44.08865" lon="6.59748">
        <ele>1624.83</ele>
        <time>2019-08-07T07:32:48Z</time>
      </trkpt>
      <trkpt lat="44.08889" lon="6.59752">
        <ele>1629.94</ele>
        <time>2019-08-07T07:32:54Z</time>
      </trkpt>
      <trkpt lat="44.08909" lon="6.59741">
        <ele>1633.01</ele>
        <time>2019-08-07T07:33:00Z</time>
      </trkpt>
      <trkpt lat="44.08931" lon="6.59727">
        <ele>1638.08</ele>
        <time>2019-08-07T07:33:06Z</time>
      </trkpt>
      <trkpt lat="44.08958" lon="6.59717">
        <ele>1640.48</ele>
        <time>2019-08-07T07:33:10Z</time>
      </trkpt>
      <trkpt lat="44.0898" lon="6.59708">
        <ele>1637.65</ele>
        <time>2019-08-07T07:33:12Z</time>
      </trkpt>
      <trkpt lat="44.09003" lon="6.59715">
        <ele>1634.36</ele>
        <time>2019-08-07T07:33:18Z</time>
      </trkpt>
      <trkpt lat="44.09005" lon="6.59744">
        <ele>1632.43</ele>
        <time>2019-08-07T07:33:24Z</time>
      </trkpt>
      <trkpt lat="44.08997" lon="6.59771">
        <ele>1632.38</ele>
        <time>2019-08-07T07:33:30Z</time>
      </trkpt>
      <trkpt lat="44.08986" lon="6.598">
        <ele>1633.09</ele>
        <time>2019-08-07T07:33:36Z</time>
      </trkpt>
      <trkpt lat="44.08973" lon="6.59826">
        <ele>1633.04</ele>
        <time>2019-08-07T07:33:44Z</time>
      </trkpt>
      <trkpt lat="44.08964" lon="6.59848">
        <ele>1637.92</ele>
        <time>2019-08-07T07:33:56Z</time>
      </trkpt>
      <trkpt lat="44.08959" lon="6.59874">
        <ele>1642.53</ele>
        <time>2019-08-07T07:34:06Z</time>
      </trkpt>
      <trkpt lat="44.08953" lon="6.59899">
        <ele>1650.62</ele>
        <time>2019-08-07T07:34:18Z</time>
      </trkpt>
      <trkpt lat="44.0895" lon="6.59924">
        <ele>1656.13</ele>
        <time>2019-08-07T07:34:24Z</time>
      </trkpt>
      <trkpt lat="44.08948" lon="6.59952">
        <ele>1658.32</ele>
        <time>2019-08-07T07:34:30Z</time>
      </trkpt>
      <trkpt lat="44.08942" lon="6.59978">
        <ele>1662.25</ele>
        <time>2019-08-07T07:34:38Z</time>
      </trkpt>
      <trkpt lat="44.08934" lon="6.60014">
        <ele>1665.32</ele>
        <time>2019-08-07T07:34:46Z</time>
      </trkpt>
      <trkpt lat="44.08939" lon="6.60041">
        <ele>1669.83</ele>
        <time>2019-08-07T07:34:54Z</time>
      </trkpt>
      <trkpt lat="44.08946" lon="6.60064">
        <ele>1674.25</ele>
        <time>2019-08-07T07:35:02Z</time>
      </trkpt>
      <trkpt lat="44.08958" lon="6.60088">
        <ele>1682.27</ele>
        <time>2019-08-07T07:35:12Z</time>
      </trkpt>
      <trkpt lat="44.08978" lon="6.60112">
        <ele>1686.4</ele>
        <time>2019-08-07T07:35:22Z</time>
      </trkpt>
      <trkpt lat="44.08989" lon="6.60137">
        <ele>1685.12</ele>
        <time>2019-08-07T07:35:28Z</time>
      </trkpt>
      <trkpt lat="44.09006" lon="6.60158">
        <ele>1685.14</ele>
        <time>2019-08-07T07:35:38Z</time>
      </trkpt>
      <trkpt lat="44.09021" lon="6.60179">
        <ele>1686.49</ele>
        <time>2019-08-07T07:35:46Z</time>
      </trkpt>
      <trkpt lat="44.09028" lon="6.60203">
        <ele>1685.89</ele>
        <time>2019-08-07T07:35:48Z</time>
      </trkpt>
      <trkpt lat="44.09043" lon="6.60227">
        <ele>1686.45</ele>
        <time>2019-08-07T07:35:54Z</time>
      </trkpt>
      <trkpt lat="44.09053" lon="6.60251">
        <ele>1683.71</ele>
        <time>2019-08-07T07:36:00Z</time>
      </trkpt>
      <trkpt lat="44.09035" lon="6.60257">
        <ele>1682.12</ele>
        <time>2019-08-07T07:36:22Z</time>
      </trkpt>
      <trkpt lat="44.09012" lon="6.60254">
        <ele>1684.69</ele>
        <time>2019-08-07T07:36:34Z</time>
      </trkpt>
      <trkpt lat="44.08992" lon="6.60245">
        <ele>1691.28</ele>
        <time>2019-08-07T07:36:48Z</time>
      </trkpt>
      <trkpt lat="44.08973" lon="6.60241">
        <ele>1695.63</ele>
        <time>2019-08-07T07:36:58Z</time>
      </trkpt>
      <trkpt lat="44.08956" lon="6.60226">
        <ele>1706.3</ele>
        <time>2019-08-07T07:37:14Z</time>
      </trkpt>
      <trkpt lat="44.08935" lon="6.60216">
        <ele>1709.56</ele>
        <time>2019-08-07T07:37:22Z</time>
      </trkpt>
      <trkpt lat="44.08917" lon="6.602">
        <ele>1712.73</ele>
        <time>2019-08-07T07:37:28Z</time>
      </trkpt>
      <trkpt lat="44.08899" lon="6.60187">
        <ele>1714.43</ele>
        <time>2019-08-07T07:37:34Z</time>
      </trkpt>
      <trkpt lat="44.08892" lon="6.6016">
        <ele>1715.97</ele>
        <time>2019-08-07T07:37:44Z</time>
      </trkpt>
      <trkpt lat="44.08872" lon="6.60147">
        <ele>1711.03</ele>
        <time>2019-08-07T07:37:52Z</time>
      </trkpt>
      <trkpt lat="44.08862" lon="6.60126">
        <ele>1710.27</ele>
        <time>2019-08-07T07:37:58Z</time>
      </trkpt>
      <trkpt lat="44.08805" lon="6.60113">
        <ele>1708.71</ele>
        <time>2019-08-07T07:38:11Z</time>
      </trkpt>
      <trkpt lat="44.08808" lon="6.60142">
        <ele>1709.04</ele>
        <time>2019-08-07T07:38:20Z</time>
      </trkpt>
      <trkpt lat="44.08812" lon="6.60172">
        <ele>1709.1</ele>
        <time>2019-08-07T07:38:28Z</time>
      </trkpt>
      <trkpt lat="44.08807" lon="6.60201">
        <ele>1708.73</ele>
        <time>2019-08-07T07:38:38Z</time>
      </trkpt>
      <trkpt lat="44.08794" lon="6.60228">
        <ele>1708.02</ele>
        <time>2019-08-07T07:38:46Z</time>
      </trkpt>
      <trkpt lat="44.0878" lon="6.60246">
        <ele>1705.93</ele>
        <time>2019-08-07T07:38:52Z</time>
      </trkpt>
      <trkpt lat="44.08763" lon="6.60267">
        <ele>1704.79</ele>
        <time>2019-08-07T07:38:58Z</time>
      </trkpt>
      <trkpt lat="44.08752" lon="6.60289">
        <ele>1703.01</ele>
        <time>2019-08-07T07:39:04Z</time>
      </trkpt>
      <trkpt lat="44.08737" lon="6.60313">
        <ele>1698.39</ele>
        <time>2019-08-07T07:39:10Z</time>
      </trkpt>
      <trkpt lat="44.08722" lon="6.60337">
        <ele>1695.37</ele>
        <time>2019-08-07T07:39:16Z</time>
      </trkpt>
      <trkpt lat="44.08702" lon="6.60358">
        <ele>1696.81</ele>
        <time>2019-08-07T07:39:22Z</time>
      </trkpt>
      <trkpt lat="44.08683" lon="6.60375">
        <ele>1695.61</ele>
        <time>2019-08-07T07:39:28Z</time>
      </trkpt>
      <trkpt lat="44.08663" lon="6.60389">
        <ele>1698.25</ele>
        <time>2019-08-07T07:39:34Z</time>
      </trkpt>
      <trkpt lat="44.08639" lon="6.60402">
        <ele>1701.84</ele>
        <time>2019-08-07T07:39:40Z</time>
      </trkpt>
      <trkpt lat="44.08614" lon="6.60417">
        <ele>1702.08</ele>
        <time>2019-08-07T07:39:46Z</time>
      </trkpt>
      <trkpt lat="44.08595" lon="6.60428">
        <ele>1701.33</ele>
        <time>2019-08-07T07:39:50Z</time>
      </trkpt>
      <trkpt lat="44.08577" lon="6.60439">
        <ele>1700.59</ele>
        <time>2019-08-07T07:39:54Z</time>
      </trkpt>
      <trkpt lat="44.08557" lon="6.60456">
        <ele>1701.05</ele>
        <time>2019-08-07T07:40:00Z</time>
      </trkpt>
      <trkpt lat="44.0854" lon="6.60473">
        <ele>1700.45</ele>
        <time>2019-08-07T07:40:04Z</time>
      </trkpt>
      <trkpt lat="44.08525" lon="6.60492">
        <ele>1699.68</ele>
        <time>2019-08-07T07:40:08Z</time>
      </trkpt>
      <trkpt lat="44.08506" lon="6.60518">
        <ele>1698.82</ele>
        <time>2019-08-07T07:40:14Z</time>
      </trkpt>
      <trkpt lat="44.08488" lon="6.6054">
        <ele>1697.32</ele>
        <time>2019-08-07T07:40:20Z</time>
      </trkpt>
      <trkpt lat="44.08472" lon="6.6056">
        <ele>1698.69</ele>
        <time>2019-08-07T07:40:26Z</time>
      </trkpt>
      <trkpt lat="44.08459" lon="6.60586">
        <ele>1698.94</ele>
        <time>2019-08-07T07:40:32Z</time>
      </trkpt>
      <trkpt lat="44.08443" lon="6.6061">
        <ele>1698.27</ele>
        <time>2019-08-07T07:40:38Z</time>
      </trkpt>
      <trkpt lat="44.08443" lon="6.60639">
        <ele>1698.42</ele>
        <time>2019-08-07T07:40:46Z</time>
      </trkpt>
      <trkpt lat="44.0846" lon="6.60657">
        <ele>1699.35</ele>
        <time>2019-08-07T07:40:54Z</time>
      </trkpt>
      <trkpt lat="44.08472" lon="6.60676">
        <ele>1700.03</ele>
        <time>2019-08-07T07:41:00Z</time>
      </trkpt>
      <trkpt lat="44.08489" lon="6.607">
        <ele>1701.42</ele>
        <time>2019-08-07T07:41:08Z</time>
      </trkpt>
      <trkpt lat="44.08502" lon="6.60719">
        <ele>1703.94</ele>
        <time>2019-08-07T07:41:14Z</time>
      </trkpt>
      <trkpt lat="44.0852" lon="6.60728">
        <ele>1702.19</ele>
        <time>2019-08-07T07:41:18Z</time>
      </trkpt>
      <trkpt lat="44.08543" lon="6.60735">
        <ele>1699.01</ele>
        <time>2019-08-07T07:41:24Z</time>
      </trkpt>
      <trkpt lat="44.08568" lon="6.60747">
        <ele>1696.22</ele>
        <time>2019-08-07T07:41:30Z</time>
      </trkpt>
      <trkpt lat="44.08588" lon="6.60757">
        <ele>1694.64</ele>
        <time>2019-08-07T07:41:34Z</time>
      </trkpt>
      <trkpt lat="44.08608" lon="6.60763">
        <ele>1693.76</ele>
        <time>2019-08-07T07:41:38Z</time>
      </trkpt>
      <trkpt lat="44.08626" lon="6.60775">
        <ele>1690.23</ele>
        <time>2019-08-07T07:41:42Z</time>
      </trkpt>
      <trkpt lat="44.08637" lon="6.60797">
        <ele>1694.62</ele>
        <time>2019-08-07T07:41:46Z</time>
      </trkpt>
      <trkpt lat="44.08618" lon="6.60817">
        <ele>1695.67</ele>
        <time>2019-08-07T07:41:52Z</time>
      </trkpt>
      <trkpt lat="44.08606" lon="6.60838">
        <ele>1694.79</ele>
        <time>2019-08-07T07:41:56Z</time>
      </trkpt>
      <trkpt lat="44.08595" lon="6.60868">
        <ele>1693.05</ele>
        <time>2019-08-07T07:42:00Z</time>
      </trkpt>
      <trkpt lat="44.08581" lon="6.60895">
        <ele>1689.54</ele>
        <time>2019-08-07T07:42:04Z</time>
      </trkpt>
      <trkpt lat="44.08567" lon="6.60923">
        <ele>1686.05</ele>
        <time>2019-08-07T07:42:08Z</time>
      </trkpt>
      <trkpt lat="44.08554" lon="6.60948">
        <ele>1685.03</ele>
        <time>2019-08-07T07:42:12Z</time>
      </trkpt>
      <trkpt lat="44.08555" lon="6.60973">
        <ele>1684.05</ele>
        <time>2019-08-07T07:42:16Z</time>
      </trkpt>
      <trkpt lat="44.08573" lon="6.60992">
        <ele>1684.26</ele>
        <time>2019-08-07T07:42:20Z</time>
      </trkpt>
      <trkpt lat="44.0859" lon="6.61013">
        <ele>1686.5</ele>
        <time>2019-08-07T07:42:24Z</time>
      </trkpt>
      <trkpt lat="44.08602" lon="6.61036">
        <ele>1685.77</ele>
        <time>2019-08-07T07:42:32Z</time>
      </trkpt>
      <trkpt lat="44.08621" lon="6.61043">
        <ele>1684.04</ele>
        <time>2019-08-07T07:42:40Z</time>
      </trkpt>
      <trkpt lat="44.08639" lon="6.61051">
        <ele>1682.57</ele>
        <time>2019-08-07T07:42:46Z</time>
      </trkpt>
      <trkpt lat="44.08657" lon="6.61059">
        <ele>1679.57</ele>
        <time>2019-08-07T07:42:54Z</time>
      </trkpt>
      <trkpt lat="44.08674" lon="6.61074">
        <ele>1677.65</ele>
        <time>2019-08-07T07:43:02Z</time>
      </trkpt>
      <trkpt lat="44.08686" lon="6.61103">
        <ele>1678.41</ele>
        <time>2019-08-07T07:43:10Z</time>
      </trkpt>
      <trkpt lat="44.08682" lon="6.61128">
        <ele>1682.67</ele>
        <time>2019-08-07T07:43:16Z</time>
      </trkpt>
      <trkpt lat="44.08668" lon="6.6115">
        <ele>1684.98</ele>
        <time>2019-08-07T07:43:22Z</time>
      </trkpt>
      <trkpt lat="44.08652" lon="6.61165">
        <ele>1688.49</ele>
        <time>2019-08-07T07:43:28Z</time>
      </trkpt>
      <trkpt lat="44.08637" lon="6.61186">
        <ele>1691.61</ele>
        <time>2019-08-07T07:43:34Z</time>
      </trkpt>
      <trkpt lat="44.08641" lon="6.61212">
        <ele>1695</ele>
        <time>2019-08-07T07:43:42Z</time>
      </trkpt>
      <trkpt lat="44.08654" lon="6.61232">
        <ele>1697.22</ele>
        <time>2019-08-07T07:43:48Z</time>
      </trkpt>
      <trkpt lat="44.08661" lon="6.61255">
        <ele>1700.14</ele>
        <time>2019-08-07T07:43:54Z</time>
      </trkpt>
      <trkpt lat="44.08653" lon="6.61279">
        <ele>1701.78</ele>
        <time>2019-08-07T07:44:00Z</time>
      </trkpt>
      <trkpt lat="44.08639" lon="6.61297">
        <ele>1702.74</ele>
        <time>2019-08-07T07:44:06Z</time>
      </trkpt>
      <trkpt lat="44.08625" lon="6.61322">
        <ele>1703.55</ele>
        <time>2019-08-07T07:44:14Z</time>
      </trkpt>
      <trkpt lat="44.0862" lon="6.61347">
        <ele>1705.98</ele>
        <time>2019-08-07T07:44:22Z</time>
      </trkpt>
      <trkpt lat="44.0864" lon="6.61364">
        <ele>1705.22</ele>
        <time>2019-08-07T07:44:28Z</time>
      </trkpt>
      <trkpt lat="44.0866" lon="6.61378">
        <ele>1709.63</ele>
        <time>2019-08-07T07:44:34Z</time>
      </trkpt>
      <trkpt lat="44.08681" lon="6.61382">
        <ele>1714.14</ele>
        <time>2019-08-07T07:44:40Z</time>
      </trkpt>
      <trkpt lat="44.08704" lon="6.61388">
        <ele>1717.16</ele>
        <time>2019-08-07T07:44:48Z</time>
      </trkpt>
      <trkpt lat="44.08722" lon="6.6139">
        <ele>1723</ele>
        <time>2019-08-07T07:44:58Z</time>
      </trkpt>
      <trkpt lat="44.08742" lon="6.61376">
        <ele>1728.34</ele>
        <time>2019-08-07T07:45:08Z</time>
      </trkpt>
      <trkpt lat="44.08757" lon="6.6136">
        <ele>1730.3</ele>
        <time>2019-08-07T07:45:18Z</time>
      </trkpt>
      <trkpt lat="44.08775" lon="6.61352">
        <ele>1739.49</ele>
        <time>2019-08-07T07:45:28Z</time>
      </trkpt>
      <trkpt lat="44.08795" lon="6.61344">
        <ele>1751.27</ele>
        <time>2019-08-07T07:45:38Z</time>
      </trkpt>
      <trkpt lat="44.08816" lon="6.6134">
        <ele>1758.2</ele>
        <time>2019-08-07T07:45:46Z</time>
      </trkpt>
      <trkpt lat="44.08838" lon="6.61336">
        <ele>1761.12</ele>
        <time>2019-08-07T07:45:54Z</time>
      </trkpt>
      <trkpt lat="44.08858" lon="6.61339">
        <ele>1762.93</ele>
        <time>2019-08-07T07:46:02Z</time>
      </trkpt>
      <trkpt lat="44.08875" lon="6.61352">
        <ele>1762.64</ele>
        <time>2019-08-07T07:46:08Z</time>
      </trkpt>
      <trkpt lat="44.08893" lon="6.61365">
        <ele>1761.05</ele>
        <time>2019-08-07T07:46:16Z</time>
      </trkpt>
      <trkpt lat="44.08914" lon="6.61368">
        <ele>1758.7</ele>
        <time>2019-08-07T07:46:30Z</time>
      </trkpt>
      <trkpt lat="44.08933" lon="6.61372">
        <ele>1759.43</ele>
        <time>2019-08-07T07:46:40Z</time>
      </trkpt>
      <trkpt lat="44.08953" lon="6.6138">
        <ele>1760.87</ele>
        <time>2019-08-07T07:46:50Z</time>
      </trkpt>
      <trkpt lat="44.08977" lon="6.6138">
        <ele>1761.62</ele>
        <time>2019-08-07T07:47:18Z</time>
      </trkpt>
      <trkpt lat="44.08997" lon="6.61378">
        <ele>1760.18</ele>
        <time>2019-08-07T07:47:30Z</time>
      </trkpt>
      <trkpt lat="44.09016" lon="6.61393">
        <ele>1758.31</ele>
        <time>2019-08-07T07:47:46Z</time>
      </trkpt>
      <trkpt lat="44.09029" lon="6.6141">
        <ele>1757.77</ele>
        <time>2019-08-07T07:47:56Z</time>
      </trkpt>
      <trkpt lat="44.09045" lon="6.61425">
        <ele>1757.78</ele>
        <time>2019-08-07T07:48:08Z</time>
      </trkpt>
      <trkpt lat="44.09058" lon="6.61447">
        <ele>1758.35</ele>
        <time>2019-08-07T07:48:18Z</time>
      </trkpt>
      <trkpt lat="44.09071" lon="6.61465">
        <ele>1758.82</ele>
        <time>2019-08-07T07:48:26Z</time>
      </trkpt>
      <trkpt lat="44.09086" lon="6.61486">
        <ele>1760.22</ele>
        <time>2019-08-07T07:48:34Z</time>
      </trkpt>
      <trkpt lat="44.09101" lon="6.61504">
        <ele>1762.73</ele>
        <time>2019-08-07T07:48:44Z</time>
      </trkpt>
      <trkpt lat="44.09112" lon="6.61526">
        <ele>1765.1</ele>
        <time>2019-08-07T07:48:54Z</time>
      </trkpt>
      <trkpt lat="44.09126" lon="6.61547">
        <ele>1767.66</ele>
        <time>2019-08-07T07:49:06Z</time>
      </trkpt>
      <trkpt lat="44.09141" lon="6.61568">
        <ele>1770.07</ele>
        <time>2019-08-07T07:49:16Z</time>
      </trkpt>
      <trkpt lat="44.09158" lon="6.61586">
        <ele>1773.54</ele>
        <time>2019-08-07T07:49:26Z</time>
      </trkpt>
      <trkpt lat="44.09171" lon="6.61608">
        <ele>1777.66</ele>
        <time>2019-08-07T07:49:36Z</time>
      </trkpt>
      <trkpt lat="44.09188" lon="6.61628">
        <ele>1781.18</ele>
        <time>2019-08-07T07:49:44Z</time>
      </trkpt>
      <trkpt lat="44.092" lon="6.61648">
        <ele>1787.37</ele>
        <time>2019-08-07T07:49:52Z</time>
      </trkpt>
      <trkpt lat="44.0921" lon="6.6167">
        <ele>1798.74</ele>
        <time>2019-08-07T07:50:06Z</time>
      </trkpt>
      <trkpt lat="44.09218" lon="6.61694">
        <ele>1809.66</ele>
        <time>2019-08-07T07:50:20Z</time>
      </trkpt>
      <trkpt lat="44.09225" lon="6.61721">
        <ele>1824.62</ele>
        <time>2019-08-07T07:50:40Z</time>
      </trkpt>
      <trkpt lat="44.09249" lon="6.61724">
        <ele>1826.79</ele>
        <time>2019-08-07T07:50:56Z</time>
      </trkpt>
      <trkpt lat="44.09269" lon="6.6173">
        <ele>1825.48</ele>
        <time>2019-08-07T07:51:04Z</time>
      </trkpt>
      <trkpt lat="44.09286" lon="6.61738">
        <ele>1824.45</ele>
        <time>2019-08-07T07:51:10Z</time>
      </trkpt>
      <trkpt lat="44.093" lon="6.61774">
        <ele>1824.7</ele>
        <time>2019-08-07T07:51:14Z</time>
      </trkpt>
      <trkpt lat="44.0932" lon="6.61791">
        <ele>1824.54</ele>
        <time>2019-08-07T07:51:20Z</time>
      </trkpt>
      <trkpt lat="44.0934" lon="6.61804">
        <ele>1824.49</ele>
        <time>2019-08-07T07:51:32Z</time>
      </trkpt>
      <trkpt lat="44.09357" lon="6.61816">
        <ele>1824.47</ele>
        <time>2019-08-07T07:51:44Z</time>
      </trkpt>
      <trkpt lat="44.09378" lon="6.61823">
        <ele>1824.27</ele>
        <time>2019-08-07T07:51:54Z</time>
      </trkpt>
      <trkpt lat="44.09395" lon="6.6183">
        <ele>1823.26</ele>
        <time>2019-08-07T07:52:04Z</time>
      </trkpt>
      <trkpt lat="44.09418" lon="6.61835">
        <ele>1822.36</ele>
        <time>2019-08-07T07:52:12Z</time>
      </trkpt>
      <trkpt lat="44.09441" lon="6.61826">
        <ele>1837.34</ele>
        <time>2019-08-07T07:52:30Z</time>
      </trkpt>
      <trkpt lat="44.0946" lon="6.61829">
        <ele>1838.6</ele>
        <time>2019-08-07T07:52:46Z</time>
      </trkpt>
      <trkpt lat="44.09447" lon="6.61851">
        <ele>1849.84</ele>
        <time>2019-08-07T07:53:52Z</time>
      </trkpt>
      <trkpt lat="44.09427" lon="6.61862">
        <ele>1856.46</ele>
        <time>2019-08-07T07:54:06Z</time>
      </trkpt>
      <trkpt lat="44.09411" lon="6.61876">
        <ele>1865.39</ele>
        <time>2019-08-07T07:54:20Z</time>
      </trkpt>
      <trkpt lat="44.09392" lon="6.61888">
        <ele>1874.79</ele>
        <time>2019-08-07T07:54:30Z</time>
      </trkpt>
      <trkpt lat="44.09374" lon="6.61898">
        <ele>1882.89</ele>
        <time>2019-08-07T07:54:40Z</time>
      </trkpt>
      <trkpt lat="44.09355" lon="6.619">
        <ele>1888.79</ele>
        <time>2019-08-07T07:54:48Z</time>
      </trkpt>
      <trkpt lat="44.09334" lon="6.61903">
        <ele>1893.04</ele>
        <time>2019-08-07T07:54:56Z</time>
      </trkpt>
      <trkpt lat="44.09316" lon="6.61909">
        <ele>1898.4</ele>
        <time>2019-08-07T07:55:02Z</time>
      </trkpt>
      <trkpt lat="44.09295" lon="6.61917">
        <ele>1902.78</ele>
        <time>2019-08-07T07:55:08Z</time>
      </trkpt>
      <trkpt lat="44.09275" lon="6.61938">
        <ele>1906.89</ele>
        <time>2019-08-07T07:55:18Z</time>
      </trkpt>
      <trkpt lat="44.09263" lon="6.61957">
        <ele>1906.25</ele>
        <time>2019-08-07T07:55:24Z</time>
      </trkpt>
      <trkpt lat="44.09252" lon="6.61979">
        <ele>1910.54</ele>
        <time>2019-08-07T07:55:34Z</time>
      </trkpt>
      <trkpt lat="44.09239" lon="6.61997">
        <ele>1915.2</ele>
        <time>2019-08-07T07:55:46Z</time>
      </trkpt>
      <trkpt lat="44.09225" lon="6.62019">
        <ele>1920.77</ele>
        <time>2019-08-07T07:55:56Z</time>
      </trkpt>
      <trkpt lat="44.0921" lon="6.62035">
        <ele>1928.45</ele>
        <time>2019-08-07T07:56:06Z</time>
      </trkpt>
      <trkpt lat="44.0918" lon="6.62041">
        <ele>1931.07</ele>
        <time>2019-08-07T07:56:16Z</time>
      </trkpt>
      <trkpt lat="44.09162" lon="6.62053">
        <ele>1932.16</ele>
        <time>2019-08-07T07:56:22Z</time>
      </trkpt>
      <trkpt lat="44.0916" lon="6.62086">
        <ele>1936.94</ele>
        <time>2019-08-07T07:56:32Z</time>
      </trkpt>
      <trkpt lat="44.09163" lon="6.62116">
        <ele>1938.08</ele>
        <time>2019-08-07T07:56:36Z</time>
      </trkpt>
      <trkpt lat="44.09166" lon="6.62145">
        <ele>1942.75</ele>
        <time>2019-08-07T07:56:46Z</time>
      </trkpt>
      <trkpt lat="44.09173" lon="6.62176">
        <ele>1947.25</ele>
        <time>2019-08-07T07:56:54Z</time>
      </trkpt>
      <trkpt lat="44.09174" lon="6.62203">
        <ele>1951.59</ele>
        <time>2019-08-07T07:57:00Z</time>
      </trkpt>
      <trkpt lat="44.09185" lon="6.6223">
        <ele>1958.85</ele>
        <time>2019-08-07T07:57:08Z</time>
      </trkpt>
      <trkpt lat="44.092" lon="6.62253">
        <ele>1968.63</ele>
        <time>2019-08-07T07:57:16Z</time>
      </trkpt>
      <trkpt lat="44.09208" lon="6.62284">
        <ele>1971.04</ele>
        <time>2019-08-07T07:57:22Z</time>
      </trkpt>
      <trkpt lat="44.09212" lon="6.62321">
        <ele>1967.33</ele>
        <time>2019-08-07T07:57:26Z</time>
      </trkpt>
      <trkpt lat="44.09221" lon="6.62353">
        <ele>1966.56</ele>
        <time>2019-08-07T07:57:30Z</time>
      </trkpt>
      <trkpt lat="44.09229" lon="6.62379">
        <ele>1967.21</ele>
        <time>2019-08-07T07:57:34Z</time>
      </trkpt>
      <trkpt lat="44.09241" lon="6.62398">
        <ele>1968.29</ele>
        <time>2019-08-07T07:57:40Z</time>
      </trkpt>
      <trkpt lat="44.09255" lon="6.62416">
        <ele>1974.2</ele>
        <time>2019-08-07T07:57:52Z</time>
      </trkpt>
      <trkpt lat="44.09259" lon="6.62443">
        <ele>1976.91</ele>
        <time>2019-08-07T07:58:04Z</time>
      </trkpt>
      <trkpt lat="44.09253" lon="6.62472">
        <ele>1975.8</ele>
        <time>2019-08-07T07:58:14Z</time>
      </trkpt>
      <trkpt lat="44.09241" lon="6.62498">
        <ele>1972.61</ele>
        <time>2019-08-07T07:58:20Z</time>
      </trkpt>
      <trkpt lat="44.09234" lon="6.62523">
        <ele>1966.73</ele>
        <time>2019-08-07T07:58:24Z</time>
      </trkpt>
      <trkpt lat="44.0922" lon="6.62547">
        <ele>1962.15</ele>
        <time>2019-08-07T07:58:32Z</time>
      </trkpt>
      <trkpt lat="44.09204" lon="6.62562">
        <ele>1959.98</ele>
        <time>2019-08-07T07:58:42Z</time>
      </trkpt>
      <trkpt lat="44.09184" lon="6.62575">
        <ele>1961.21</ele>
        <time>2019-08-07T07:58:54Z</time>
      </trkpt>
      <trkpt lat="44.09165" lon="6.62581">
        <ele>1964.61</ele>
        <time>2019-08-07T07:59:04Z</time>
      </trkpt>
      <trkpt lat="44.09149" lon="6.62594">
        <ele>1969.46</ele>
        <time>2019-08-07T07:59:14Z</time>
      </trkpt>
      <trkpt lat="44.09134" lon="6.62612">
        <ele>1973.54</ele>
        <time>2019-08-07T07:59:20Z</time>
      </trkpt>
      <trkpt lat="44.09108" lon="6.62636">
        <ele>1977.87</ele>
        <time>2019-08-07T07:59:30Z</time>
      </trkpt>
      <trkpt lat="44.09087" lon="6.6265">
        <ele>1978.44</ele>
        <time>2019-08-07T07:59:34Z</time>
      </trkpt>
      <trkpt lat="44.09065" lon="6.62663">
        <ele>1979.17</ele>
        <time>2019-08-07T07:59:38Z</time>
      </trkpt>
      <trkpt lat="44.09047" lon="6.62678">
        <ele>1979.08</ele>
        <time>2019-08-07T07:59:44Z</time>
      </trkpt>
      <trkpt lat="44.09031" lon="6.627">
        <ele>1978.37</ele>
        <time>2019-08-07T07:59:50Z</time>
      </trkpt>
      <trkpt lat="44.09016" lon="6.62718">
        <ele>1981.38</ele>
        <time>2019-08-07T07:59:56Z</time>
      </trkpt>
      <trkpt lat="44.09003" lon="6.62738">
        <ele>1984.83</ele>
        <time>2019-08-07T08:00:08Z</time>
      </trkpt>
      <trkpt lat="44.09003" lon="6.62768">
        <ele>1994.4</ele>
        <time>2019-08-07T08:00:22Z</time>
      </trkpt>
      <trkpt lat="44.08998" lon="6.62796">
        <ele>2000.21</ele>
        <time>2019-08-07T08:00:30Z</time>
      </trkpt>
      <trkpt lat="44.09" lon="6.62837">
        <ele>2007.4</ele>
        <time>2019-08-07T08:00:40Z</time>
      </trkpt>
      <trkpt lat="44.0901" lon="6.6287">
        <ele>2010.12</ele>
        <time>2019-08-07T08:00:44Z</time>
      </trkpt>
      <trkpt lat="44.09023" lon="6.62893">
        <ele>2013.02</ele>
        <time>2019-08-07T08:00:50Z</time>
      </trkpt>
      <trkpt lat="44.09022" lon="6.62921">
        <ele>2002.5</ele>
        <time>2019-08-07T08:00:54Z</time>
      </trkpt>
      <trkpt lat="44.09038" lon="6.62956">
        <ele>2006.52</ele>
        <time>2019-08-07T08:00:58Z</time>
      </trkpt>
      <trkpt lat="44.09052" lon="6.62983">
        <ele>2014.24</ele>
        <time>2019-08-07T08:01:04Z</time>
      </trkpt>
      <trkpt lat="44.09066" lon="6.63002">
        <ele>2024.3</ele>
        <time>2019-08-07T08:01:12Z</time>
      </trkpt>
      <trkpt lat="44.0907" lon="6.63038">
        <ele>2020.94</ele>
        <time>2019-08-07T08:01:18Z</time>
      </trkpt>
      <trkpt lat="44.09062" lon="6.63061">
        <ele>2019.11</ele>
        <time>2019-08-07T08:01:26Z</time>
      </trkpt>
      <trkpt lat="44.09062" lon="6.631">
        <ele>2016.22</ele>
        <time>2019-08-07T08:01:36Z</time>
      </trkpt>
      <trkpt lat="44.09061" lon="6.63127">
        <ele>2007.62</ele>
        <time>2019-08-07T08:01:40Z</time>
      </trkpt>
      <trkpt lat="44.09049" lon="6.63149">
        <ele>2006.66</ele>
        <time>2019-08-07T08:01:50Z</time>
      </trkpt>
      <trkpt lat="44.09028" lon="6.63164">
        <ele>2005.07</ele>
        <time>2019-08-07T08:01:54Z</time>
      </trkpt>
      <trkpt lat="44.09" lon="6.63184">
        <ele>2005.71</ele>
        <time>2019-08-07T08:02:00Z</time>
      </trkpt>
      <trkpt lat="44.08973" lon="6.63196">
        <ele>2005.13</ele>
        <time>2019-08-07T08:02:04Z</time>
      </trkpt>
      <trkpt lat="44.08951" lon="6.63201">
        <ele>2007.59</ele>
        <time>2019-08-07T08:02:10Z</time>
      </trkpt>
      <trkpt lat="44.08934" lon="6.63239">
        <ele>2002.87</ele>
        <time>2019-08-07T08:02:14Z</time>
      </trkpt>
      <trkpt lat="44.08923" lon="6.63271">
        <ele>2001.96</ele>
        <time>2019-08-07T08:02:20Z</time>
      </trkpt>
      <trkpt lat="44.08915" lon="6.633">
        <ele>2001.15</ele>
        <time>2019-08-07T08:02:24Z</time>
      </trkpt>
      <trkpt lat="44.08899" lon="6.63324">
        <ele>1998.29</ele>
        <time>2019-08-07T08:02:28Z</time>
      </trkpt>
      <trkpt lat="44.08882" lon="6.63346">
        <ele>1996.97</ele>
        <time>2019-08-07T08:02:36Z</time>
      </trkpt>
      <trkpt lat="44.08862" lon="6.63364">
        <ele>1997.4</ele>
        <time>2019-08-07T08:02:42Z</time>
      </trkpt>
      <trkpt lat="44.08845" lon="6.6338">
        <ele>1998.89</ele>
        <time>2019-08-07T08:02:50Z</time>
      </trkpt>
      <trkpt lat="44.08841" lon="6.63406">
        <ele>2004.37</ele>
        <time>2019-08-07T08:03:00Z</time>
      </trkpt>
      <trkpt lat="44.08844" lon="6.63436">
        <ele>2010.56</ele>
        <time>2019-08-07T08:03:06Z</time>
      </trkpt>
      <trkpt lat="44.08846" lon="6.63464">
        <ele>2016.64</ele>
        <time>2019-08-07T08:03:10Z</time>
      </trkpt>
      <trkpt lat="44.08854" lon="6.63496">
        <ele>2019.41</ele>
        <time>2019-08-07T08:03:14Z</time>
      </trkpt>
      <trkpt lat="44.0886" lon="6.63522">
        <ele>2019.55</ele>
        <time>2019-08-07T08:03:18Z</time>
      </trkpt>
      <trkpt lat="44.08864" lon="6.6356">
        <ele>2020.32</ele>
        <time>2019-08-07T08:03:28Z</time>
      </trkpt>
      <trkpt lat="44.08866" lon="6.63592">
        <ele>2017.74</ele>
        <time>2019-08-07T08:03:36Z</time>
      </trkpt>
      <trkpt lat="44.08865" lon="6.63619">
        <ele>2019.79</ele>
        <time>2019-08-07T08:03:46Z</time>
      </trkpt>
      <trkpt lat="44.08861" lon="6.63646">
        <ele>2022.31</ele>
        <time>2019-08-07T08:03:54Z</time>
      </trkpt>
      <trkpt lat="44.08851" lon="6.63676">
        <ele>2026.66</ele>
        <time>2019-08-07T08:04:04Z</time>
      </trkpt>
      <trkpt lat="44.08847" lon="6.637">
        <ele>2031.76</ele>
        <time>2019-08-07T08:04:12Z</time>
      </trkpt>
      <trkpt lat="44.0885" lon="6.63737">
        <ele>2027.32</ele>
        <time>2019-08-07T08:04:16Z</time>
      </trkpt>
      <trkpt lat="44.08852" lon="6.6377">
        <ele>2023.85</ele>
        <time>2019-08-07T08:04:20Z</time>
      </trkpt>
      <trkpt lat="44.08849" lon="6.638">
        <ele>2024.09</ele>
        <time>2019-08-07T08:04:26Z</time>
      </trkpt>
      <trkpt lat="44.08835" lon="6.63819">
        <ele>2020.75</ele>
        <time>2019-08-07T08:04:32Z</time>
      </trkpt>
      <trkpt lat="44.08835" lon="6.63845">
        <ele>2023.73</ele>
        <time>2019-08-07T08:04:38Z</time>
      </trkpt>
      <trkpt lat="44.08832" lon="6.63882">
        <ele>2027.14</ele>
        <time>2019-08-07T08:04:46Z</time>
      </trkpt>
      <trkpt lat="44.08831" lon="6.63909">
        <ele>2032.02</ele>
        <time>2019-08-07T08:04:54Z</time>
      </trkpt>
      <trkpt lat="44.08836" lon="6.6396">
        <ele>2044.06</ele>
        <time>2019-08-07T08:05:02Z</time>
      </trkpt>
      <trkpt lat="44.08837" lon="6.64005">
        <ele>2036.86</ele>
        <time>2019-08-07T08:05:06Z</time>
      </trkpt>
      <trkpt lat="44.08833" lon="6.64035">
        <ele>2026.28</ele>
        <time>2019-08-07T08:05:12Z</time>
      </trkpt>
      <trkpt lat="44.08835" lon="6.64064">
        <ele>2016.02</ele>
        <time>2019-08-07T08:05:16Z</time>
      </trkpt>
      <trkpt lat="44.08832" lon="6.64092">
        <ele>2010.72</ele>
        <time>2019-08-07T08:05:24Z</time>
      </trkpt>
      <trkpt lat="44.08828" lon="6.64124">
        <ele>2006.47</ele>
        <time>2019-08-07T08:05:32Z</time>
      </trkpt>
      <trkpt lat="44.08822" lon="6.64148">
        <ele>2000.4</ele>
        <time>2019-08-07T08:05:38Z</time>
      </trkpt>
      <trkpt lat="44.08819" lon="6.64174">
        <ele>1998.89</ele>
        <time>2019-08-07T08:05:44Z</time>
      </trkpt>
      <trkpt lat="44.08814" lon="6.64202">
        <ele>1999.49</ele>
        <time>2019-08-07T08:05:50Z</time>
      </trkpt>
      <trkpt lat="44.08804" lon="6.64232">
        <ele>2001.33</ele>
        <time>2019-08-07T08:05:58Z</time>
      </trkpt>
      <trkpt lat="44.08796" lon="6.64255">
        <ele>2003.49</ele>
        <time>2019-08-07T08:06:04Z</time>
      </trkpt>
      <trkpt lat="44.08787" lon="6.64278">
        <ele>2003.42</ele>
        <time>2019-08-07T08:06:10Z</time>
      </trkpt>
      <trkpt lat="44.08775" lon="6.64301">
        <ele>2004.73</ele>
        <time>2019-08-07T08:06:16Z</time>
      </trkpt>
      <trkpt lat="44.08765" lon="6.6433">
        <ele>2006.81</ele>
        <time>2019-08-07T08:06:24Z</time>
      </trkpt>
      <trkpt lat="44.08749" lon="6.64354">
        <ele>2007.93</ele>
        <time>2019-08-07T08:06:32Z</time>
      </trkpt>
      <trkpt lat="44.08739" lon="6.64375">
        <ele>2009</ele>
        <time>2019-08-07T08:10:06Z</time>
      </trkpt>
      <trkpt lat="44.0875" lon="6.64395">
        <ele>2010.91</ele>
        <time>2019-08-07T08:15:49Z</time>
      </trkpt>
      <trkpt lat="44.08764" lon="6.64413">
        <ele>2012.32</ele>
        <time>2019-08-07T08:15:57Z</time>
      </trkpt>
      <trkpt lat="44.0878" lon="6.6443">
        <ele>2011.83</ele>
        <time>2019-08-07T08:16:05Z</time>
      </trkpt>
      <trkpt lat="44.08794" lon="6.64453">
        <ele>2017.31</ele>
        <time>2019-08-07T08:16:15Z</time>
      </trkpt>
      <trkpt lat="44.08808" lon="6.6447">
        <ele>2018.88</ele>
        <time>2019-08-07T08:16:23Z</time>
      </trkpt>
      <trkpt lat="44.08819" lon="6.64492">
        <ele>2019.29</ele>
        <time>2019-08-07T08:16:31Z</time>
      </trkpt>
      <trkpt lat="44.08829" lon="6.64512">
        <ele>2018.52</ele>
        <time>2019-08-07T08:16:39Z</time>
      </trkpt>
      <trkpt lat="44.08843" lon="6.64535">
        <ele>2018.28</ele>
        <time>2019-08-07T08:16:47Z</time>
      </trkpt>
      <trkpt lat="44.08856" lon="6.64554">
        <ele>2018.4</ele>
        <time>2019-08-07T08:16:55Z</time>
      </trkpt>
      <trkpt lat="44.08869" lon="6.64571">
        <ele>2019.63</ele>
        <time>2019-08-07T08:17:03Z</time>
      </trkpt>
      <trkpt lat="44.08881" lon="6.64591">
        <ele>2020.95</ele>
        <time>2019-08-07T08:17:11Z</time>
      </trkpt>
      <trkpt lat="44.08895" lon="6.64609">
        <ele>2022.31</ele>
        <time>2019-08-07T08:17:19Z</time>
      </trkpt>
      <trkpt lat="44.08908" lon="6.64629">
        <ele>2022.49</ele>
        <time>2019-08-07T08:17:27Z</time>
      </trkpt>
      <trkpt lat="44.0892" lon="6.64655">
        <ele>2021.29</ele>
        <time>2019-08-07T08:17:35Z</time>
      </trkpt>
      <trkpt lat="44.08928" lon="6.64679">
        <ele>2023.43</ele>
        <time>2019-08-07T08:17:43Z</time>
      </trkpt>
      <trkpt lat="44.0894" lon="6.647">
        <ele>2023.27</ele>
        <time>2019-08-07T08:17:51Z</time>
      </trkpt>
      <trkpt lat="44.08951" lon="6.64725">
        <ele>2027.15</ele>
        <time>2019-08-07T08:18:01Z</time>
      </trkpt>
      <trkpt lat="44.0896" lon="6.64747">
        <ele>2029.06</ele>
        <time>2019-08-07T08:18:09Z</time>
      </trkpt>
      <trkpt lat="44.08974" lon="6.64766">
        <ele>2029.35</ele>
        <time>2019-08-07T08:18:17Z</time>
      </trkpt>
      <trkpt lat="44.08984" lon="6.64788">
        <ele>2029.54</ele>
        <time>2019-08-07T08:18:25Z</time>
      </trkpt>
      <trkpt lat="44.08996" lon="6.64808">
        <ele>2029.89</ele>
        <time>2019-08-07T08:18:33Z</time>
      </trkpt>
      <trkpt lat="44.0901" lon="6.6483">
        <ele>2031.24</ele>
        <time>2019-08-07T08:18:43Z</time>
      </trkpt>
      <trkpt lat="44.09029" lon="6.64851">
        <ele>2026.98</ele>
        <time>2019-08-07T08:18:51Z</time>
      </trkpt>
      <trkpt lat="44.09049" lon="6.64867">
        <ele>2023.99</ele>
        <time>2019-08-07T08:18:57Z</time>
      </trkpt>
      <trkpt lat="44.09065" lon="6.6488">
        <ele>2022.34</ele>
        <time>2019-08-07T08:19:03Z</time>
      </trkpt>
      <trkpt lat="44.09087" lon="6.64901">
        <ele>2021.71</ele>
        <time>2019-08-07T08:19:09Z</time>
      </trkpt>
      <trkpt lat="44.09103" lon="6.64918">
        <ele>2020.15</ele>
        <time>2019-08-07T08:19:13Z</time>
      </trkpt>
      <trkpt lat="44.09116" lon="6.6494">
        <ele>2019.41</ele>
        <time>2019-08-07T08:19:17Z</time>
      </trkpt>
      <trkpt lat="44.09129" lon="6.64959">
        <ele>2019.27</ele>
        <time>2019-08-07T08:19:21Z</time>
      </trkpt>
      <trkpt lat="44.09136" lon="6.64983">
        <ele>2018.74</ele>
        <time>2019-08-07T08:19:25Z</time>
      </trkpt>
      <trkpt lat="44.09145" lon="6.65006">
        <ele>2017.81</ele>
        <time>2019-08-07T08:19:29Z</time>
      </trkpt>
      <trkpt lat="44.09154" lon="6.65029">
        <ele>2016.49</ele>
        <time>2019-08-07T08:19:33Z</time>
      </trkpt>
      <trkpt lat="44.09169" lon="6.65055">
        <ele>2013.73</ele>
        <time>2019-08-07T08:19:39Z</time>
      </trkpt>
      <trkpt lat="44.0918" lon="6.6508">
        <ele>2010.9</ele>
        <time>2019-08-07T08:19:45Z</time>
      </trkpt>
      <trkpt lat="44.09174" lon="6.65105">
        <ele>2004.48</ele>
        <time>2019-08-07T08:19:53Z</time>
      </trkpt>
      <trkpt lat="44.09164" lon="6.65138">
        <ele>2000.24</ele>
        <time>2019-08-07T08:19:59Z</time>
      </trkpt>
      <trkpt lat="44.09159" lon="6.65162">
        <ele>2000.96</ele>
        <time>2019-08-07T08:20:03Z</time>
      </trkpt>
      <trkpt lat="44.09152" lon="6.65187">
        <ele>2001.37</ele>
        <time>2019-08-07T08:20:07Z</time>
      </trkpt>
      <trkpt lat="44.0915" lon="6.65221">
        <ele>2001.25</ele>
        <time>2019-08-07T08:20:13Z</time>
      </trkpt>
      <trkpt lat="44.09132" lon="6.65244">
        <ele>2001.45</ele>
        <time>2019-08-07T08:20:21Z</time>
      </trkpt>
      <trkpt lat="44.09125" lon="6.6527">
        <ele>2003.1</ele>
        <time>2019-08-07T08:20:27Z</time>
      </trkpt>
      <trkpt lat="44.09116" lon="6.653">
        <ele>2001.94</ele>
        <time>2019-08-07T08:20:35Z</time>
      </trkpt>
      <trkpt lat="44.09106" lon="6.65329">
        <ele>1997.91</ele>
        <time>2019-08-07T08:20:41Z</time>
      </trkpt>
      <trkpt lat="44.09099" lon="6.65355">
        <ele>1996.24</ele>
        <time>2019-08-07T08:20:47Z</time>
      </trkpt>
      <trkpt lat="44.09093" lon="6.6538">
        <ele>1995</ele>
        <time>2019-08-07T08:20:55Z</time>
      </trkpt>
      <trkpt lat="44.09104" lon="6.65404">
        <ele>1999.15</ele>
        <time>2019-08-07T08:22:51Z</time>
      </trkpt>
      <trkpt lat="44.09122" lon="6.65411">
        <ele>1999.95</ele>
        <time>2019-08-07T08:22:57Z</time>
      </trkpt>
      <trkpt lat="44.09138" lon="6.65421">
        <ele>1995.82</ele>
        <time>2019-08-07T08:23:47Z</time>
      </trkpt>
      <trkpt lat="44.09154" lon="6.65439">
        <ele>2001.27</ele>
        <time>2019-08-07T08:29:06Z</time>
      </trkpt>
      <trkpt lat="44.0917" lon="6.65454">
        <ele>1999.54</ele>
        <time>2019-08-07T08:29:12Z</time>
      </trkpt>
      <trkpt lat="44.09191" lon="6.65467">
        <ele>1999.83</ele>
        <time>2019-08-07T08:29:18Z</time>
      </trkpt>
      <trkpt lat="44.09214" lon="6.6548">
        <ele>2000.07</ele>
        <time>2019-08-07T08:29:24Z</time>
      </trkpt>
      <trkpt lat="44.09235" lon="6.65495">
        <ele>2002.94</ele>
        <time>2019-08-07T08:29:30Z</time>
      </trkpt>
      <trkpt lat="44.09259" lon="6.65505">
        <ele>2004.49</ele>
        <time>2019-08-07T08:29:36Z</time>
      </trkpt>
      <trkpt lat="44.09278" lon="6.65511">
        <ele>2004.9</ele>
        <time>2019-08-07T08:29:40Z</time>
      </trkpt>
      <trkpt lat="44.09298" lon="6.65526">
        <ele>2003.78</ele>
        <time>2019-08-07T08:29:46Z</time>
      </trkpt>
      <trkpt lat="44.09315" lon="6.65539">
        <ele>2002.33</ele>
        <time>2019-08-07T08:29:50Z</time>
      </trkpt>
      <trkpt lat="44.09333" lon="6.65549">
        <ele>2000.58</ele>
        <time>2019-08-07T08:29:54Z</time>
      </trkpt>
      <trkpt lat="44.09352" lon="6.65558">
        <ele>2001.27</ele>
        <time>2019-08-07T08:30:00Z</time>
      </trkpt>
      <trkpt lat="44.09372" lon="6.65565">
        <ele>2001.8</ele>
        <time>2019-08-07T08:30:06Z</time>
      </trkpt>
      <trkpt lat="44.09388" lon="6.65581">
        <ele>2002.08</ele>
        <time>2019-08-07T08:30:12Z</time>
      </trkpt>
      <trkpt lat="44.09405" lon="6.65588">
        <ele>2003.03</ele>
        <time>2019-08-07T08:30:20Z</time>
      </trkpt>
      <trkpt lat="44.09424" lon="6.65596">
        <ele>2002.45</ele>
        <time>2019-08-07T08:30:26Z</time>
      </trkpt>
      <trkpt lat="44.09442" lon="6.65599">
        <ele>2000.36</ele>
        <time>2019-08-07T08:30:36Z</time>
      </trkpt>
      <trkpt lat="44.09464" lon="6.65601">
        <ele>1988.46</ele>
        <time>2019-08-07T08:52:56Z</time>
      </trkpt>
      <trkpt lat="44.09488" lon="6.65613">
        <ele>1989.02</ele>
        <time>2019-08-07T08:53:02Z</time>
      </trkpt>
      <trkpt lat="44.09509" lon="6.65622">
        <ele>1990.01</ele>
        <time>2019-08-07T08:53:08Z</time>
      </trkpt>
      <trkpt lat="44.09528" lon="6.65644">
        <ele>1991.63</ele>
        <time>2019-08-07T08:53:14Z</time>
      </trkpt>
      <trkpt lat="44.09546" lon="6.65671">
        <ele>1991.8</ele>
        <time>2019-08-07T08:53:20Z</time>
      </trkpt>
      <trkpt lat="44.09558" lon="6.65699">
        <ele>1991.61</ele>
        <time>2019-08-07T08:53:26Z</time>
      </trkpt>
      <trkpt lat="44.09567" lon="6.65727">
        <ele>1993.72</ele>
        <time>2019-08-07T08:53:34Z</time>
      </trkpt>
      <trkpt lat="44.09572" lon="6.65757">
        <ele>1990.42</ele>
        <time>2019-08-07T08:53:38Z</time>
      </trkpt>
      <trkpt lat="44.09587" lon="6.6578">
        <ele>1986.42</ele>
        <time>2019-08-07T08:53:44Z</time>
      </trkpt>
      <trkpt lat="44.09597" lon="6.65806">
        <ele>1981.77</ele>
        <time>2019-08-07T08:53:52Z</time>
      </trkpt>
      <trkpt lat="44.09609" lon="6.65832">
        <ele>1976.11</ele>
        <time>2019-08-07T08:53:58Z</time>
      </trkpt>
      <trkpt lat="44.0962" lon="6.65857">
        <ele>1967.51</ele>
        <time>2019-08-07T08:54:06Z</time>
      </trkpt>
      <trkpt lat="44.09634" lon="6.6588">
        <ele>1957.64</ele>
        <time>2019-08-07T08:54:16Z</time>
      </trkpt>
      <trkpt lat="44.09643" lon="6.65902">
        <ele>1956.1</ele>
        <time>2019-08-07T08:54:42Z</time>
      </trkpt>
      <trkpt lat="44.09652" lon="6.65926">
        <ele>1957.4</ele>
        <time>2019-08-07T08:54:54Z</time>
      </trkpt>
      <trkpt lat="44.09664" lon="6.65951">
        <ele>1954.27</ele>
        <time>2019-08-07T08:55:00Z</time>
      </trkpt>
      <trkpt lat="44.09677" lon="6.6597">
        <ele>1948.54</ele>
        <time>2019-08-07T08:55:06Z</time>
      </trkpt>
      <trkpt lat="44.0969" lon="6.65991">
        <ele>1943.7</ele>
        <time>2019-08-07T08:55:12Z</time>
      </trkpt>
      <trkpt lat="44.09702" lon="6.66012">
        <ele>1937.23</ele>
        <time>2019-08-07T08:55:18Z</time>
      </trkpt>
      <trkpt lat="44.09724" lon="6.66032">
        <ele>1930.5</ele>
        <time>2019-08-07T08:55:24Z</time>
      </trkpt>
      <trkpt lat="44.09742" lon="6.66033">
        <ele>1923.91</ele>
        <time>2019-08-07T08:55:44Z</time>
      </trkpt>
      <trkpt lat="44.09757" lon="6.66005">
        <ele>1921.05</ele>
        <time>2019-08-07T08:55:54Z</time>
      </trkpt>
      <trkpt lat="44.09771" lon="6.65987">
        <ele>1919.4</ele>
        <time>2019-08-07T08:55:58Z</time>
      </trkpt>
      <trkpt lat="44.09781" lon="6.65961">
        <ele>1918.21</ele>
        <time>2019-08-07T08:56:02Z</time>
      </trkpt>
      <trkpt lat="44.09791" lon="6.6594">
        <ele>1917.48</ele>
        <time>2019-08-07T08:56:06Z</time>
      </trkpt>
      <trkpt lat="44.09809" lon="6.65932">
        <ele>1918.3</ele>
        <time>2019-08-07T08:56:16Z</time>
      </trkpt>
      <trkpt lat="44.09832" lon="6.65943">
        <ele>1917.84</ele>
        <time>2019-08-07T08:56:24Z</time>
      </trkpt>
      <trkpt lat="44.09852" lon="6.65943">
        <ele>1914.94</ele>
        <time>2019-08-07T08:56:32Z</time>
      </trkpt>
      <trkpt lat="44.09844" lon="6.65916">
        <ele>1912.92</ele>
        <time>2019-08-07T08:56:48Z</time>
      </trkpt>
      <trkpt lat="44.09843" lon="6.6589">
        <ele>1915.51</ele>
        <time>2019-08-07T08:57:00Z</time>
      </trkpt>
      <trkpt lat="44.09846" lon="6.65862">
        <ele>1921.52</ele>
        <time>2019-08-07T08:57:18Z</time>
      </trkpt>
      <trkpt lat="44.09852" lon="6.65836">
        <ele>1926.04</ele>
        <time>2019-08-07T08:57:28Z</time>
      </trkpt>
      <trkpt lat="44.0986" lon="6.65812">
        <ele>1928.41</ele>
        <time>2019-08-07T08:57:36Z</time>
      </trkpt>
      <trkpt lat="44.0987" lon="6.65791">
        <ele>1930.04</ele>
        <time>2019-08-07T08:57:42Z</time>
      </trkpt>
      <trkpt lat="44.09881" lon="6.6577">
        <ele>1934.4</ele>
        <time>2019-08-07T08:57:48Z</time>
      </trkpt>
      <trkpt lat="44.09886" lon="6.65744">
        <ele>1938.81</ele>
        <time>2019-08-07T08:57:54Z</time>
      </trkpt>
      <trkpt lat="44.09897" lon="6.65724">
        <ele>1946.32</ele>
        <time>2019-08-07T08:58:02Z</time>
      </trkpt>
      <trkpt lat="44.09911" lon="6.65702">
        <ele>1952.24</ele>
        <time>2019-08-07T08:58:08Z</time>
      </trkpt>
      <trkpt lat="44.09921" lon="6.65677">
        <ele>1957.65</ele>
        <time>2019-08-07T08:58:14Z</time>
      </trkpt>
      <trkpt lat="44.09926" lon="6.6565">
        <ele>1964.31</ele>
        <time>2019-08-07T08:58:22Z</time>
      </trkpt>
      <trkpt lat="44.09933" lon="6.65624">
        <ele>1968.44</ele>
        <time>2019-08-07T08:58:28Z</time>
      </trkpt>
      <trkpt lat="44.0994" lon="6.65595">
        <ele>1972.5</ele>
        <time>2019-08-07T08:58:36Z</time>
      </trkpt>
      <trkpt lat="44.09949" lon="6.65569">
        <ele>1974.9</ele>
        <time>2019-08-07T08:58:44Z</time>
      </trkpt>
      <trkpt lat="44.09955" lon="6.6554">
        <ele>1978.26</ele>
        <time>2019-08-07T08:58:54Z</time>
      </trkpt>
      <trkpt lat="44.09956" lon="6.65514">
        <ele>1981.44</ele>
        <time>2019-08-07T08:59:06Z</time>
      </trkpt>
      <trkpt lat="44.09964" lon="6.65485">
        <ele>1988.01</ele>
        <time>2019-08-07T08:59:16Z</time>
      </trkpt>
      <trkpt lat="44.0996" lon="6.65435">
        <ele>1988.06</ele>
        <time>2019-08-07T08:59:22Z</time>
      </trkpt>
      <trkpt lat="44.09972" lon="6.65409">
        <ele>1983.62</ele>
        <time>2019-08-07T08:59:28Z</time>
      </trkpt>
      <trkpt lat="44.0999" lon="6.65399">
        <ele>1984.19</ele>
        <time>2019-08-07T08:59:38Z</time>
      </trkpt>
      <trkpt lat="44.10009" lon="6.65398">
        <ele>1985.65</ele>
        <time>2019-08-07T08:59:46Z</time>
      </trkpt>
      <trkpt lat="44.10032" lon="6.65411">
        <ele>1990.81</ele>
        <time>2019-08-07T08:59:56Z</time>
      </trkpt>
      <trkpt lat="44.10049" lon="6.6542">
        <ele>1995.11</ele>
        <time>2019-08-07T09:00:04Z</time>
      </trkpt>
      <trkpt lat="44.10067" lon="6.6543">
        <ele>2005</ele>
        <time>2019-08-07T09:00:16Z</time>
      </trkpt>
      <trkpt lat="44.10084" lon="6.6545">
        <ele>2013.36</ele>
        <time>2019-08-07T09:00:26Z</time>
      </trkpt>
      <trkpt lat="44.10101" lon="6.65459">
        <ele>2020.03</ele>
        <time>2019-08-07T09:00:34Z</time>
      </trkpt>
      <trkpt lat="44.10122" lon="6.65471">
        <ele>2028.52</ele>
        <time>2019-08-07T09:00:46Z</time>
      </trkpt>
      <trkpt lat="44.10137" lon="6.65487">
        <ele>2033.66</ele>
        <time>2019-08-07T09:00:54Z</time>
      </trkpt>
      <trkpt lat="44.10154" lon="6.65503">
        <ele>2041.12</ele>
        <time>2019-08-07T09:01:04Z</time>
      </trkpt>
      <trkpt lat="44.1017" lon="6.65517">
        <ele>2050.38</ele>
        <time>2019-08-07T09:01:14Z</time>
      </trkpt>
      <trkpt lat="44.10188" lon="6.65536">
        <ele>2057.31</ele>
        <time>2019-08-07T09:01:24Z</time>
      </trkpt>
      <trkpt lat="44.10204" lon="6.65548">
        <ele>2062.57</ele>
        <time>2019-08-07T09:01:32Z</time>
      </trkpt>
      <trkpt lat="44.10219" lon="6.65563">
        <ele>2068.36</ele>
        <time>2019-08-07T09:01:40Z</time>
      </trkpt>
      <trkpt lat="44.10233" lon="6.65587">
        <ele>2071.62</ele>
        <time>2019-08-07T09:01:46Z</time>
      </trkpt>
      <trkpt lat="44.1025" lon="6.65602">
        <ele>2081.6</ele>
        <time>2019-08-07T09:01:58Z</time>
      </trkpt>
      <trkpt lat="44.10262" lon="6.65621">
        <ele>2084.61</ele>
        <time>2019-08-07T09:02:04Z</time>
      </trkpt>
      <trkpt lat="44.10276" lon="6.65641">
        <ele>2090.96</ele>
        <time>2019-08-07T09:02:16Z</time>
      </trkpt>
      <trkpt lat="44.10293" lon="6.65661">
        <ele>2095.47</ele>
        <time>2019-08-07T09:02:26Z</time>
      </trkpt>
      <trkpt lat="44.10309" lon="6.65677">
        <ele>2101.54</ele>
        <time>2019-08-07T09:02:38Z</time>
      </trkpt>
      <trkpt lat="44.10322" lon="6.65696">
        <ele>2104.82</ele>
        <time>2019-08-07T09:02:46Z</time>
      </trkpt>
      <trkpt lat="44.10335" lon="6.65718">
        <ele>2108.37</ele>
        <time>2019-08-07T09:02:54Z</time>
      </trkpt>
      <trkpt lat="44.10357" lon="6.65728">
        <ele>2113.46</ele>
        <time>2019-08-07T09:03:04Z</time>
      </trkpt>
      <trkpt lat="44.10372" lon="6.65742">
        <ele>2117.48</ele>
        <time>2019-08-07T09:03:12Z</time>
      </trkpt>
      <trkpt lat="44.10387" lon="6.65757">
        <ele>2122.56</ele>
        <time>2019-08-07T09:03:24Z</time>
      </trkpt>
      <trkpt lat="44.10401" lon="6.6579">
        <ele>2112.73</ele>
        <time>2019-08-07T09:03:28Z</time>
      </trkpt>
      <trkpt lat="44.10414" lon="6.65816">
        <ele>2101.16</ele>
        <time>2019-08-07T09:03:32Z</time>
      </trkpt>
      <trkpt lat="44.10428" lon="6.65833">
        <ele>2080.76</ele>
        <time>2019-08-07T09:03:58Z</time>
      </trkpt>
      <trkpt lat="44.10442" lon="6.6585">
        <ele>2069.95</ele>
        <time>2019-08-07T09:04:24Z</time>
      </trkpt>
      <trkpt lat="44.10459" lon="6.65864">
        <ele>2068.62</ele>
        <time>2019-08-07T09:04:58Z</time>
      </trkpt>
      <trkpt lat="44.10473" lon="6.65887">
        <ele>2068.96</ele>
        <time>2019-08-07T09:05:10Z</time>
      </trkpt>
      <trkpt lat="44.10486" lon="6.65911">
        <ele>2069.01</ele>
        <time>2019-08-07T09:05:20Z</time>
      </trkpt>
      <trkpt lat="44.10497" lon="6.65939">
        <ele>2068.76</ele>
        <time>2019-08-07T09:05:30Z</time>
      </trkpt>
      <trkpt lat="44.10503" lon="6.65966">
        <ele>2065.33</ele>
        <time>2019-08-07T09:05:36Z</time>
      </trkpt>
      <trkpt lat="44.10509" lon="6.65992">
        <ele>2060.71</ele>
        <time>2019-08-07T09:05:48Z</time>
      </trkpt>
      <trkpt lat="44.10514" lon="6.66016">
        <ele>2059.67</ele>
        <time>2019-08-07T09:06:08Z</time>
      </trkpt>
      <trkpt lat="44.10517" lon="6.66045">
        <ele>2059.73</ele>
        <time>2019-08-07T09:06:38Z</time>
      </trkpt>
      <trkpt lat="44.10516" lon="6.66072">
        <ele>2059.72</ele>
        <time>2019-08-07T09:06:46Z</time>
      </trkpt>
      <trkpt lat="44.10518" lon="6.661">
        <ele>2060.22</ele>
        <time>2019-08-07T09:06:56Z</time>
      </trkpt>
      <trkpt lat="44.10527" lon="6.66123">
        <ele>2062.61</ele>
        <time>2019-08-07T09:07:10Z</time>
      </trkpt>
      <trkpt lat="44.1054" lon="6.66145">
        <ele>2069.05</ele>
        <time>2019-08-07T09:07:24Z</time>
      </trkpt>
      <trkpt lat="44.10554" lon="6.66167">
        <ele>2076.47</ele>
        <time>2019-08-07T09:07:36Z</time>
      </trkpt>
      <trkpt lat="44.1056" lon="6.66191">
        <ele>2082.63</ele>
        <time>2019-08-07T09:07:48Z</time>
      </trkpt>
      <trkpt lat="44.10564" lon="6.66215">
        <ele>2086.28</ele>
        <time>2019-08-07T09:08:28Z</time>
      </trkpt>
      <trkpt lat="44.10577" lon="6.66233">
        <ele>2090.11</ele>
        <time>2019-08-07T09:11:16Z</time>
      </trkpt>
      <trkpt lat="44.1059" lon="6.66252">
        <ele>2093.22</ele>
        <time>2019-08-07T09:11:30Z</time>
      </trkpt>
      <trkpt lat="44.10603" lon="6.66274">
        <ele>2095.92</ele>
        <time>2019-08-07T09:11:40Z</time>
      </trkpt>
      <trkpt lat="44.10617" lon="6.66295">
        <ele>2100.71</ele>
        <time>2019-08-07T09:11:50Z</time>
      </trkpt>
      <trkpt lat="44.10634" lon="6.66319">
        <ele>2106.98</ele>
        <time>2019-08-07T09:12:00Z</time>
      </trkpt>
      <trkpt lat="44.10647" lon="6.66337">
        <ele>2118.19</ele>
        <time>2019-08-07T09:12:20Z</time>
      </trkpt>
      <trkpt lat="44.10631" lon="6.66322">
        <ele>2133.95</ele>
        <time>2019-08-07T09:12:46Z</time>
      </trkpt>
      <trkpt lat="44.10615" lon="6.66309">
        <ele>2140.72</ele>
        <time>2019-08-07T09:12:54Z</time>
      </trkpt>
      <trkpt lat="44.10597" lon="6.66299">
        <ele>2148.5</ele>
        <time>2019-08-07T09:13:06Z</time>
      </trkpt>
      <trkpt lat="44.10577" lon="6.66286">
        <ele>2154.4</ele>
        <time>2019-08-07T09:13:16Z</time>
      </trkpt>
      <trkpt lat="44.10559" lon="6.66286">
        <ele>2161.17</ele>
        <time>2019-08-07T09:13:48Z</time>
      </trkpt>
      <trkpt lat="44.10545" lon="6.66266">
        <ele>2159.04</ele>
        <time>2019-08-07T09:14:00Z</time>
      </trkpt>
      <trkpt lat="44.10532" lon="6.66248">
        <ele>2159.47</ele>
        <time>2019-08-07T09:14:12Z</time>
      </trkpt>
      <trkpt lat="44.10511" lon="6.66236">
        <ele>2161.37</ele>
        <time>2019-08-07T09:14:24Z</time>
      </trkpt>
      <trkpt lat="44.10491" lon="6.66229">
        <ele>2158.87</ele>
        <time>2019-08-07T09:14:30Z</time>
      </trkpt>
      <trkpt lat="44.10476" lon="6.66213">
        <ele>2157</ele>
        <time>2019-08-07T09:14:46Z</time>
      </trkpt>
      <trkpt lat="44.10455" lon="6.66198">
        <ele>2155.22</ele>
        <time>2019-08-07T09:14:56Z</time>
      </trkpt>
      <trkpt lat="44.10438" lon="6.66185">
        <ele>2156.27</ele>
        <time>2019-08-07T09:15:06Z</time>
      </trkpt>
      <trkpt lat="44.10415" lon="6.66177">
        <ele>2154.99</ele>
        <time>2019-08-07T09:15:24Z</time>
      </trkpt>
      <trkpt lat="44.10392" lon="6.66181">
        <ele>2158.44</ele>
        <time>2019-08-07T09:15:44Z</time>
      </trkpt>
      <trkpt lat="44.10369" lon="6.66184">
        <ele>2158.69</ele>
        <time>2019-08-07T09:15:54Z</time>
      </trkpt>
      <trkpt lat="44.10348" lon="6.66189">
        <ele>2159.04</ele>
        <time>2019-08-07T09:16:04Z</time>
      </trkpt>
      <trkpt lat="44.10329" lon="6.66198">
        <ele>2163.18</ele>
        <time>2019-08-07T09:16:14Z</time>
      </trkpt>
      <trkpt lat="44.10315" lon="6.66222">
        <ele>2164.28</ele>
        <time>2019-08-07T09:16:24Z</time>
      </trkpt>
      <trkpt lat="44.10316" lon="6.66251">
        <ele>2169.73</ele>
        <time>2019-08-07T09:16:36Z</time>
      </trkpt>
      <trkpt lat="44.10325" lon="6.66277">
        <ele>2176.82</ele>
        <time>2019-08-07T09:16:46Z</time>
      </trkpt>
      <trkpt lat="44.10331" lon="6.66304">
        <ele>2182.98</ele>
        <time>2019-08-07T09:16:54Z</time>
      </trkpt>
      <trkpt lat="44.10338" lon="6.66327">
        <ele>2188.98</ele>
        <time>2019-08-07T09:17:02Z</time>
      </trkpt>
      <trkpt lat="44.10349" lon="6.6635">
        <ele>2196.32</ele>
        <time>2019-08-07T09:19:42Z</time>
      </trkpt>
      <trkpt lat="44.10358" lon="6.66373">
        <ele>2198.55</ele>
        <time>2019-08-07T09:19:56Z</time>
      </trkpt>
      <trkpt lat="44.10366" lon="6.66397">
        <ele>2201.48</ele>
        <time>2019-08-07T09:20:06Z</time>
      </trkpt>
      <trkpt lat="44.10371" lon="6.66426">
        <ele>2204.56</ele>
        <time>2019-08-07T09:20:16Z</time>
      </trkpt>
      <trkpt lat="44.1038" lon="6.6645">
        <ele>2210.35</ele>
        <time>2019-08-07T09:20:26Z</time>
      </trkpt>
      <trkpt lat="44.10399" lon="6.66444">
        <ele>2215.98</ele>
        <time>2019-08-07T09:20:46Z</time>
      </trkpt>
      <trkpt lat="44.10417" lon="6.6646">
        <ele>2216.3</ele>
        <time>2019-08-07T09:20:58Z</time>
      </trkpt>
      <trkpt lat="44.10436" lon="6.66467">
        <ele>2222.26</ele>
        <time>2019-08-07T09:21:12Z</time>
      </trkpt>
      <trkpt lat="44.10454" lon="6.66475">
        <ele>2227.73</ele>
        <time>2019-08-07T09:21:32Z</time>
      </trkpt>
      <trkpt lat="44.10474" lon="6.66489">
        <ele>2229.16</ele>
        <time>2019-08-07T09:21:58Z</time>
      </trkpt>
      <trkpt lat="44.10492" lon="6.66503">
        <ele>2227.64</ele>
        <time>2019-08-07T09:22:08Z</time>
      </trkpt>
      <trkpt lat="44.10507" lon="6.66519">
        <ele>2231.31</ele>
        <time>2019-08-07T09:24:36Z</time>
      </trkpt>
      <trkpt lat="44.10504" lon="6.66545">
        <ele>2230.66</ele>
        <time>2019-08-07T09:24:44Z</time>
      </trkpt>
      <trkpt lat="44.10496" lon="6.66572">
        <ele>2231.69</ele>
        <time>2019-08-07T09:24:54Z</time>
      </trkpt>
      <trkpt lat="44.10488" lon="6.66599">
        <ele>2233.44</ele>
        <time>2019-08-07T09:25:02Z</time>
      </trkpt>
      <trkpt lat="44.10486" lon="6.66625">
        <ele>2230.61</ele>
        <time>2019-08-07T09:25:10Z</time>
      </trkpt>
      <trkpt lat="44.10483" lon="6.66653">
        <ele>2232.26</ele>
        <time>2019-08-07T09:25:18Z</time>
      </trkpt>
      <trkpt lat="44.10489" lon="6.66682">
        <ele>2232.6</ele>
        <time>2019-08-07T09:25:26Z</time>
      </trkpt>
      <trkpt lat="44.10501" lon="6.66705">
        <ele>2235.84</ele>
        <time>2019-08-07T09:26:31Z</time>
      </trkpt>
      <trkpt lat="44.1051" lon="6.6673">
        <ele>2236.06</ele>
        <time>2019-08-07T09:26:37Z</time>
      </trkpt>
      <trkpt lat="44.1052" lon="6.66753">
        <ele>2239.98</ele>
        <time>2019-08-07T09:26:43Z</time>
      </trkpt>
      <trkpt lat="44.10535" lon="6.66771">
        <ele>2249.12</ele>
        <time>2019-08-07T09:26:53Z</time>
      </trkpt>
      <trkpt lat="44.10544" lon="6.66796">
        <ele>2253.16</ele>
        <time>2019-08-07T09:27:01Z</time>
      </trkpt>
      <trkpt lat="44.10562" lon="6.66809">
        <ele>2256.81</ele>
        <time>2019-08-07T09:27:53Z</time>
      </trkpt>
      <trkpt lat="44.10576" lon="6.6683">
        <ele>2256.93</ele>
        <time>2019-08-07T09:28:01Z</time>
      </trkpt>
      <trkpt lat="44.10592" lon="6.66845">
        <ele>2255.58</ele>
        <time>2019-08-07T09:28:11Z</time>
      </trkpt>
      <trkpt lat="44.106" lon="6.66868">
        <ele>2259.55</ele>
        <time>2019-08-07T09:28:23Z</time>
      </trkpt>
      <trkpt lat="44.10594" lon="6.66893">
        <ele>2264.88</ele>
        <time>2019-08-07T09:28:59Z</time>
      </trkpt>
      <trkpt lat="44.10597" lon="6.66919">
        <ele>2264.25</ele>
        <time>2019-08-07T09:29:13Z</time>
      </trkpt>
      <trkpt lat="44.10598" lon="6.66945">
        <ele>2266.4</ele>
        <time>2019-08-07T09:29:55Z</time>
      </trkpt>
      <trkpt lat="44.10606" lon="6.66971">
        <ele>2266.69</ele>
        <time>2019-08-07T09:30:23Z</time>
      </trkpt>
      <trkpt lat="44.10609" lon="6.66997">
        <ele>2266.69</ele>
        <time>2019-08-07T09:30:35Z</time>
      </trkpt>
      <trkpt lat="44.10618" lon="6.67019">
        <ele>2266.97</ele>
        <time>2019-08-07T09:30:47Z</time>
      </trkpt>
      <trkpt lat="44.10627" lon="6.67041">
        <ele>2275.28</ele>
        <time>2019-08-07T09:31:13Z</time>
      </trkpt>
      <trkpt lat="44.10642" lon="6.67057">
        <ele>2277.66</ele>
        <time>2019-08-07T09:31:43Z</time>
      </trkpt>
      <trkpt lat="44.10661" lon="6.67071">
        <ele>2279.32</ele>
        <time>2019-08-07T09:32:39Z</time>
      </trkpt>
      <trkpt lat="44.10671" lon="6.67092">
        <ele>2285.65</ele>
        <time>2019-08-07T09:33:05Z</time>
      </trkpt>
      <trkpt lat="44.10686" lon="6.67107">
        <ele>2291.19</ele>
        <time>2019-08-07T09:33:41Z</time>
      </trkpt>
      <trkpt lat="44.10698" lon="6.67126">
        <ele>2294.44</ele>
        <time>2019-08-07T09:34:15Z</time>
      </trkpt>
      <trkpt lat="44.10711" lon="6.67147">
        <ele>2295.94</ele>
        <time>2019-08-07T09:35:19Z</time>
      </trkpt>
      <trkpt lat="44.10723" lon="6.67167">
        <ele>2302.65</ele>
        <time>2019-08-07T09:36:01Z</time>
      </trkpt>
      <trkpt lat="44.10731" lon="6.67191">
        <ele>2304.1</ele>
        <time>2019-08-07T09:36:23Z</time>
      </trkpt>
      <trkpt lat="44.10738" lon="6.67216">
        <ele>2309.83</ele>
        <time>2019-08-07T09:37:15Z</time>
      </trkpt>
      <trkpt lat="44.10746" lon="6.67238">
        <ele>2314.79</ele>
        <time>2019-08-07T09:37:37Z</time>
      </trkpt>
      <trkpt lat="44.10752" lon="6.67263">
        <ele>2322.81</ele>
        <time>2019-08-07T09:38:07Z</time>
      </trkpt>
      <trkpt lat="44.10756" lon="6.67288">
        <ele>2328.24</ele>
        <time>2019-08-07T09:38:47Z</time>
      </trkpt>
      <trkpt lat="44.10765" lon="6.6731">
        <ele>2330.58</ele>
        <time>2019-08-07T09:39:21Z</time>
      </trkpt>
      <trkpt lat="44.10775" lon="6.67335">
        <ele>2334</ele>
        <time>2019-08-07T09:39:49Z</time>
      </trkpt>
      <trkpt lat="44.10787" lon="6.67356">
        <ele>2333.51</ele>
        <time>2019-08-07T09:40:19Z</time>
      </trkpt>
      <trkpt lat="44.10796" lon="6.67378">
        <ele>2335.36</ele>
        <time>2019-08-07T09:40:33Z</time>
      </trkpt>
      <trkpt lat="44.10805" lon="6.67401">
        <ele>2342.93</ele>
        <time>2019-08-07T09:40:53Z</time>
      </trkpt>
      <trkpt lat="44.10811" lon="6.67427">
        <ele>2353.27</ele>
        <time>2019-08-07T09:41:35Z</time>
      </trkpt>
      <trkpt lat="44.1082" lon="6.6745">
        <ele>2355.67</ele>
        <time>2019-08-07T09:42:11Z</time>
      </trkpt>
      <trkpt lat="44.10829" lon="6.67471">
        <ele>2357.72</ele>
        <time>2019-08-07T09:42:51Z</time>
      </trkpt>
      <trkpt lat="44.10834" lon="6.67496">
        <ele>2359.68</ele>
        <time>2019-08-07T09:43:33Z</time>
      </trkpt>
      <trkpt lat="44.1084" lon="6.6752">
        <ele>2363.19</ele>
        <time>2019-08-07T09:44:19Z</time>
      </trkpt>
      <trkpt lat="44.10842" lon="6.67546">
        <ele>2369.6</ele>
        <time>2019-08-07T09:45:15Z</time>
      </trkpt>
      <trkpt lat="44.10848" lon="6.67571">
        <ele>2375.28</ele>
        <time>2019-08-07T09:45:49Z</time>
      </trkpt>
      <trkpt lat="44.10852" lon="6.67598">
        <ele>2376.24</ele>
        <time>2019-08-07T09:46:07Z</time>
      </trkpt>
      <trkpt lat="44.10849" lon="6.67624">
        <ele>2380.24</ele>
        <time>2019-08-07T09:46:37Z</time>
      </trkpt>
      <trkpt lat="44.10851" lon="6.6765">
        <ele>2382.53</ele>
        <time>2019-08-07T09:47:07Z</time>
      </trkpt>
      <trkpt lat="44.10856" lon="6.67676">
        <ele>2386.45</ele>
        <time>2019-08-07T09:47:55Z</time>
      </trkpt>
      <trkpt lat="44.10852" lon="6.67703">
        <ele>2388.69</ele>
        <time>2019-08-07T09:48:27Z</time>
      </trkpt>
      <trkpt lat="44.10853" lon="6.6773">
        <ele>2389.82</ele>
        <time>2019-08-07T09:49:03Z</time>
      </trkpt>
      <trkpt lat="44.10848" lon="6.67756">
        <ele>2394.03</ele>
        <time>2019-08-07T09:49:45Z</time>
      </trkpt>
      <trkpt lat="44.10835" lon="6.67778">
        <ele>2397.46</ele>
        <time>2019-08-07T09:50:13Z</time>
      </trkpt>
      <trkpt lat="44.10826" lon="6.67801">
        <ele>2400.39</ele>
        <time>2019-08-07T09:50:25Z</time>
      </trkpt>
      <trkpt lat="44.1081" lon="6.67816">
        <ele>2409.27</ele>
        <time>2019-08-07T09:51:05Z</time>
      </trkpt>
      <trkpt lat="44.1079" lon="6.67823">
        <ele>2414.4</ele>
        <time>2019-08-07T09:51:33Z</time>
      </trkpt>
      <trkpt lat="44.10774" lon="6.67838">
        <ele>2414.57</ele>
        <time>2019-08-07T09:51:49Z</time>
      </trkpt>
      <trkpt lat="44.10763" lon="6.67858">
        <ele>2413.87</ele>
        <time>2019-08-07T09:52:05Z</time>
      </trkpt>
      <trkpt lat="44.10786" lon="6.6787">
        <ele>2421.53</ele>
        <time>2019-08-07T09:57:23Z</time>
      </trkpt>
      <trkpt lat="44.10802" lon="6.6788">
        <ele>2420.03</ele>
        <time>2019-08-07T09:57:27Z</time>
      </trkpt>
      <trkpt lat="44.10819" lon="6.67892">
        <ele>2417.51</ele>
        <time>2019-08-07T09:57:31Z</time>
      </trkpt>
      <trkpt lat="44.10841" lon="6.67905">
        <ele>2411.91</ele>
        <time>2019-08-07T09:57:37Z</time>
      </trkpt>
      <trkpt lat="44.10858" lon="6.67919">
        <ele>2409.06</ele>
        <time>2019-08-07T09:57:41Z</time>
      </trkpt>
      <trkpt lat="44.10874" lon="6.67937">
        <ele>2405.13</ele>
        <time>2019-08-07T09:57:49Z</time>
      </trkpt>
      <trkpt lat="44.10883" lon="6.67959">
        <ele>2398.45</ele>
        <time>2019-08-07T09:58:09Z</time>
      </trkpt>
      <trkpt lat="44.10866" lon="6.67964">
        <ele>2395.13</ele>
        <time>2019-08-07T09:58:39Z</time>
      </trkpt>
      <trkpt lat="44.10853" lon="6.67982">
        <ele>2384.42</ele>
        <time>2019-08-07T09:59:03Z</time>
      </trkpt>
      <trkpt lat="44.1087" lon="6.68008">
        <ele>2379.33</ele>
        <time>2019-08-07T09:59:15Z</time>
      </trkpt>
      <trkpt lat="44.10886" lon="6.68032">
        <ele>2373.73</ele>
        <time>2019-08-07T09:59:21Z</time>
      </trkpt>
      <trkpt lat="44.10866" lon="6.68043">
        <ele>2357.88</ele>
        <time>2019-08-07T09:59:33Z</time>
      </trkpt>
      <trkpt lat="44.10845" lon="6.68061">
        <ele>2353.7</ele>
        <time>2019-08-07T09:59:39Z</time>
      </trkpt>
      <trkpt lat="44.10823" lon="6.68048">
        <ele>2348.32</ele>
        <time>2019-08-07T09:59:45Z</time>
      </trkpt>
      <trkpt lat="44.10804" lon="6.68045">
        <ele>2344.54</ele>
        <time>2019-08-07T09:59:49Z</time>
      </trkpt>
      <trkpt lat="44.10785" lon="6.68038">
        <ele>2339.96</ele>
        <time>2019-08-07T09:59:55Z</time>
      </trkpt>
      <trkpt lat="44.1077" lon="6.68059">
        <ele>2338.78</ele>
        <time>2019-08-07T10:00:03Z</time>
      </trkpt>
      <trkpt lat="44.1076" lon="6.68093">
        <ele>2333.58</ele>
        <time>2019-08-07T10:00:09Z</time>
      </trkpt>
      <trkpt lat="44.1075" lon="6.6812">
        <ele>2329.48</ele>
        <time>2019-08-07T10:00:15Z</time>
      </trkpt>
      <trkpt lat="44.10736" lon="6.68139">
        <ele>2327.15</ele>
        <time>2019-08-07T10:00:23Z</time>
      </trkpt>
      <trkpt lat="44.10721" lon="6.68154">
        <ele>2327.53</ele>
        <time>2019-08-07T10:00:27Z</time>
      </trkpt>
      <trkpt lat="44.10703" lon="6.68177">
        <ele>2331.74</ele>
        <time>2019-08-07T10:00:31Z</time>
      </trkpt>
      <trkpt lat="44.10685" lon="6.68204">
        <ele>2336.53</ele>
        <time>2019-08-07T10:00:35Z</time>
      </trkpt>
      <trkpt lat="44.1067" lon="6.68229">
        <ele>2337.49</ele>
        <time>2019-08-07T10:00:41Z</time>
      </trkpt>
      <trkpt lat="44.10653" lon="6.68247">
        <ele>2336.81</ele>
        <time>2019-08-07T10:00:45Z</time>
      </trkpt>
      <trkpt lat="44.1064" lon="6.68269">
        <ele>2335.89</ele>
        <time>2019-08-07T10:00:51Z</time>
      </trkpt>
      <trkpt lat="44.10618" lon="6.68269">
        <ele>2333.88</ele>
        <time>2019-08-07T10:01:17Z</time>
      </trkpt>
      <trkpt lat="44.10597" lon="6.68264">
        <ele>2332.61</ele>
        <time>2019-08-07T10:01:25Z</time>
      </trkpt>
      <trkpt lat="44.10578" lon="6.68263">
        <ele>2331.55</ele>
        <time>2019-08-07T10:01:35Z</time>
      </trkpt>
      <trkpt lat="44.10593" lon="6.68276">
        <ele>2329.6</ele>
        <time>2019-08-07T10:01:57Z</time>
      </trkpt>
      <trkpt lat="44.10607" lon="6.68296">
        <ele>2329.4</ele>
        <time>2019-08-07T10:02:23Z</time>
      </trkpt>
      <trkpt lat="44.10619" lon="6.68329">
        <ele>2328.45</ele>
        <time>2019-08-07T10:02:41Z</time>
      </trkpt>
      <trkpt lat="44.10624" lon="6.68362">
        <ele>2327.4</ele>
        <time>2019-08-07T10:02:47Z</time>
      </trkpt>
      <trkpt lat="44.1063" lon="6.68399">
        <ele>2325.55</ele>
        <time>2019-08-07T10:02:53Z</time>
      </trkpt>
      <trkpt lat="44.10639" lon="6.68427">
        <ele>2322.13</ele>
        <time>2019-08-07T10:02:59Z</time>
      </trkpt>
      <trkpt lat="44.10647" lon="6.68457">
        <ele>2319.96</ele>
        <time>2019-08-07T10:03:43Z</time>
      </trkpt>
      <trkpt lat="44.10655" lon="6.6848">
        <ele>2318.43</ele>
        <time>2019-08-07T10:03:49Z</time>
      </trkpt>
      <trkpt lat="44.10661" lon="6.68506">
        <ele>2315.25</ele>
        <time>2019-08-07T10:03:55Z</time>
      </trkpt>
      <trkpt lat="44.10662" lon="6.68535">
        <ele>2310.54</ele>
        <time>2019-08-07T10:04:01Z</time>
      </trkpt>
      <trkpt lat="44.10675" lon="6.68557">
        <ele>2309.56</ele>
        <time>2019-08-07T10:04:09Z</time>
      </trkpt>
      <trkpt lat="44.10689" lon="6.68575">
        <ele>2309.84</ele>
        <time>2019-08-07T10:04:15Z</time>
      </trkpt>
      <trkpt lat="44.10701" lon="6.68595">
        <ele>2307.43</ele>
        <time>2019-08-07T10:04:21Z</time>
      </trkpt>
      <trkpt lat="44.10694" lon="6.68618">
        <ele>2304.21</ele>
        <time>2019-08-07T10:04:27Z</time>
      </trkpt>
      <trkpt lat="44.10678" lon="6.68635">
        <ele>2298.7</ele>
        <time>2019-08-07T10:04:33Z</time>
      </trkpt>
      <trkpt lat="44.10655" lon="6.68644">
        <ele>2295.04</ele>
        <time>2019-08-07T10:04:39Z</time>
      </trkpt>
      <trkpt lat="44.10634" lon="6.68666">
        <ele>2289.19</ele>
        <time>2019-08-07T10:04:45Z</time>
      </trkpt>
      <trkpt lat="44.10623" lon="6.68688">
        <ele>2286.91</ele>
        <time>2019-08-07T10:04:49Z</time>
      </trkpt>
      <trkpt lat="44.10639" lon="6.68706">
        <ele>2288.45</ele>
        <time>2019-08-07T10:04:59Z</time>
      </trkpt>
      <trkpt lat="44.10651" lon="6.68738">
        <ele>2289.08</ele>
        <time>2019-08-07T10:05:05Z</time>
      </trkpt>
      <trkpt lat="44.10668" lon="6.68756">
        <ele>2288.45</ele>
        <time>2019-08-07T10:05:09Z</time>
      </trkpt>
      <trkpt lat="44.10687" lon="6.68783">
        <ele>2288.31</ele>
        <time>2019-08-07T10:05:15Z</time>
      </trkpt>
      <trkpt lat="44.10693" lon="6.68814">
        <ele>2289.42</ele>
        <time>2019-08-07T10:05:21Z</time>
      </trkpt>
      <trkpt lat="44.10696" lon="6.68845">
        <ele>2289.67</ele>
        <time>2019-08-07T10:05:27Z</time>
      </trkpt>
      <trkpt lat="44.10694" lon="6.68871">
        <ele>2288.63</ele>
        <time>2019-08-07T10:05:31Z</time>
      </trkpt>
      <trkpt lat="44.10696" lon="6.68897">
        <ele>2286.03</ele>
        <time>2019-08-07T10:05:59Z</time>
      </trkpt>
      <trkpt lat="44.10706" lon="6.68925">
        <ele>2282.5</ele>
        <time>2019-08-07T10:06:11Z</time>
      </trkpt>
      <trkpt lat="44.10708" lon="6.68953">
        <ele>2279.18</ele>
        <time>2019-08-07T10:06:19Z</time>
      </trkpt>
      <trkpt lat="44.10691" lon="6.68963">
        <ele>2270.25</ele>
        <time>2019-08-07T10:06:29Z</time>
      </trkpt>
      <trkpt lat="44.10679" lon="6.68992">
        <ele>2269.39</ele>
        <time>2019-08-07T10:06:37Z</time>
      </trkpt>
      <trkpt lat="44.10679" lon="6.69023">
        <ele>2265.12</ele>
        <time>2019-08-07T10:06:45Z</time>
      </trkpt>
      <trkpt lat="44.10679" lon="6.69054">
        <ele>2264.94</ele>
        <time>2019-08-07T10:06:51Z</time>
      </trkpt>
      <trkpt lat="44.10672" lon="6.69085">
        <ele>2264.08</ele>
        <time>2019-08-07T10:06:55Z</time>
      </trkpt>
      <trkpt lat="44.10672" lon="6.6911">
        <ele>2262.7</ele>
        <time>2019-08-07T10:06:59Z</time>
      </trkpt>
      <trkpt lat="44.10672" lon="6.69141">
        <ele>2261.81</ele>
        <time>2019-08-07T10:07:07Z</time>
      </trkpt>
      <trkpt lat="44.1067" lon="6.69167">
        <ele>2261.56</ele>
        <time>2019-08-07T10:07:15Z</time>
      </trkpt>
      <trkpt lat="44.10663" lon="6.6919">
        <ele>2264.64</ele>
        <time>2019-08-07T10:07:45Z</time>
      </trkpt>
      <trkpt lat="44.10666" lon="6.69218">
        <ele>2263.53</ele>
        <time>2019-08-07T10:08:03Z</time>
      </trkpt>
      <trkpt lat="44.10669" lon="6.69246">
        <ele>2261.47</ele>
        <time>2019-08-07T10:08:17Z</time>
      </trkpt>
      <trkpt lat="44.10678" lon="6.69274">
        <ele>2259.69</ele>
        <time>2019-08-07T10:08:23Z</time>
      </trkpt>
      <trkpt lat="44.10677" lon="6.69305">
        <ele>2259.75</ele>
        <time>2019-08-07T10:08:29Z</time>
      </trkpt>
      <trkpt lat="44.10667" lon="6.6934">
        <ele>2261.06</ele>
        <time>2019-08-07T10:08:35Z</time>
      </trkpt>
      <trkpt lat="44.10654" lon="6.69366">
        <ele>2259.47</ele>
        <time>2019-08-07T10:08:41Z</time>
      </trkpt>
      <trkpt lat="44.1066" lon="6.69403">
        <ele>2260.52</ele>
        <time>2019-08-07T10:08:47Z</time>
      </trkpt>
      <trkpt lat="44.10669" lon="6.69438">
        <ele>2258.82</ele>
        <time>2019-08-07T10:08:53Z</time>
      </trkpt>
      <trkpt lat="44.10675" lon="6.69472">
        <ele>2257</ele>
        <time>2019-08-07T10:08:59Z</time>
      </trkpt>
      <trkpt lat="44.1069" lon="6.69501">
        <ele>2255.98</ele>
        <time>2019-08-07T10:09:05Z</time>
      </trkpt>
      <trkpt lat="44.10709" lon="6.69522">
        <ele>2253.92</ele>
        <time>2019-08-07T10:09:11Z</time>
      </trkpt>
      <trkpt lat="44.10729" lon="6.6954">
        <ele>2251.56</ele>
        <time>2019-08-07T10:09:17Z</time>
      </trkpt>
      <trkpt lat="44.10743" lon="6.6956">
        <ele>2249.28</ele>
        <time>2019-08-07T10:09:23Z</time>
      </trkpt>
      <trkpt lat="44.1075" lon="6.69586">
        <ele>2249.42</ele>
        <time>2019-08-07T10:09:27Z</time>
      </trkpt>
      <trkpt lat="44.1077" lon="6.69603">
        <ele>2249.24</ele>
        <time>2019-08-07T10:09:33Z</time>
      </trkpt>
      <trkpt lat="44.10792" lon="6.69589">
        <ele>2249.13</ele>
        <time>2019-08-07T10:09:39Z</time>
      </trkpt>
      <trkpt lat="44.10812" lon="6.69604">
        <ele>2246.29</ele>
        <time>2019-08-07T10:09:45Z</time>
      </trkpt>
      <trkpt lat="44.1083" lon="6.69623">
        <ele>2245.36</ele>
        <time>2019-08-07T10:09:51Z</time>
      </trkpt>
      <trkpt lat="44.10853" lon="6.69639">
        <ele>2243.8</ele>
        <time>2019-08-07T10:09:57Z</time>
      </trkpt>
      <trkpt lat="44.10867" lon="6.69656">
        <ele>2244.85</ele>
        <time>2019-08-07T10:10:03Z</time>
      </trkpt>
      <trkpt lat="44.10853" lon="6.6968">
        <ele>2248.87</ele>
        <time>2019-08-07T10:10:11Z</time>
      </trkpt>
      <trkpt lat="44.10841" lon="6.69706">
        <ele>2253.72</ele>
        <time>2019-08-07T10:10:21Z</time>
      </trkpt>
      <trkpt lat="44.10833" lon="6.69733">
        <ele>2256.51</ele>
        <time>2019-08-07T10:10:31Z</time>
      </trkpt>
      <trkpt lat="44.10829" lon="6.69759">
        <ele>2261.8</ele>
        <time>2019-08-07T10:10:51Z</time>
      </trkpt>
      <trkpt lat="44.10812" lon="6.69778">
        <ele>2266.85</ele>
        <time>2019-08-07T10:11:23Z</time>
      </trkpt>
      <trkpt lat="44.10793" lon="6.69789">
        <ele>2267.74</ele>
        <time>2019-08-07T10:11:31Z</time>
      </trkpt>
      <trkpt lat="44.10771" lon="6.69802">
        <ele>2266.78</ele>
        <time>2019-08-07T10:11:39Z</time>
      </trkpt>
      <trkpt lat="44.10753" lon="6.69815">
        <ele>2266</ele>
        <time>2019-08-07T10:11:49Z</time>
      </trkpt>
      <trkpt lat="44.10734" lon="6.69817">
        <ele>2267.82</ele>
        <time>2019-08-07T10:11:57Z</time>
      </trkpt>
      <trkpt lat="44.10714" lon="6.69829">
        <ele>2268.04</ele>
        <time>2019-08-07T10:12:05Z</time>
      </trkpt>
      <trkpt lat="44.10694" lon="6.69839">
        <ele>2267.83</ele>
        <time>2019-08-07T10:12:13Z</time>
      </trkpt>
      <trkpt lat="44.10677" lon="6.69849">
        <ele>2267.97</ele>
        <time>2019-08-07T10:12:19Z</time>
      </trkpt>
      <trkpt lat="44.10655" lon="6.69847">
        <ele>2266.59</ele>
        <time>2019-08-07T10:12:27Z</time>
      </trkpt>
      <trkpt lat="44.10632" lon="6.69839">
        <ele>2266.94</ele>
        <time>2019-08-07T10:12:39Z</time>
      </trkpt>
      <trkpt lat="44.10611" lon="6.69848">
        <ele>2267.31</ele>
        <time>2019-08-07T10:12:47Z</time>
      </trkpt>
      <trkpt lat="44.10629" lon="6.69836">
        <ele>2261.7</ele>
        <time>2019-08-07T10:15:43Z</time>
      </trkpt>
      <trkpt lat="44.10632" lon="6.6981">
        <ele>2260.34</ele>
        <time>2019-08-07T10:15:49Z</time>
      </trkpt>
      <trkpt lat="44.10641" lon="6.69782">
        <ele>2259.43</ele>
        <time>2019-08-07T10:15:59Z</time>
      </trkpt>
      <trkpt lat="44.10634" lon="6.69756">
        <ele>2260.98</ele>
        <time>2019-08-07T10:16:09Z</time>
      </trkpt>
      <trkpt lat="44.10618" lon="6.69737">
        <ele>2260.59</ele>
        <time>2019-08-07T10:16:19Z</time>
      </trkpt>
      <trkpt lat="44.10614" lon="6.69712">
        <ele>2258.46</ele>
        <time>2019-08-07T10:16:29Z</time>
      </trkpt>
      <trkpt lat="44.10603" lon="6.69689">
        <ele>2258.6</ele>
        <time>2019-08-07T10:16:39Z</time>
      </trkpt>
      <trkpt lat="44.10582" lon="6.69689">
        <ele>2265.8</ele>
        <time>2019-08-07T10:16:51Z</time>
      </trkpt>
      <trkpt lat="44.10563" lon="6.69692">
        <ele>2267.43</ele>
        <time>2019-08-07T10:17:01Z</time>
      </trkpt>
      <trkpt lat="44.10545" lon="6.69699">
        <ele>2271.64</ele>
        <time>2019-08-07T10:17:09Z</time>
      </trkpt>
      <trkpt lat="44.10526" lon="6.69708">
        <ele>2275.64</ele>
        <time>2019-08-07T10:17:17Z</time>
      </trkpt>
      <trkpt lat="44.10507" lon="6.69716">
        <ele>2274.57</ele>
        <time>2019-08-07T10:17:25Z</time>
      </trkpt>
      <trkpt lat="44.10488" lon="6.69712">
        <ele>2276.52</ele>
        <time>2019-08-07T10:17:33Z</time>
      </trkpt>
      <trkpt lat="44.10469" lon="6.69708">
        <ele>2278.49</ele>
        <time>2019-08-07T10:17:41Z</time>
      </trkpt>
      <trkpt lat="44.1045" lon="6.69711">
        <ele>2280.48</ele>
        <time>2019-08-07T10:17:49Z</time>
      </trkpt>
      <trkpt lat="44.10428" lon="6.69715">
        <ele>2279.13</ele>
        <time>2019-08-07T10:17:57Z</time>
      </trkpt>
      <trkpt lat="44.10408" lon="6.69718">
        <ele>2277.91</ele>
        <time>2019-08-07T10:18:05Z</time>
      </trkpt>
      <trkpt lat="44.10394" lon="6.69737">
        <ele>2275.79</ele>
        <time>2019-08-07T10:18:23Z</time>
      </trkpt>
      <trkpt lat="44.10383" lon="6.69763">
        <ele>2271.16</ele>
        <time>2019-08-07T10:18:29Z</time>
      </trkpt>
      <trkpt lat="44.10372" lon="6.69784">
        <ele>2269.97</ele>
        <time>2019-08-07T10:18:35Z</time>
      </trkpt>
      <trkpt lat="44.10359" lon="6.69807">
        <ele>2270.1</ele>
        <time>2019-08-07T10:18:41Z</time>
      </trkpt>
      <trkpt lat="44.10355" lon="6.69839">
        <ele>2269.89</ele>
        <time>2019-08-07T10:18:47Z</time>
      </trkpt>
      <trkpt lat="44.10367" lon="6.69858">
        <ele>2267.57</ele>
        <time>2019-08-07T10:19:55Z</time>
      </trkpt>
      <trkpt lat="44.10381" lon="6.69875">
        <ele>2267.41</ele>
        <time>2019-08-07T10:20:07Z</time>
      </trkpt>
      <trkpt lat="44.10396" lon="6.69889">
        <ele>2266.25</ele>
        <time>2019-08-07T10:20:21Z</time>
      </trkpt>
      <trkpt lat="44.10417" lon="6.69908">
        <ele>2265.31</ele>
        <time>2019-08-07T10:20:35Z</time>
      </trkpt>
      <trkpt lat="44.10432" lon="6.69922">
        <ele>2264.59</ele>
        <time>2019-08-07T10:20:39Z</time>
      </trkpt>
      <trkpt lat="44.1045" lon="6.69944">
        <ele>2263.21</ele>
        <time>2019-08-07T10:20:45Z</time>
      </trkpt>
      <trkpt lat="44.10468" lon="6.6996">
        <ele>2257.5</ele>
        <time>2019-08-07T10:20:49Z</time>
      </trkpt>
      <trkpt lat="44.10481" lon="6.69979">
        <ele>2248.72</ele>
        <time>2019-08-07T10:20:53Z</time>
      </trkpt>
      <trkpt lat="44.10489" lon="6.70006">
        <ele>2242.88</ele>
        <time>2019-08-07T10:20:57Z</time>
      </trkpt>
      <trkpt lat="44.10495" lon="6.70038">
        <ele>2240.2</ele>
        <time>2019-08-07T10:21:01Z</time>
      </trkpt>
      <trkpt lat="44.105" lon="6.70069">
        <ele>2236.43</ele>
        <time>2019-08-07T10:21:07Z</time>
      </trkpt>
      <trkpt lat="44.10497" lon="6.70099">
        <ele>2233.17</ele>
        <time>2019-08-07T10:21:13Z</time>
      </trkpt>
      <trkpt lat="44.10483" lon="6.70116">
        <ele>2232.57</ele>
        <time>2019-08-07T10:23:57Z</time>
      </trkpt>
      <trkpt lat="44.10465" lon="6.70129">
        <ele>2231.98</ele>
        <time>2019-08-07T10:24:11Z</time>
      </trkpt>
      <trkpt lat="44.10452" lon="6.70109">
        <ele>2236.6</ele>
        <time>2019-08-07T10:33:55Z</time>
      </trkpt>
      <trkpt lat="44.10415" lon="6.70086">
        <ele>2238.3</ele>
        <time>2019-08-07T10:34:25Z</time>
      </trkpt>
      <trkpt lat="44.10384" lon="6.70057">
        <ele>2238.39</ele>
        <time>2019-08-07T10:34:27Z</time>
      </trkpt>
      <trkpt lat="44.10351" lon="6.70019">
        <ele>2238.56</ele>
        <time>2019-08-07T10:34:29Z</time>
      </trkpt>
      <trkpt lat="44.10331" lon="6.69992">
        <ele>2238.68</ele>
        <time>2019-08-07T10:34:31Z</time>
      </trkpt>
      <trkpt lat="44.10356" lon="6.70005">
        <ele>2238.98</ele>
        <time>2019-08-07T10:34:35Z</time>
      </trkpt>
      <trkpt lat="44.10346" lon="6.69984">
        <ele>2239.1</ele>
        <time>2019-08-07T10:34:39Z</time>
      </trkpt>
      <trkpt lat="44.10459" lon="6.70133">
        <ele>2243.32</ele>
        <time>2019-08-07T10:37:55Z</time>
      </trkpt>
      <trkpt lat="44.10476" lon="6.7012">
        <ele>2231.21</ele>
        <time>2019-08-07T10:49:19Z</time>
      </trkpt>
      <trkpt lat="44.10492" lon="6.70102">
        <ele>2231.08</ele>
        <time>2019-08-07T10:49:29Z</time>
      </trkpt>
      <trkpt lat="44.10498" lon="6.70075">
        <ele>2229.82</ele>
        <time>2019-08-07T10:49:37Z</time>
      </trkpt>
      <trkpt lat="44.10501" lon="6.70048">
        <ele>2227.56</ele>
        <time>2019-08-07T10:49:45Z</time>
      </trkpt>
      <trkpt lat="44.10507" lon="6.70023">
        <ele>2226.63</ele>
        <time>2019-08-07T10:49:53Z</time>
      </trkpt>
      <trkpt lat="44.1052" lon="6.7">
        <ele>2225.94</ele>
        <time>2019-08-07T10:50:03Z</time>
      </trkpt>
      <trkpt lat="44.1054" lon="6.69982">
        <ele>2226.15</ele>
        <time>2019-08-07T10:50:15Z</time>
      </trkpt>
      <trkpt lat="44.1056" lon="6.69967">
        <ele>2232.4</ele>
        <time>2019-08-07T10:50:23Z</time>
      </trkpt>
      <trkpt lat="44.1058" lon="6.69982">
        <ele>2237.38</ele>
        <time>2019-08-07T10:51:11Z</time>
      </trkpt>
      <trkpt lat="44.10602" lon="6.69984">
        <ele>2238.69</ele>
        <time>2019-08-07T10:51:17Z</time>
      </trkpt>
      <trkpt lat="44.1062" lon="6.6998">
        <ele>2241.32</ele>
        <time>2019-08-07T10:51:43Z</time>
      </trkpt>
      <trkpt lat="44.10642" lon="6.69983">
        <ele>2240.1</ele>
        <time>2019-08-07T10:51:53Z</time>
      </trkpt>
      <trkpt lat="44.10661" lon="6.69983">
        <ele>2238.7</ele>
        <time>2019-08-07T10:52:07Z</time>
      </trkpt>
      <trkpt lat="44.10682" lon="6.69975">
        <ele>2240.19</ele>
        <time>2019-08-07T10:52:33Z</time>
      </trkpt>
      <trkpt lat="44.10702" lon="6.69969">
        <ele>2240.59</ele>
        <time>2019-08-07T10:52:41Z</time>
      </trkpt>
      <trkpt lat="44.10719" lon="6.69957">
        <ele>2242.38</ele>
        <time>2019-08-07T10:52:47Z</time>
      </trkpt>
      <trkpt lat="44.10736" lon="6.6994">
        <ele>2244.1</ele>
        <time>2019-08-07T10:52:53Z</time>
      </trkpt>
      <trkpt lat="44.10751" lon="6.69923">
        <ele>2245.23</ele>
        <time>2019-08-07T10:52:59Z</time>
      </trkpt>
      <trkpt lat="44.10775" lon="6.69916">
        <ele>2247.97</ele>
        <time>2019-08-07T10:53:05Z</time>
      </trkpt>
      <trkpt lat="44.10795" lon="6.699">
        <ele>2250.18</ele>
        <time>2019-08-07T10:53:11Z</time>
      </trkpt>
      <trkpt lat="44.10811" lon="6.69878">
        <ele>2249.42</ele>
        <time>2019-08-07T10:53:17Z</time>
      </trkpt>
      <trkpt lat="44.10816" lon="6.69852">
        <ele>2244.98</ele>
        <time>2019-08-07T10:53:25Z</time>
      </trkpt>
      <trkpt lat="44.10829" lon="6.69834">
        <ele>2245</ele>
        <time>2019-08-07T10:53:31Z</time>
      </trkpt>
      <trkpt lat="44.10842" lon="6.69817">
        <ele>2244.72</ele>
        <time>2019-08-07T10:53:35Z</time>
      </trkpt>
      <trkpt lat="44.10852" lon="6.69788">
        <ele>2244.02</ele>
        <time>2019-08-07T10:53:41Z</time>
      </trkpt>
      <trkpt lat="44.10859" lon="6.69758">
        <ele>2245.02</ele>
        <time>2019-08-07T10:53:47Z</time>
      </trkpt>
      <trkpt lat="44.10864" lon="6.69721">
        <ele>2246.31</ele>
        <time>2019-08-07T10:53:53Z</time>
      </trkpt>
      <trkpt lat="44.10868" lon="6.69688">
        <ele>2247.86</ele>
        <time>2019-08-07T10:53:59Z</time>
      </trkpt>
      <trkpt lat="44.1087" lon="6.69656">
        <ele>2248.72</ele>
        <time>2019-08-07T10:54:05Z</time>
      </trkpt>
      <trkpt lat="44.10849" lon="6.69639">
        <ele>2250.62</ele>
        <time>2019-08-07T10:54:13Z</time>
      </trkpt>
      <trkpt lat="44.10827" lon="6.69626">
        <ele>2250.97</ele>
        <time>2019-08-07T10:54:19Z</time>
      </trkpt>
      <trkpt lat="44.10809" lon="6.69607">
        <ele>2250.6</ele>
        <time>2019-08-07T10:54:25Z</time>
      </trkpt>
      <trkpt lat="44.10795" lon="6.69592">
        <ele>2251.58</ele>
        <time>2019-08-07T10:54:31Z</time>
      </trkpt>
      <trkpt lat="44.10776" lon="6.69602">
        <ele>2254.15</ele>
        <time>2019-08-07T10:54:37Z</time>
      </trkpt>
      <trkpt lat="44.10756" lon="6.69594">
        <ele>2254.07</ele>
        <time>2019-08-07T10:54:45Z</time>
      </trkpt>
      <trkpt lat="44.10748" lon="6.69568">
        <ele>2252.48</ele>
        <time>2019-08-07T10:54:51Z</time>
      </trkpt>
      <trkpt lat="44.10734" lon="6.69546">
        <ele>2251.52</ele>
        <time>2019-08-07T10:54:59Z</time>
      </trkpt>
      <trkpt lat="44.10718" lon="6.69532">
        <ele>2251.75</ele>
        <time>2019-08-07T10:55:05Z</time>
      </trkpt>
      <trkpt lat="44.107" lon="6.69514">
        <ele>2253.71</ele>
        <time>2019-08-07T10:55:13Z</time>
      </trkpt>
      <trkpt lat="44.10685" lon="6.69497">
        <ele>2251.8</ele>
        <time>2019-08-07T10:55:23Z</time>
      </trkpt>
      <trkpt lat="44.10672" lon="6.69474">
        <ele>2253.24</ele>
        <time>2019-08-07T10:58:01Z</time>
      </trkpt>
      <trkpt lat="44.10665" lon="6.69449">
        <ele>2253.21</ele>
        <time>2019-08-07T10:58:07Z</time>
      </trkpt>
      <trkpt lat="44.1066" lon="6.69423">
        <ele>2252.34</ele>
        <time>2019-08-07T10:58:13Z</time>
      </trkpt>
      <trkpt lat="44.10653" lon="6.69393">
        <ele>2252.09</ele>
        <time>2019-08-07T10:58:21Z</time>
      </trkpt>
      <trkpt lat="44.10659" lon="6.69365">
        <ele>2252.92</ele>
        <time>2019-08-07T10:58:29Z</time>
      </trkpt>
      <trkpt lat="44.1067" lon="6.69343">
        <ele>2253.1</ele>
        <time>2019-08-07T10:58:35Z</time>
      </trkpt>
      <trkpt lat="44.10679" lon="6.6931">
        <ele>2253.57</ele>
        <time>2019-08-07T10:58:41Z</time>
      </trkpt>
      <trkpt lat="44.10677" lon="6.69279">
        <ele>2254.8</ele>
        <time>2019-08-07T10:58:47Z</time>
      </trkpt>
      <trkpt lat="44.10667" lon="6.69252">
        <ele>2254.08</ele>
        <time>2019-08-07T10:58:55Z</time>
      </trkpt>
      <trkpt lat="44.10667" lon="6.69224">
        <ele>2254.13</ele>
        <time>2019-08-07T10:59:03Z</time>
      </trkpt>
      <trkpt lat="44.10657" lon="6.69195">
        <ele>2255.21</ele>
        <time>2019-08-07T10:59:13Z</time>
      </trkpt>
      <trkpt lat="44.10659" lon="6.69165">
        <ele>2255.73</ele>
        <time>2019-08-07T10:59:23Z</time>
      </trkpt>
      <trkpt lat="44.10661" lon="6.69134">
        <ele>2255.24</ele>
        <time>2019-08-07T10:59:33Z</time>
      </trkpt>
      <trkpt lat="44.10667" lon="6.69104">
        <ele>2255.18</ele>
        <time>2019-08-07T11:01:31Z</time>
      </trkpt>
      <trkpt lat="44.10675" lon="6.69073">
        <ele>2254.97</ele>
        <time>2019-08-07T11:01:39Z</time>
      </trkpt>
      <trkpt lat="44.10678" lon="6.69045">
        <ele>2257.7</ele>
        <time>2019-08-07T11:01:47Z</time>
      </trkpt>
      <trkpt lat="44.10676" lon="6.69017">
        <ele>2259.59</ele>
        <time>2019-08-07T11:01:55Z</time>
      </trkpt>
      <trkpt lat="44.10685" lon="6.68988">
        <ele>2259.83</ele>
        <time>2019-08-07T11:02:05Z</time>
      </trkpt>
      <trkpt lat="44.10699" lon="6.68971">
        <ele>2259.24</ele>
        <time>2019-08-07T11:02:13Z</time>
      </trkpt>
      <trkpt lat="44.1071" lon="6.68949">
        <ele>2261.08</ele>
        <time>2019-08-07T11:02:25Z</time>
      </trkpt>
      <trkpt lat="44.1071" lon="6.68922">
        <ele>2263.06</ele>
        <time>2019-08-07T11:02:33Z</time>
      </trkpt>
      <trkpt lat="44.1071" lon="6.68894">
        <ele>2269.18</ele>
        <time>2019-08-07T11:02:41Z</time>
      </trkpt>
      <trkpt lat="44.10713" lon="6.68865">
        <ele>2275.43</ele>
        <time>2019-08-07T11:02:51Z</time>
      </trkpt>
      <trkpt lat="44.10697" lon="6.68883">
        <ele>2272.09</ele>
        <time>2019-08-07T11:03:15Z</time>
      </trkpt>
      <trkpt lat="44.10694" lon="6.68853">
        <ele>2275.53</ele>
        <time>2019-08-07T11:03:55Z</time>
      </trkpt>
      <trkpt lat="44.10689" lon="6.68828">
        <ele>2276.31</ele>
        <time>2019-08-07T11:04:03Z</time>
      </trkpt>
      <trkpt lat="44.10687" lon="6.68799">
        <ele>2276.81</ele>
        <time>2019-08-07T11:04:13Z</time>
      </trkpt>
      <trkpt lat="44.10674" lon="6.68774">
        <ele>2282.83</ele>
        <time>2019-08-07T11:04:23Z</time>
      </trkpt>
      <trkpt lat="44.10659" lon="6.68758">
        <ele>2286.22</ele>
        <time>2019-08-07T11:04:31Z</time>
      </trkpt>
      <trkpt lat="44.10645" lon="6.68737">
        <ele>2286.39</ele>
        <time>2019-08-07T11:04:39Z</time>
      </trkpt>
      <trkpt lat="44.10649" lon="6.68709">
        <ele>2287.8</ele>
        <time>2019-08-07T11:04:49Z</time>
      </trkpt>
      <trkpt lat="44.10635" lon="6.68691">
        <ele>2290.3</ele>
        <time>2019-08-07T11:05:01Z</time>
      </trkpt>
      <trkpt lat="44.10645" lon="6.68666">
        <ele>2297.23</ele>
        <time>2019-08-07T11:05:11Z</time>
      </trkpt>
      <trkpt lat="44.1066" lon="6.6865">
        <ele>2302.65</ele>
        <time>2019-08-07T11:05:51Z</time>
      </trkpt>
      <trkpt lat="44.10681" lon="6.68643">
        <ele>2302.36</ele>
        <time>2019-08-07T11:05:59Z</time>
      </trkpt>
      <trkpt lat="44.10698" lon="6.68625">
        <ele>2304</ele>
        <time>2019-08-07T11:06:07Z</time>
      </trkpt>
      <trkpt lat="44.10705" lon="6.68597">
        <ele>2303.28</ele>
        <time>2019-08-07T11:06:15Z</time>
      </trkpt>
      <trkpt lat="44.10689" lon="6.68585">
        <ele>2304.66</ele>
        <time>2019-08-07T11:06:23Z</time>
      </trkpt>
      <trkpt lat="44.10677" lon="6.68567">
        <ele>2304.87</ele>
        <time>2019-08-07T11:06:31Z</time>
      </trkpt>
      <trkpt lat="44.10664" lon="6.68543">
        <ele>2304.22</ele>
        <time>2019-08-07T11:06:39Z</time>
      </trkpt>
      <trkpt lat="44.10662" lon="6.68515">
        <ele>2305.33</ele>
        <time>2019-08-07T11:06:47Z</time>
      </trkpt>
      <trkpt lat="44.10654" lon="6.68489">
        <ele>2305.56</ele>
        <time>2019-08-07T11:06:55Z</time>
      </trkpt>
      <trkpt lat="44.10643" lon="6.68462">
        <ele>2306.71</ele>
        <time>2019-08-07T11:07:03Z</time>
      </trkpt>
      <trkpt lat="44.1064" lon="6.68434">
        <ele>2311.51</ele>
        <time>2019-08-07T11:07:11Z</time>
      </trkpt>
      <trkpt lat="44.10631" lon="6.68411">
        <ele>2316.86</ele>
        <time>2019-08-07T11:07:19Z</time>
      </trkpt>
      <trkpt lat="44.10623" lon="6.68387">
        <ele>2320.87</ele>
        <time>2019-08-07T11:07:27Z</time>
      </trkpt>
      <trkpt lat="44.10628" lon="6.68358">
        <ele>2325.47</ele>
        <time>2019-08-07T11:07:37Z</time>
      </trkpt>
      <trkpt lat="44.1062" lon="6.68329">
        <ele>2325.85</ele>
        <time>2019-08-07T11:07:47Z</time>
      </trkpt>
      <trkpt lat="44.1061" lon="6.68308">
        <ele>2326.22</ele>
        <time>2019-08-07T11:08:07Z</time>
      </trkpt>
      <trkpt lat="44.10598" lon="6.68288">
        <ele>2327.73</ele>
        <time>2019-08-07T11:08:37Z</time>
      </trkpt>
      <trkpt lat="44.10585" lon="6.6827">
        <ele>2330.06</ele>
        <time>2019-08-07T11:09:03Z</time>
      </trkpt>
      <trkpt lat="44.10604" lon="6.68267">
        <ele>2332.87</ele>
        <time>2019-08-07T11:09:49Z</time>
      </trkpt>
      <trkpt lat="44.10624" lon="6.6827">
        <ele>2333.62</ele>
        <time>2019-08-07T11:09:59Z</time>
      </trkpt>
      <trkpt lat="44.10642" lon="6.68263">
        <ele>2337.63</ele>
        <time>2019-08-07T11:10:21Z</time>
      </trkpt>
      <trkpt lat="44.10655" lon="6.68245">
        <ele>2338.55</ele>
        <time>2019-08-07T11:10:29Z</time>
      </trkpt>
      <trkpt lat="44.10673" lon="6.68234">
        <ele>2341.82</ele>
        <time>2019-08-07T11:10:39Z</time>
      </trkpt>
      <trkpt lat="44.10685" lon="6.68214">
        <ele>2344.7</ele>
        <time>2019-08-07T11:10:49Z</time>
      </trkpt>
      <trkpt lat="44.10698" lon="6.6819">
        <ele>2349.06</ele>
        <time>2019-08-07T11:10:59Z</time>
      </trkpt>
      <trkpt lat="44.10712" lon="6.68173">
        <ele>2351.23</ele>
        <time>2019-08-07T11:11:07Z</time>
      </trkpt>
      <trkpt lat="44.10725" lon="6.68153">
        <ele>2352.54</ele>
        <time>2019-08-07T11:11:15Z</time>
      </trkpt>
      <trkpt lat="44.10745" lon="6.68143">
        <ele>2356.26</ele>
        <time>2019-08-07T11:11:25Z</time>
      </trkpt>
      <trkpt lat="44.10758" lon="6.68123">
        <ele>2355.59</ele>
        <time>2019-08-07T11:11:33Z</time>
      </trkpt>
      <trkpt lat="44.10764" lon="6.68097">
        <ele>2355.14</ele>
        <time>2019-08-07T11:11:41Z</time>
      </trkpt>
      <trkpt lat="44.10771" lon="6.68068">
        <ele>2355.93</ele>
        <time>2019-08-07T11:11:49Z</time>
      </trkpt>
      <trkpt lat="44.10786" lon="6.68052">
        <ele>2352.29</ele>
        <time>2019-08-07T11:12:29Z</time>
      </trkpt>
      <trkpt lat="44.10805" lon="6.68051">
        <ele>2353.54</ele>
        <time>2019-08-07T11:12:37Z</time>
      </trkpt>
      <trkpt lat="44.10827" lon="6.68052">
        <ele>2354.58</ele>
        <time>2019-08-07T11:12:45Z</time>
      </trkpt>
      <trkpt lat="44.10845" lon="6.68067">
        <ele>2355.81</ele>
        <time>2019-08-07T11:12:53Z</time>
      </trkpt>
      <trkpt lat="44.10864" lon="6.68051">
        <ele>2359.1</ele>
        <time>2019-08-07T11:13:03Z</time>
      </trkpt>
      <trkpt lat="44.10884" lon="6.68043">
        <ele>2365.26</ele>
        <time>2019-08-07T11:13:11Z</time>
      </trkpt>
      <trkpt lat="44.1088" lon="6.68017">
        <ele>2369.85</ele>
        <time>2019-08-07T11:13:25Z</time>
      </trkpt>
      <trkpt lat="44.10863" lon="6.68002">
        <ele>2371.31</ele>
        <time>2019-08-07T11:13:55Z</time>
      </trkpt>
      <trkpt lat="44.10872" lon="6.67979">
        <ele>2377</ele>
        <time>2019-08-07T11:14:43Z</time>
      </trkpt>
      <trkpt lat="44.10887" lon="6.67962">
        <ele>2390.01</ele>
        <time>2019-08-07T11:15:49Z</time>
      </trkpt>
      <trkpt lat="44.10871" lon="6.67948">
        <ele>2395.1</ele>
        <time>2019-08-07T11:17:09Z</time>
      </trkpt>
      <trkpt lat="44.10864" lon="6.67922">
        <ele>2398.79</ele>
        <time>2019-08-07T11:18:25Z</time>
      </trkpt>
      <trkpt lat="44.10847" lon="6.67907">
        <ele>2398.31</ele>
        <time>2019-08-07T11:18:37Z</time>
      </trkpt>
      <trkpt lat="44.10831" lon="6.67895">
        <ele>2400.44</ele>
        <time>2019-08-07T11:18:47Z</time>
      </trkpt>
      <trkpt lat="44.10812" lon="6.67887">
        <ele>2405.52</ele>
        <time>2019-08-07T11:19:05Z</time>
      </trkpt>
      <trkpt lat="44.10793" lon="6.67875">
        <ele>2408.07</ele>
        <time>2019-08-07T11:19:15Z</time>
      </trkpt>
      <trkpt lat="44.10775" lon="6.67864">
        <ele>2411.17</ele>
        <time>2019-08-07T11:19:25Z</time>
      </trkpt>
      <trkpt lat="44.1076" lon="6.67846">
        <ele>2415.82</ele>
        <time>2019-08-07T11:19:37Z</time>
      </trkpt>
      <trkpt lat="44.10772" lon="6.67826">
        <ele>2418.16</ele>
        <time>2019-08-07T11:20:05Z</time>
      </trkpt>
      <trkpt lat="44.10791" lon="6.67817">
        <ele>2418.8</ele>
        <time>2019-08-07T11:20:13Z</time>
      </trkpt>
      <trkpt lat="44.10804" lon="6.678">
        <ele>2420.77</ele>
        <time>2019-08-07T11:20:31Z</time>
      </trkpt>
      <trkpt lat="44.10822" lon="6.67785">
        <ele>2419.03</ele>
        <time>2019-08-07T11:20:59Z</time>
      </trkpt>
      <trkpt lat="44.10838" lon="6.67766">
        <ele>2414.06</ele>
        <time>2019-08-07T11:21:07Z</time>
      </trkpt>
      <trkpt lat="44.10847" lon="6.67744">
        <ele>2406.51</ele>
        <time>2019-08-07T11:21:23Z</time>
      </trkpt>
      <trkpt lat="44.10849" lon="6.67714">
        <ele>2401.76</ele>
        <time>2019-08-07T11:21:35Z</time>
      </trkpt>
      <trkpt lat="44.10852" lon="6.67688">
        <ele>2394.88</ele>
        <time>2019-08-07T11:21:43Z</time>
      </trkpt>
      <trkpt lat="44.10849" lon="6.67658">
        <ele>2386.89</ele>
        <time>2019-08-07T11:21:53Z</time>
      </trkpt>
      <trkpt lat="44.10846" lon="6.67628">
        <ele>2383.09</ele>
        <time>2019-08-07T11:22:03Z</time>
      </trkpt>
      <trkpt lat="44.10844" lon="6.67596">
        <ele>2378.55</ele>
        <time>2019-08-07T11:22:13Z</time>
      </trkpt>
      <trkpt lat="44.10849" lon="6.67571">
        <ele>2379.66</ele>
        <time>2019-08-07T11:22:29Z</time>
      </trkpt>
      <trkpt lat="44.10843" lon="6.6754">
        <ele>2381.4</ele>
        <time>2019-08-07T11:22:51Z</time>
      </trkpt>
      <trkpt lat="44.10838" lon="6.67512">
        <ele>2377.03</ele>
        <time>2019-08-07T11:22:59Z</time>
      </trkpt>
      <trkpt lat="44.10832" lon="6.67488">
        <ele>2368.16</ele>
        <time>2019-08-07T11:23:09Z</time>
      </trkpt>
      <trkpt lat="44.10823" lon="6.67461">
        <ele>2361.18</ele>
        <time>2019-08-07T11:23:21Z</time>
      </trkpt>
      <trkpt lat="44.10815" lon="6.67437">
        <ele>2356.26</ele>
        <time>2019-08-07T11:23:29Z</time>
      </trkpt>
      <trkpt lat="44.10806" lon="6.67414">
        <ele>2352.39</ele>
        <time>2019-08-07T11:23:43Z</time>
      </trkpt>
      <trkpt lat="44.10799" lon="6.67389">
        <ele>2345.13</ele>
        <time>2019-08-07T11:23:51Z</time>
      </trkpt>
      <trkpt lat="44.1079" lon="6.67364">
        <ele>2343.03</ele>
        <time>2019-08-07T11:23:59Z</time>
      </trkpt>
      <trkpt lat="44.10778" lon="6.67341">
        <ele>2341.05</ele>
        <time>2019-08-07T11:24:07Z</time>
      </trkpt>
      <trkpt lat="44.10768" lon="6.6732">
        <ele>2339.59</ele>
        <time>2019-08-07T11:24:15Z</time>
      </trkpt>
      <trkpt lat="44.10762" lon="6.67295">
        <ele>2335.78</ele>
        <time>2019-08-07T11:24:23Z</time>
      </trkpt>
      <trkpt lat="44.10752" lon="6.67271">
        <ele>2332.56</ele>
        <time>2019-08-07T11:24:37Z</time>
      </trkpt>
      <trkpt lat="44.10744" lon="6.67247">
        <ele>2327.74</ele>
        <time>2019-08-07T11:24:47Z</time>
      </trkpt>
      <trkpt lat="44.10738" lon="6.67224">
        <ele>2323.38</ele>
        <time>2019-08-07T11:24:55Z</time>
      </trkpt>
      <trkpt lat="44.1073" lon="6.67199">
        <ele>2317.95</ele>
        <time>2019-08-07T11:25:05Z</time>
      </trkpt>
      <trkpt lat="44.10721" lon="6.67173">
        <ele>2314</ele>
        <time>2019-08-07T11:25:17Z</time>
      </trkpt>
      <trkpt lat="44.10707" lon="6.6715">
        <ele>2309.86</ele>
        <time>2019-08-07T11:25:25Z</time>
      </trkpt>
      <trkpt lat="44.10694" lon="6.67127">
        <ele>2304.47</ele>
        <time>2019-08-07T11:25:35Z</time>
      </trkpt>
      <trkpt lat="44.1068" lon="6.67105">
        <ele>2302.04</ele>
        <time>2019-08-07T11:25:45Z</time>
      </trkpt>
      <trkpt lat="44.10665" lon="6.67084">
        <ele>2300.19</ele>
        <time>2019-08-07T11:25:55Z</time>
      </trkpt>
      <trkpt lat="44.10652" lon="6.67064">
        <ele>2298.67</ele>
        <time>2019-08-07T11:26:05Z</time>
      </trkpt>
      <trkpt lat="44.10635" lon="6.67047">
        <ele>2297.95</ele>
        <time>2019-08-07T11:26:13Z</time>
      </trkpt>
      <trkpt lat="44.1062" lon="6.67028">
        <ele>2292.58</ele>
        <time>2019-08-07T11:26:23Z</time>
      </trkpt>
      <trkpt lat="44.10608" lon="6.67004">
        <ele>2286.09</ele>
        <time>2019-08-07T11:26:31Z</time>
      </trkpt>
      <trkpt lat="44.10604" lon="6.66975">
        <ele>2277.53</ele>
        <time>2019-08-07T11:26:41Z</time>
      </trkpt>
      <trkpt lat="44.10596" lon="6.6695">
        <ele>2278.9</ele>
        <time>2019-08-07T11:28:06Z</time>
      </trkpt>
      <trkpt lat="44.10593" lon="6.66922">
        <ele>2278.31</ele>
        <time>2019-08-07T11:28:38Z</time>
      </trkpt>
      <trkpt lat="44.10593" lon="6.66896">
        <ele>2278.21</ele>
        <time>2019-08-07T11:28:46Z</time>
      </trkpt>
      <trkpt lat="44.10596" lon="6.6687">
        <ele>2276.94</ele>
        <time>2019-08-07T11:29:10Z</time>
      </trkpt>
      <trkpt lat="44.10582" lon="6.66846">
        <ele>2272.77</ele>
        <time>2019-08-07T11:29:20Z</time>
      </trkpt>
      <trkpt lat="44.10563" lon="6.66817">
        <ele>2268.31</ele>
        <time>2019-08-07T11:29:26Z</time>
      </trkpt>
      <trkpt lat="44.1054" lon="6.66799">
        <ele>2258.43</ele>
        <time>2019-08-07T11:29:30Z</time>
      </trkpt>
      <trkpt lat="44.10524" lon="6.66785">
        <ele>2251.12</ele>
        <time>2019-08-07T11:34:06Z</time>
      </trkpt>
      <trkpt lat="44.10517" lon="6.66754">
        <ele>2250.5</ele>
        <time>2019-08-07T11:34:12Z</time>
      </trkpt>
      <trkpt lat="44.10498" lon="6.66708">
        <ele>2248.24</ele>
        <time>2019-08-07T11:34:16Z</time>
      </trkpt>
      <trkpt lat="44.10492" lon="6.66682">
        <ele>2245.5</ele>
        <time>2019-08-07T11:34:18Z</time>
      </trkpt>
      <trkpt lat="44.10485" lon="6.66657">
        <ele>2243.98</ele>
        <time>2019-08-07T11:34:20Z</time>
      </trkpt>
      <trkpt lat="44.10483" lon="6.6662">
        <ele>2240.89</ele>
        <time>2019-08-07T11:34:24Z</time>
      </trkpt>
      <trkpt lat="44.10486" lon="6.66589">
        <ele>2240.54</ele>
        <time>2019-08-07T11:34:28Z</time>
      </trkpt>
      <trkpt lat="44.10498" lon="6.66568">
        <ele>2239.87</ele>
        <time>2019-08-07T11:34:34Z</time>
      </trkpt>
      <trkpt lat="44.10505" lon="6.66534">
        <ele>2236.89</ele>
        <time>2019-08-07T11:34:40Z</time>
      </trkpt>
      <trkpt lat="44.10503" lon="6.66503">
        <ele>2233.84</ele>
        <time>2019-08-07T11:34:46Z</time>
      </trkpt>
      <trkpt lat="44.10479" lon="6.66485">
        <ele>2230.32</ele>
        <time>2019-08-07T11:34:52Z</time>
      </trkpt>
      <trkpt lat="44.10453" lon="6.66472">
        <ele>2226.64</ele>
        <time>2019-08-07T11:34:58Z</time>
      </trkpt>
      <trkpt lat="44.10427" lon="6.66456">
        <ele>2222.6</ele>
        <time>2019-08-07T11:35:04Z</time>
      </trkpt>
      <trkpt lat="44.1041" lon="6.66441">
        <ele>2219.48</ele>
        <time>2019-08-07T11:35:08Z</time>
      </trkpt>
      <trkpt lat="44.10387" lon="6.66446">
        <ele>2214.91</ele>
        <time>2019-08-07T11:35:14Z</time>
      </trkpt>
      <trkpt lat="44.10375" lon="6.66407">
        <ele>2206.57</ele>
        <time>2019-08-07T11:35:24Z</time>
      </trkpt>
      <trkpt lat="44.10368" lon="6.66375">
        <ele>2203.55</ele>
        <time>2019-08-07T11:35:28Z</time>
      </trkpt>
      <trkpt lat="44.10354" lon="6.66348">
        <ele>2200.87</ele>
        <time>2019-08-07T11:35:32Z</time>
      </trkpt>
      <trkpt lat="44.10344" lon="6.66326">
        <ele>2198.37</ele>
        <time>2019-08-07T11:35:36Z</time>
      </trkpt>
      <trkpt lat="44.10332" lon="6.66302">
        <ele>2196.14</ele>
        <time>2019-08-07T11:35:40Z</time>
      </trkpt>
      <trkpt lat="44.1032" lon="6.6627">
        <ele>2193.73</ele>
        <time>2019-08-07T11:35:44Z</time>
      </trkpt>
      <trkpt lat="44.10311" lon="6.66241">
        <ele>2190.95</ele>
        <time>2019-08-07T11:35:48Z</time>
      </trkpt>
      <trkpt lat="44.10317" lon="6.66209">
        <ele>2183.89</ele>
        <time>2019-08-07T11:36:14Z</time>
      </trkpt>
      <trkpt lat="44.10338" lon="6.66192">
        <ele>2182.35</ele>
        <time>2019-08-07T11:36:20Z</time>
      </trkpt>
      <trkpt lat="44.10362" lon="6.6618">
        <ele>2181.77</ele>
        <time>2019-08-07T11:36:26Z</time>
      </trkpt>
      <trkpt lat="44.10385" lon="6.66178">
        <ele>2180.17</ele>
        <time>2019-08-07T11:36:32Z</time>
      </trkpt>
      <trkpt lat="44.1041" lon="6.66179">
        <ele>2175.16</ele>
        <time>2019-08-07T11:36:38Z</time>
      </trkpt>
      <trkpt lat="44.10433" lon="6.66188">
        <ele>2167.57</ele>
        <time>2019-08-07T11:36:44Z</time>
      </trkpt>
      <trkpt lat="44.10449" lon="6.66201">
        <ele>2162.3</ele>
        <time>2019-08-07T11:36:50Z</time>
      </trkpt>
      <trkpt lat="44.10466" lon="6.66216">
        <ele>2156.74</ele>
        <time>2019-08-07T11:36:56Z</time>
      </trkpt>
      <trkpt lat="44.10486" lon="6.66228">
        <ele>2152.28</ele>
        <time>2019-08-07T11:37:06Z</time>
      </trkpt>
      <trkpt lat="44.10501" lon="6.66246">
        <ele>2151.71</ele>
        <time>2019-08-07T11:37:12Z</time>
      </trkpt>
      <trkpt lat="44.10523" lon="6.66269">
        <ele>2152.59</ele>
        <time>2019-08-07T11:37:18Z</time>
      </trkpt>
      <trkpt lat="44.10546" lon="6.66289">
        <ele>2149.36</ele>
        <time>2019-08-07T11:37:24Z</time>
      </trkpt>
      <trkpt lat="44.10561" lon="6.66303">
        <ele>2145.06</ele>
        <time>2019-08-07T11:37:28Z</time>
      </trkpt>
      <trkpt lat="44.10582" lon="6.66318">
        <ele>2138.45</ele>
        <time>2019-08-07T11:37:34Z</time>
      </trkpt>
      <trkpt lat="44.10606" lon="6.66332">
        <ele>2132.81</ele>
        <time>2019-08-07T11:37:40Z</time>
      </trkpt>
      <trkpt lat="44.10629" lon="6.66344">
        <ele>2127.93</ele>
        <time>2019-08-07T11:37:46Z</time>
      </trkpt>
      <trkpt lat="44.10646" lon="6.66354">
        <ele>2124.81</ele>
        <time>2019-08-07T11:37:50Z</time>
      </trkpt>
      <trkpt lat="44.10655" lon="6.6633">
        <ele>2117.03</ele>
        <time>2019-08-07T11:38:06Z</time>
      </trkpt>
      <trkpt lat="44.10645" lon="6.66306">
        <ele>2119.78</ele>
        <time>2019-08-07T11:38:12Z</time>
      </trkpt>
      <trkpt lat="44.10637" lon="6.66278">
        <ele>2125.35</ele>
        <time>2019-08-07T11:38:18Z</time>
      </trkpt>
      <trkpt lat="44.10626" lon="6.66253">
        <ele>2129.92</ele>
        <time>2019-08-07T11:38:24Z</time>
      </trkpt>
      <trkpt lat="44.10613" lon="6.66218">
        <ele>2133.35</ele>
        <time>2019-08-07T11:38:28Z</time>
      </trkpt>
      <trkpt lat="44.10608" lon="6.66189">
        <ele>2135.74</ele>
        <time>2019-08-07T11:38:32Z</time>
      </trkpt>
      <trkpt lat="44.10605" lon="6.66155">
        <ele>2136.72</ele>
        <time>2019-08-07T11:38:36Z</time>
      </trkpt>
      <trkpt lat="44.10596" lon="6.66128">
        <ele>2138.24</ele>
        <time>2019-08-07T11:38:40Z</time>
      </trkpt>
      <trkpt lat="44.10576" lon="6.66106">
        <ele>2137.86</ele>
        <time>2019-08-07T11:38:44Z</time>
      </trkpt>
      <trkpt lat="44.10555" lon="6.66078">
        <ele>2134.5</ele>
        <time>2019-08-07T11:38:50Z</time>
      </trkpt>
      <trkpt lat="44.10542" lon="6.66052">
        <ele>2125.63</ele>
        <time>2019-08-07T11:38:54Z</time>
      </trkpt>
      <trkpt lat="44.10522" lon="6.66037">
        <ele>2112.54</ele>
        <time>2019-08-07T11:39:00Z</time>
      </trkpt>
      <trkpt lat="44.10513" lon="6.66009">
        <ele>2103.19</ele>
        <time>2019-08-07T11:39:06Z</time>
      </trkpt>
      <trkpt lat="44.10513" lon="6.65981">
        <ele>2089.73</ele>
        <time>2019-08-07T11:39:12Z</time>
      </trkpt>
      <trkpt lat="44.10512" lon="6.65951">
        <ele>2069.83</ele>
        <time>2019-08-07T11:39:30Z</time>
      </trkpt>
      <trkpt lat="44.10502" lon="6.65922">
        <ele>2063.68</ele>
        <time>2019-08-07T11:39:36Z</time>
      </trkpt>
      <trkpt lat="44.10503" lon="6.65895">
        <ele>2055.02</ele>
        <time>2019-08-07T11:39:54Z</time>
      </trkpt>
      <trkpt lat="44.10482" lon="6.65876">
        <ele>2051.34</ele>
        <time>2019-08-07T11:40:12Z</time>
      </trkpt>
      <trkpt lat="44.10466" lon="6.65861">
        <ele>2046.57</ele>
        <time>2019-08-07T11:40:22Z</time>
      </trkpt>
      <trkpt lat="44.10455" lon="6.6584">
        <ele>2044.17</ele>
        <time>2019-08-07T11:40:28Z</time>
      </trkpt>
      <trkpt lat="44.10442" lon="6.65818">
        <ele>2044.72</ele>
        <time>2019-08-07T11:40:34Z</time>
      </trkpt>
      <trkpt lat="44.10425" lon="6.65789">
        <ele>2040.5</ele>
        <time>2019-08-07T11:40:44Z</time>
      </trkpt>
      <trkpt lat="44.10407" lon="6.65765">
        <ele>2040.31</ele>
        <time>2019-08-07T11:40:56Z</time>
      </trkpt>
      <trkpt lat="44.10387" lon="6.65738">
        <ele>2048.55</ele>
        <time>2019-08-07T11:41:02Z</time>
      </trkpt>
      <trkpt lat="44.10378" lon="6.65708">
        <ele>2059.65</ele>
        <time>2019-08-07T11:41:10Z</time>
      </trkpt>
      <trkpt lat="44.10354" lon="6.65688">
        <ele>2066.28</ele>
        <time>2019-08-07T11:41:14Z</time>
      </trkpt>
      <trkpt lat="44.10336" lon="6.65661">
        <ele>2073.37</ele>
        <time>2019-08-07T11:41:18Z</time>
      </trkpt>
      <trkpt lat="44.10324" lon="6.65641">
        <ele>2075.51</ele>
        <time>2019-08-07T11:41:20Z</time>
      </trkpt>
      <trkpt lat="44.10308" lon="6.65611">
        <ele>2079.01</ele>
        <time>2019-08-07T11:41:24Z</time>
      </trkpt>
      <trkpt lat="44.10291" lon="6.65584">
        <ele>2082.38</ele>
        <time>2019-08-07T11:41:28Z</time>
      </trkpt>
      <trkpt lat="44.1027" lon="6.6556">
        <ele>2087.95</ele>
        <time>2019-08-07T11:41:34Z</time>
      </trkpt>
      <trkpt lat="44.10254" lon="6.65543">
        <ele>2093.24</ele>
        <time>2019-08-07T11:41:40Z</time>
      </trkpt>
      <trkpt lat="44.10237" lon="6.65527">
        <ele>2097.06</ele>
        <time>2019-08-07T11:41:44Z</time>
      </trkpt>
      <trkpt lat="44.10215" lon="6.65507">
        <ele>2099.46</ele>
        <time>2019-08-07T11:41:48Z</time>
      </trkpt>
      <trkpt lat="44.10193" lon="6.65485">
        <ele>2101.92</ele>
        <time>2019-08-07T11:41:52Z</time>
      </trkpt>
      <trkpt lat="44.10181" lon="6.65465">
        <ele>2105.6</ele>
        <time>2019-08-07T11:41:56Z</time>
      </trkpt>
      <trkpt lat="44.10167" lon="6.65445">
        <ele>2108.48</ele>
        <time>2019-08-07T11:42:00Z</time>
      </trkpt>
      <trkpt lat="44.10153" lon="6.65425">
        <ele>2112.66</ele>
        <time>2019-08-07T11:42:04Z</time>
      </trkpt>
      <trkpt lat="44.10132" lon="6.65418">
        <ele>2116.77</ele>
        <time>2019-08-07T11:42:06Z</time>
      </trkpt>
      <trkpt lat="44.10111" lon="6.65405">
        <ele>2116.67</ele>
        <time>2019-08-07T11:42:08Z</time>
      </trkpt>
      <trkpt lat="44.10037" lon="6.65343">
        <ele>2112.92</ele>
        <time>2019-08-07T11:42:12Z</time>
      </trkpt>
      <trkpt lat="44.10011" lon="6.65327">
        <ele>2115.66</ele>
        <time>2019-08-07T11:42:14Z</time>
      </trkpt>
      <trkpt lat="44.09985" lon="6.65337">
        <ele>2120.21</ele>
        <time>2019-08-07T11:42:18Z</time>
      </trkpt>
      <trkpt lat="44.09965" lon="6.65344">
        <ele>2119.27</ele>
        <time>2019-08-07T11:42:22Z</time>
      </trkpt>
      <trkpt lat="44.09947" lon="6.65351">
        <ele>2115.25</ele>
        <time>2019-08-07T11:42:24Z</time>
      </trkpt>
      <trkpt lat="44.09929" lon="6.65355">
        <ele>2111.53</ele>
        <time>2019-08-07T11:42:26Z</time>
      </trkpt>
      <trkpt lat="44.09913" lon="6.65383">
        <ele>2100.89</ele>
        <time>2019-08-07T11:42:30Z</time>
      </trkpt>
      <trkpt lat="44.09908" lon="6.65411">
        <ele>2088.77</ele>
        <time>2019-08-07T11:42:34Z</time>
      </trkpt>
      <trkpt lat="44.09913" lon="6.6544">
        <ele>2087.74</ele>
        <time>2019-08-07T11:42:40Z</time>
      </trkpt>
      <trkpt lat="44.09908" lon="6.65469">
        <ele>2093.92</ele>
        <time>2019-08-07T11:42:46Z</time>
      </trkpt>
      <trkpt lat="44.09893" lon="6.65498">
        <ele>2096.43</ele>
        <time>2019-08-07T11:42:52Z</time>
      </trkpt>
      <trkpt lat="44.09884" lon="6.65522">
        <ele>2095.96</ele>
        <time>2019-08-07T11:42:56Z</time>
      </trkpt>
      <trkpt lat="44.09877" lon="6.65547">
        <ele>2096.02</ele>
        <time>2019-08-07T11:43:00Z</time>
      </trkpt>
      <trkpt lat="44.09872" lon="6.65578">
        <ele>2096.37</ele>
        <time>2019-08-07T11:43:06Z</time>
      </trkpt>
      <trkpt lat="44.0986" lon="6.65603">
        <ele>2095.53</ele>
        <time>2019-08-07T11:43:12Z</time>
      </trkpt>
      <trkpt lat="44.09852" lon="6.65631">
        <ele>2096.66</ele>
        <time>2019-08-07T11:43:16Z</time>
      </trkpt>
      <trkpt lat="44.09839" lon="6.65656">
        <ele>2098.6</ele>
        <time>2019-08-07T11:43:20Z</time>
      </trkpt>
      <trkpt lat="44.09826" lon="6.65673">
        <ele>2100.56</ele>
        <time>2019-08-07T11:43:26Z</time>
      </trkpt>
      <trkpt lat="44.09828" lon="6.65702">
        <ele>2097.25</ele>
        <time>2019-08-07T11:43:28Z</time>
      </trkpt>
      <trkpt lat="44.09825" lon="6.65732">
        <ele>2094.51</ele>
        <time>2019-08-07T11:43:30Z</time>
      </trkpt>
      <trkpt lat="44.09805" lon="6.65761">
        <ele>2096.68</ele>
        <time>2019-08-07T11:43:36Z</time>
      </trkpt>
      <trkpt lat="44.09797" lon="6.65785">
        <ele>2096.91</ele>
        <time>2019-08-07T11:43:44Z</time>
      </trkpt>
      <trkpt lat="44.09799" lon="6.6582">
        <ele>2094.72</ele>
        <time>2019-08-07T11:43:48Z</time>
      </trkpt>
      <trkpt lat="44.09799" lon="6.65845">
        <ele>2092.92</ele>
        <time>2019-08-07T11:43:52Z</time>
      </trkpt>
      <trkpt lat="44.09784" lon="6.65861">
        <ele>2097.58</ele>
        <time>2019-08-07T11:44:02Z</time>
      </trkpt>
      <trkpt lat="44.09784" lon="6.65894">
        <ele>2092.45</ele>
        <time>2019-08-07T11:44:52Z</time>
      </trkpt>
      <trkpt lat="44.09777" lon="6.6592">
        <ele>2092.7</ele>
        <time>2019-08-07T11:44:56Z</time>
      </trkpt>
      <trkpt lat="44.09763" lon="6.65937">
        <ele>2092.3</ele>
        <time>2019-08-07T11:45:02Z</time>
      </trkpt>
      <trkpt lat="44.09753" lon="6.65962">
        <ele>2087.54</ele>
        <time>2019-08-07T11:45:10Z</time>
      </trkpt>
      <trkpt lat="44.09737" lon="6.65977">
        <ele>2081.28</ele>
        <time>2019-08-07T11:45:18Z</time>
      </trkpt>
      <trkpt lat="44.09712" lon="6.65971">
        <ele>2073.49</ele>
        <time>2019-08-07T11:45:46Z</time>
      </trkpt>
      <trkpt lat="44.09693" lon="6.65974">
        <ele>2070.92</ele>
        <time>2019-08-07T11:45:58Z</time>
      </trkpt>
      <trkpt lat="44.09676" lon="6.65962">
        <ele>2068.36</ele>
        <time>2019-08-07T11:46:08Z</time>
      </trkpt>
      <trkpt lat="44.09662" lon="6.65942">
        <ele>2066.92</ele>
        <time>2019-08-07T11:46:18Z</time>
      </trkpt>
      <trkpt lat="44.09648" lon="6.65922">
        <ele>2064.09</ele>
        <time>2019-08-07T11:46:28Z</time>
      </trkpt>
      <trkpt lat="44.09638" lon="6.65897">
        <ele>2062.56</ele>
        <time>2019-08-07T11:46:56Z</time>
      </trkpt>
      <trkpt lat="44.09626" lon="6.65876">
        <ele>2062.14</ele>
        <time>2019-08-07T11:47:10Z</time>
      </trkpt>
      <trkpt lat="44.09616" lon="6.65855">
        <ele>2061.57</ele>
        <time>2019-08-07T11:47:24Z</time>
      </trkpt>
      <trkpt lat="44.09608" lon="6.6583">
        <ele>2060.89</ele>
        <time>2019-08-07T11:47:36Z</time>
      </trkpt>
      <trkpt lat="44.09592" lon="6.65808">
        <ele>2060.78</ele>
        <time>2019-08-07T11:48:44Z</time>
      </trkpt>
      <trkpt lat="44.09581" lon="6.65787">
        <ele>2058.15</ele>
        <time>2019-08-07T11:49:24Z</time>
      </trkpt>
      <trkpt lat="44.09572" lon="6.65764">
        <ele>2057.38</ele>
        <time>2019-08-07T11:49:34Z</time>
      </trkpt>
      <trkpt lat="44.09568" lon="6.65737">
        <ele>2041.26</ele>
        <time>2019-08-07T11:50:16Z</time>
      </trkpt>
      <trkpt lat="44.09563" lon="6.65712">
        <ele>2031.78</ele>
        <time>2019-08-07T11:50:28Z</time>
      </trkpt>
      <trkpt lat="44.09555" lon="6.65688">
        <ele>2014.61</ele>
        <time>2019-08-07T11:50:38Z</time>
      </trkpt>
      <trkpt lat="44.09545" lon="6.6566">
        <ele>2002.57</ele>
        <time>2019-08-07T11:50:42Z</time>
      </trkpt>
      <trkpt lat="44.09531" lon="6.65639">
        <ele>1996.31</ele>
        <time>2019-08-07T11:50:46Z</time>
      </trkpt>
      <trkpt lat="44.09512" lon="6.6562">
        <ele>1989.07</ele>
        <time>2019-08-07T11:50:52Z</time>
      </trkpt>
      <trkpt lat="44.09489" lon="6.65612">
        <ele>1983.6</ele>
        <time>2019-08-07T11:50:58Z</time>
      </trkpt>
      <trkpt lat="44.09462" lon="6.656">
        <ele>1981.1</ele>
        <time>2019-08-07T11:51:04Z</time>
      </trkpt>
      <trkpt lat="44.09443" lon="6.65596">
        <ele>1979.92</ele>
        <time>2019-08-07T11:51:08Z</time>
      </trkpt>
      <trkpt lat="44.09422" lon="6.6559">
        <ele>1976.58</ele>
        <time>2019-08-07T11:51:16Z</time>
      </trkpt>
      <trkpt lat="44.09404" lon="6.65582">
        <ele>1975.57</ele>
        <time>2019-08-07T11:51:24Z</time>
      </trkpt>
      <trkpt lat="44.09383" lon="6.65567">
        <ele>1977.38</ele>
        <time>2019-08-07T11:51:32Z</time>
      </trkpt>
      <trkpt lat="44.09365" lon="6.65556">
        <ele>1979.99</ele>
        <time>2019-08-07T11:51:40Z</time>
      </trkpt>
      <trkpt lat="44.09347" lon="6.65551">
        <ele>1982.84</ele>
        <time>2019-08-07T11:51:48Z</time>
      </trkpt>
      <trkpt lat="44.09327" lon="6.65539">
        <ele>1982.17</ele>
        <time>2019-08-07T11:51:56Z</time>
      </trkpt>
      <trkpt lat="44.09307" lon="6.65523">
        <ele>1980.08</ele>
        <time>2019-08-07T11:52:04Z</time>
      </trkpt>
      <trkpt lat="44.09286" lon="6.6551">
        <ele>1978.12</ele>
        <time>2019-08-07T11:52:12Z</time>
      </trkpt>
      <trkpt lat="44.09263" lon="6.65501">
        <ele>1977.89</ele>
        <time>2019-08-07T11:52:20Z</time>
      </trkpt>
      <trkpt lat="44.09242" lon="6.65495">
        <ele>1981.63</ele>
        <time>2019-08-07T11:52:28Z</time>
      </trkpt>
      <trkpt lat="44.09221" lon="6.65485">
        <ele>1984.85</ele>
        <time>2019-08-07T11:52:36Z</time>
      </trkpt>
      <trkpt lat="44.092" lon="6.65471">
        <ele>1986.79</ele>
        <time>2019-08-07T11:52:42Z</time>
      </trkpt>
      <trkpt lat="44.09177" lon="6.65456">
        <ele>1989.16</ele>
        <time>2019-08-07T11:52:48Z</time>
      </trkpt>
      <trkpt lat="44.09157" lon="6.65439">
        <ele>1992.22</ele>
        <time>2019-08-07T11:52:54Z</time>
      </trkpt>
      <trkpt lat="44.09138" lon="6.65418">
        <ele>1993.59</ele>
        <time>2019-08-07T11:53:00Z</time>
      </trkpt>
      <trkpt lat="44.09135" lon="6.6539">
        <ele>1994.73</ele>
        <time>2019-08-07T11:53:06Z</time>
      </trkpt>
      <trkpt lat="44.09141" lon="6.65362">
        <ele>1997.5</ele>
        <time>2019-08-07T11:53:46Z</time>
      </trkpt>
      <trkpt lat="44.09139" lon="6.65337">
        <ele>1997.6</ele>
        <time>2019-08-07T11:53:52Z</time>
      </trkpt>
      <trkpt lat="44.09143" lon="6.65307">
        <ele>1998.72</ele>
        <time>2019-08-07T11:54:00Z</time>
      </trkpt>
      <trkpt lat="44.09148" lon="6.65274">
        <ele>2001.02</ele>
        <time>2019-08-07T11:54:08Z</time>
      </trkpt>
      <trkpt lat="44.09152" lon="6.65244">
        <ele>2004.26</ele>
        <time>2019-08-07T11:54:16Z</time>
      </trkpt>
      <trkpt lat="44.09149" lon="6.65207">
        <ele>2002.61</ele>
        <time>2019-08-07T11:54:24Z</time>
      </trkpt>
      <trkpt lat="44.09153" lon="6.65178">
        <ele>1997.62</ele>
        <time>2019-08-07T11:54:30Z</time>
      </trkpt>
      <trkpt lat="44.09163" lon="6.65147">
        <ele>1996.05</ele>
        <time>2019-08-07T11:54:36Z</time>
      </trkpt>
      <trkpt lat="44.09169" lon="6.65116">
        <ele>1996.25</ele>
        <time>2019-08-07T11:54:42Z</time>
      </trkpt>
      <trkpt lat="44.0918" lon="6.65092">
        <ele>1996.63</ele>
        <time>2019-08-07T11:54:48Z</time>
      </trkpt>
      <trkpt lat="44.09178" lon="6.65059">
        <ele>1998.5</ele>
        <time>2019-08-07T11:54:58Z</time>
      </trkpt>
      <trkpt lat="44.09166" lon="6.65033">
        <ele>1998.98</ele>
        <time>2019-08-07T11:55:08Z</time>
      </trkpt>
      <trkpt lat="44.09155" lon="6.65008">
        <ele>2000.13</ele>
        <time>2019-08-07T11:55:16Z</time>
      </trkpt>
      <trkpt lat="44.09144" lon="6.64985">
        <ele>2002.26</ele>
        <time>2019-08-07T11:55:24Z</time>
      </trkpt>
      <trkpt lat="44.09137" lon="6.64961">
        <ele>2003.83</ele>
        <time>2019-08-07T11:55:32Z</time>
      </trkpt>
      <trkpt lat="44.09123" lon="6.64936">
        <ele>2007.89</ele>
        <time>2019-08-07T11:55:42Z</time>
      </trkpt>
      <trkpt lat="44.09108" lon="6.64911">
        <ele>2010.46</ele>
        <time>2019-08-07T11:55:52Z</time>
      </trkpt>
      <trkpt lat="44.09092" lon="6.64898">
        <ele>2012.12</ele>
        <time>2019-08-07T11:55:58Z</time>
      </trkpt>
      <trkpt lat="44.09077" lon="6.64881">
        <ele>2014.72</ele>
        <time>2019-08-07T11:56:06Z</time>
      </trkpt>
      <trkpt lat="44.09057" lon="6.64867">
        <ele>2017.26</ele>
        <time>2019-08-07T11:56:14Z</time>
      </trkpt>
      <trkpt lat="44.09038" lon="6.64851">
        <ele>2017.01</ele>
        <time>2019-08-07T11:56:22Z</time>
      </trkpt>
      <trkpt lat="44.09022" lon="6.64831">
        <ele>2020.01</ele>
        <time>2019-08-07T11:56:30Z</time>
      </trkpt>
      <trkpt lat="44.09009" lon="6.64813">
        <ele>2022.15</ele>
        <time>2019-08-07T11:56:36Z</time>
      </trkpt>
      <trkpt lat="44.08996" lon="6.64793">
        <ele>2022.97</ele>
        <time>2019-08-07T11:56:42Z</time>
      </trkpt>
      <trkpt lat="44.08983" lon="6.64763">
        <ele>2021.05</ele>
        <time>2019-08-07T11:56:50Z</time>
      </trkpt>
      <trkpt lat="44.08965" lon="6.64737">
        <ele>2018.68</ele>
        <time>2019-08-07T11:56:56Z</time>
      </trkpt>
      <trkpt lat="44.08955" lon="6.64706">
        <ele>2013.33</ele>
        <time>2019-08-07T11:57:02Z</time>
      </trkpt>
      <trkpt lat="44.0894" lon="6.64676">
        <ele>2012.77</ele>
        <time>2019-08-07T11:57:08Z</time>
      </trkpt>
      <trkpt lat="44.08928" lon="6.64649">
        <ele>2012.66</ele>
        <time>2019-08-07T11:57:14Z</time>
      </trkpt>
      <trkpt lat="44.08917" lon="6.64623">
        <ele>2011.56</ele>
        <time>2019-08-07T11:57:20Z</time>
      </trkpt>
      <trkpt lat="44.08905" lon="6.64603">
        <ele>2011.03</ele>
        <time>2019-08-07T11:57:24Z</time>
      </trkpt>
      <trkpt lat="44.08892" lon="6.64583">
        <ele>2011.37</ele>
        <time>2019-08-07T11:57:28Z</time>
      </trkpt>
      <trkpt lat="44.08879" lon="6.64563">
        <ele>2011.35</ele>
        <time>2019-08-07T11:57:32Z</time>
      </trkpt>
      <trkpt lat="44.0886" lon="6.64544">
        <ele>2010.55</ele>
        <time>2019-08-07T11:57:36Z</time>
      </trkpt>
      <trkpt lat="44.08846" lon="6.64523">
        <ele>2010.41</ele>
        <time>2019-08-07T11:57:40Z</time>
      </trkpt>
      <trkpt lat="44.08829" lon="6.64502">
        <ele>2010.4</ele>
        <time>2019-08-07T11:57:44Z</time>
      </trkpt>
      <trkpt lat="44.08818" lon="6.64475">
        <ele>2008.98</ele>
        <time>2019-08-07T11:57:48Z</time>
      </trkpt>
      <trkpt lat="44.08801" lon="6.64453">
        <ele>2007.67</ele>
        <time>2019-08-07T11:57:52Z</time>
      </trkpt>
      <trkpt lat="44.08783" lon="6.64428">
        <ele>2005.96</ele>
        <time>2019-08-07T11:57:56Z</time>
      </trkpt>
      <trkpt lat="44.08763" lon="6.64402">
        <ele>2004.21</ele>
        <time>2019-08-07T11:58:00Z</time>
      </trkpt>
      <trkpt lat="44.08747" lon="6.64379">
        <ele>2002.02</ele>
        <time>2019-08-07T11:58:04Z</time>
      </trkpt>
      <trkpt lat="44.08732" lon="6.64362">
        <ele>2001.34</ele>
        <time>2019-08-07T12:04:02Z</time>
      </trkpt>
      <trkpt lat="44.08707" lon="6.64346">
        <ele>2000.05</ele>
        <time>2019-08-07T12:04:08Z</time>
      </trkpt>
      <trkpt lat="44.0869" lon="6.64328">
        <ele>1997.84</ele>
        <time>2019-08-07T12:04:12Z</time>
      </trkpt>
      <trkpt lat="44.08665" lon="6.64323">
        <ele>1994.99</ele>
        <time>2019-08-07T12:04:16Z</time>
      </trkpt>
      <trkpt lat="44.08642" lon="6.64322">
        <ele>1991.5</ele>
        <time>2019-08-07T12:04:22Z</time>
      </trkpt>
      <trkpt lat="44.08623" lon="6.64311">
        <ele>1989.21</ele>
        <time>2019-08-07T12:04:26Z</time>
      </trkpt>
      <trkpt lat="44.08607" lon="6.64298">
        <ele>1987.32</ele>
        <time>2019-08-07T12:04:30Z</time>
      </trkpt>
      <trkpt lat="44.08584" lon="6.64286">
        <ele>1984.38</ele>
        <time>2019-08-07T12:04:36Z</time>
      </trkpt>
      <trkpt lat="44.08565" lon="6.64267">
        <ele>1981.42</ele>
        <time>2019-08-07T12:04:42Z</time>
      </trkpt>
      <trkpt lat="44.08545" lon="6.64246">
        <ele>1976.6</ele>
        <time>2019-08-07T12:04:48Z</time>
      </trkpt>
      <trkpt lat="44.08528" lon="6.64232">
        <ele>1972.79</ele>
        <time>2019-08-07T12:04:56Z</time>
      </trkpt>
      <trkpt lat="44.08515" lon="6.64211">
        <ele>1969.11</ele>
        <time>2019-08-07T12:05:06Z</time>
      </trkpt>
      <trkpt lat="44.08511" lon="6.64186">
        <ele>1966.06</ele>
        <time>2019-08-07T12:05:20Z</time>
      </trkpt>
      <trkpt lat="44.08498" lon="6.64163">
        <ele>1964.2</ele>
        <time>2019-08-07T12:05:28Z</time>
      </trkpt>
      <trkpt lat="44.08482" lon="6.64176">
        <ele>1959.93</ele>
        <time>2019-08-07T12:05:36Z</time>
      </trkpt>
      <trkpt lat="44.08464" lon="6.64181">
        <ele>1955.54</ele>
        <time>2019-08-07T12:05:46Z</time>
      </trkpt>
      <trkpt lat="44.08441" lon="6.64185">
        <ele>1954.73</ele>
        <time>2019-08-07T12:06:04Z</time>
      </trkpt>
      <trkpt lat="44.08423" lon="6.64186">
        <ele>1954.59</ele>
        <time>2019-08-07T12:06:08Z</time>
      </trkpt>
      <trkpt lat="44.084" lon="6.64177">
        <ele>1953.74</ele>
        <time>2019-08-07T12:06:14Z</time>
      </trkpt>
      <trkpt lat="44.08379" lon="6.64172">
        <ele>1953.04</ele>
        <time>2019-08-07T12:06:20Z</time>
      </trkpt>
      <trkpt lat="44.08356" lon="6.64169">
        <ele>1951.46</ele>
        <time>2019-08-07T12:06:26Z</time>
      </trkpt>
      <trkpt lat="44.08335" lon="6.64181">
        <ele>1949.48</ele>
        <time>2019-08-07T12:06:34Z</time>
      </trkpt>
      <trkpt lat="44.08312" lon="6.64181">
        <ele>1948.42</ele>
        <time>2019-08-07T12:06:42Z</time>
      </trkpt>
      <trkpt lat="44.0829" lon="6.64182">
        <ele>1948.31</ele>
        <time>2019-08-07T12:06:48Z</time>
      </trkpt>
      <trkpt lat="44.08269" lon="6.6418">
        <ele>1948.5</ele>
        <time>2019-08-07T12:06:54Z</time>
      </trkpt>
      <trkpt lat="44.08252" lon="6.64173">
        <ele>1948.72</ele>
        <time>2019-08-07T12:06:58Z</time>
      </trkpt>
      <trkpt lat="44.08233" lon="6.64164">
        <ele>1951.17</ele>
        <time>2019-08-07T12:07:04Z</time>
      </trkpt>
      <trkpt lat="44.08223" lon="6.64137">
        <ele>1956.33</ele>
        <time>2019-08-07T12:07:12Z</time>
      </trkpt>
      <trkpt lat="44.08199" lon="6.64127">
        <ele>1966.52</ele>
        <time>2019-08-07T12:07:50Z</time>
      </trkpt>
      <trkpt lat="44.08179" lon="6.64121">
        <ele>1967.42</ele>
        <time>2019-08-07T12:08:00Z</time>
      </trkpt>
      <trkpt lat="44.08158" lon="6.64128">
        <ele>1967.88</ele>
        <time>2019-08-07T12:08:08Z</time>
      </trkpt>
      <trkpt lat="44.0814" lon="6.6413">
        <ele>1971.83</ele>
        <time>2019-08-07T12:08:24Z</time>
      </trkpt>
      <trkpt lat="44.08118" lon="6.64133">
        <ele>1974.12</ele>
        <time>2019-08-07T12:09:06Z</time>
      </trkpt>
      <trkpt lat="44.08097" lon="6.64128">
        <ele>1977.78</ele>
        <time>2019-08-07T12:10:16Z</time>
      </trkpt>
      <trkpt lat="44.08078" lon="6.64125">
        <ele>1981.54</ele>
        <time>2019-08-07T12:10:44Z</time>
      </trkpt>
      <trkpt lat="44.08063" lon="6.6411">
        <ele>1989.96</ele>
        <time>2019-08-07T12:12:36Z</time>
      </trkpt>
      <trkpt lat="44.08059" lon="6.64082">
        <ele>1990.18</ele>
        <time>2019-08-07T12:12:40Z</time>
      </trkpt>
      <trkpt lat="44.0805" lon="6.64056">
        <ele>1989.37</ele>
        <time>2019-08-07T12:12:44Z</time>
      </trkpt>
      <trkpt lat="44.08035" lon="6.64035">
        <ele>1988.53</ele>
        <time>2019-08-07T12:12:48Z</time>
      </trkpt>
      <trkpt lat="44.08023" lon="6.64017">
        <ele>1987.8</ele>
        <time>2019-08-07T12:12:52Z</time>
      </trkpt>
      <trkpt lat="44.08008" lon="6.64001">
        <ele>1985.92</ele>
        <time>2019-08-07T12:12:58Z</time>
      </trkpt>
      <trkpt lat="44.07994" lon="6.63982">
        <ele>1981.05</ele>
        <time>2019-08-07T12:13:18Z</time>
      </trkpt>
      <trkpt lat="44.0798" lon="6.63959">
        <ele>1982.22</ele>
        <time>2019-08-07T12:13:30Z</time>
      </trkpt>
      <trkpt lat="44.07961" lon="6.63937">
        <ele>1981.25</ele>
        <time>2019-08-07T12:13:38Z</time>
      </trkpt>
      <trkpt lat="44.07938" lon="6.63927">
        <ele>1976.08</ele>
        <time>2019-08-07T12:13:46Z</time>
      </trkpt>
      <trkpt lat="44.0792" lon="6.63921">
        <ele>1973.62</ele>
        <time>2019-08-07T12:13:50Z</time>
      </trkpt>
      <trkpt lat="44.07899" lon="6.63916">
        <ele>1968.43</ele>
        <time>2019-08-07T12:13:54Z</time>
      </trkpt>
      <trkpt lat="44.07878" lon="6.63911">
        <ele>1965.5</ele>
        <time>2019-08-07T12:13:58Z</time>
      </trkpt>
      <trkpt lat="44.0786" lon="6.63897">
        <ele>1963.5</ele>
        <time>2019-08-07T12:14:02Z</time>
      </trkpt>
      <trkpt lat="44.07844" lon="6.63885">
        <ele>1960.15</ele>
        <time>2019-08-07T12:14:06Z</time>
      </trkpt>
      <trkpt lat="44.07827" lon="6.63873">
        <ele>1955.57</ele>
        <time>2019-08-07T12:14:16Z</time>
      </trkpt>
      <trkpt lat="44.07806" lon="6.63865">
        <ele>1952.96</ele>
        <time>2019-08-07T12:14:22Z</time>
      </trkpt>
      <trkpt lat="44.07785" lon="6.63857">
        <ele>1949.94</ele>
        <time>2019-08-07T12:14:26Z</time>
      </trkpt>
      <trkpt lat="44.07769" lon="6.63845">
        <ele>1949</ele>
        <time>2019-08-07T12:14:34Z</time>
      </trkpt>
      <trkpt lat="44.07749" lon="6.63836">
        <ele>1947.23</ele>
        <time>2019-08-07T12:14:42Z</time>
      </trkpt>
      <trkpt lat="44.07732" lon="6.63825">
        <ele>1945.85</ele>
        <time>2019-08-07T12:14:50Z</time>
      </trkpt>
      <trkpt lat="44.07717" lon="6.63811">
        <ele>1942.73</ele>
        <time>2019-08-07T12:15:00Z</time>
      </trkpt>
      <trkpt lat="44.07712" lon="6.63787">
        <ele>1943.08</ele>
        <time>2019-08-07T12:15:08Z</time>
      </trkpt>
      <trkpt lat="44.07694" lon="6.63775">
        <ele>1943.71</ele>
        <time>2019-08-07T12:15:14Z</time>
      </trkpt>
      <trkpt lat="44.07679" lon="6.6376">
        <ele>1942.94</ele>
        <time>2019-08-07T12:15:18Z</time>
      </trkpt>
      <trkpt lat="44.07667" lon="6.63737">
        <ele>1939.53</ele>
        <time>2019-08-07T12:15:24Z</time>
      </trkpt>
      <trkpt lat="44.07663" lon="6.63711">
        <ele>1923.84</ele>
        <time>2019-08-07T12:15:34Z</time>
      </trkpt>
      <trkpt lat="44.07665" lon="6.63679">
        <ele>1920.13</ele>
        <time>2019-08-07T12:15:38Z</time>
      </trkpt>
      <trkpt lat="44.07652" lon="6.63655">
        <ele>1914.75</ele>
        <time>2019-08-07T12:15:44Z</time>
      </trkpt>
      <trkpt lat="44.07638" lon="6.63635">
        <ele>1909.67</ele>
        <time>2019-08-07T12:15:48Z</time>
      </trkpt>
      <trkpt lat="44.07618" lon="6.63612">
        <ele>1904.3</ele>
        <time>2019-08-07T12:15:54Z</time>
      </trkpt>
      <trkpt lat="44.07601" lon="6.63598">
        <ele>1899.54</ele>
        <time>2019-08-07T12:16:00Z</time>
      </trkpt>
      <trkpt lat="44.07582" lon="6.63592">
        <ele>1896.14</ele>
        <time>2019-08-07T12:16:06Z</time>
      </trkpt>
      <trkpt lat="44.07564" lon="6.63585">
        <ele>1894.67</ele>
        <time>2019-08-07T12:16:16Z</time>
      </trkpt>
      <trkpt lat="44.07546" lon="6.63579">
        <ele>1896.76</ele>
        <time>2019-08-07T12:16:30Z</time>
      </trkpt>
      <trkpt lat="44.07529" lon="6.63562">
        <ele>1898.5</ele>
        <time>2019-08-07T12:16:46Z</time>
      </trkpt>
      <trkpt lat="44.07515" lon="6.63543">
        <ele>1897.04</ele>
        <time>2019-08-07T12:16:52Z</time>
      </trkpt>
      <trkpt lat="44.07502" lon="6.63518">
        <ele>1893.72</ele>
        <time>2019-08-07T12:17:06Z</time>
      </trkpt>
      <trkpt lat="44.07491" lon="6.63498">
        <ele>1891.99</ele>
        <time>2019-08-07T12:17:18Z</time>
      </trkpt>
      <trkpt lat="44.07476" lon="6.63478">
        <ele>1889.63</ele>
        <time>2019-08-07T12:17:32Z</time>
      </trkpt>
      <trkpt lat="44.07458" lon="6.63475">
        <ele>1889.08</ele>
        <time>2019-08-07T12:17:40Z</time>
      </trkpt>
      <trkpt lat="44.0744" lon="6.63463">
        <ele>1888.1</ele>
        <time>2019-08-07T12:17:48Z</time>
      </trkpt>
      <trkpt lat="44.07423" lon="6.63455">
        <ele>1884.72</ele>
        <time>2019-08-07T12:17:54Z</time>
      </trkpt>
      <trkpt lat="44.07399" lon="6.63447">
        <ele>1880.17</ele>
        <time>2019-08-07T12:17:58Z</time>
      </trkpt>
      <trkpt lat="44.07389" lon="6.63425">
        <ele>1866.77</ele>
        <time>2019-08-07T12:18:06Z</time>
      </trkpt>
      <trkpt lat="44.07369" lon="6.63412">
        <ele>1860.45</ele>
        <time>2019-08-07T12:18:36Z</time>
      </trkpt>
      <trkpt lat="44.07348" lon="6.63404">
        <ele>1853.91</ele>
        <time>2019-08-07T12:18:46Z</time>
      </trkpt>
      <trkpt lat="44.07331" lon="6.63386">
        <ele>1844.65</ele>
        <time>2019-08-07T12:19:02Z</time>
      </trkpt>
      <trkpt lat="44.0732" lon="6.63363">
        <ele>1840.55</ele>
        <time>2019-08-07T12:19:14Z</time>
      </trkpt>
      <trkpt lat="44.07324" lon="6.63338">
        <ele>1838.11</ele>
        <time>2019-08-07T12:19:24Z</time>
      </trkpt>
      <trkpt lat="44.07315" lon="6.63314">
        <ele>1832.02</ele>
        <time>2019-08-07T12:19:42Z</time>
      </trkpt>
      <trkpt lat="44.073" lon="6.63297">
        <ele>1829.26</ele>
        <time>2019-08-07T12:19:50Z</time>
      </trkpt>
      <trkpt lat="44.07289" lon="6.63276">
        <ele>1827.07</ele>
        <time>2019-08-07T12:19:56Z</time>
      </trkpt>
      <trkpt lat="44.07285" lon="6.63248">
        <ele>1823.42</ele>
        <time>2019-08-07T12:20:06Z</time>
      </trkpt>
      <trkpt lat="44.07278" lon="6.63218">
        <ele>1812.57</ele>
        <time>2019-08-07T12:20:18Z</time>
      </trkpt>
      <trkpt lat="44.07258" lon="6.63205">
        <ele>1810.05</ele>
        <time>2019-08-07T12:20:28Z</time>
      </trkpt>
      <trkpt lat="44.07241" lon="6.63189">
        <ele>1807.77</ele>
        <time>2019-08-07T12:20:36Z</time>
      </trkpt>
      <trkpt lat="44.0723" lon="6.63163">
        <ele>1807.84</ele>
        <time>2019-08-07T12:20:46Z</time>
      </trkpt>
      <trkpt lat="44.07217" lon="6.63137">
        <ele>1811.32</ele>
        <time>2019-08-07T12:20:52Z</time>
      </trkpt>
      <trkpt lat="44.07209" lon="6.63109">
        <ele>1804.71</ele>
        <time>2019-08-07T12:20:58Z</time>
      </trkpt>
      <trkpt lat="44.07192" lon="6.63093">
        <ele>1800.38</ele>
        <time>2019-08-07T12:21:08Z</time>
      </trkpt>
      <trkpt lat="44.07175" lon="6.63074">
        <ele>1794.09</ele>
        <time>2019-08-07T12:21:16Z</time>
      </trkpt>
      <trkpt lat="44.07165" lon="6.6305">
        <ele>1789.41</ele>
        <time>2019-08-07T12:21:24Z</time>
      </trkpt>
      <trkpt lat="44.07153" lon="6.6303">
        <ele>1785.24</ele>
        <time>2019-08-07T12:21:32Z</time>
      </trkpt>
      <trkpt lat="44.07136" lon="6.63008">
        <ele>1782.1</ele>
        <time>2019-08-07T12:21:42Z</time>
      </trkpt>
      <trkpt lat="44.07115" lon="6.63004">
        <ele>1782.13</ele>
        <time>2019-08-07T12:21:48Z</time>
      </trkpt>
      <trkpt lat="44.07101" lon="6.62984">
        <ele>1782.39</ele>
        <time>2019-08-07T12:21:56Z</time>
      </trkpt>
      <trkpt lat="44.07084" lon="6.62968">
        <ele>1781.11</ele>
        <time>2019-08-07T12:22:04Z</time>
      </trkpt>
      <trkpt lat="44.07064" lon="6.62946">
        <ele>1780.57</ele>
        <time>2019-08-07T12:22:14Z</time>
      </trkpt>
      <trkpt lat="44.07049" lon="6.6293">
        <ele>1780.6</ele>
        <time>2019-08-07T12:22:20Z</time>
      </trkpt>
      <trkpt lat="44.07031" lon="6.62918">
        <ele>1782.04</ele>
        <time>2019-08-07T12:22:26Z</time>
      </trkpt>
      <trkpt lat="44.07016" lon="6.62903">
        <ele>1785.46</ele>
        <time>2019-08-07T12:22:32Z</time>
      </trkpt>
      <trkpt lat="44.06999" lon="6.6288">
        <ele>1788.1</ele>
        <time>2019-08-07T12:22:38Z</time>
      </trkpt>
      <trkpt lat="44.06987" lon="6.62861">
        <ele>1789.2</ele>
        <time>2019-08-07T12:22:44Z</time>
      </trkpt>
      <trkpt lat="44.06974" lon="6.62835">
        <ele>1783.17</ele>
        <time>2019-08-07T12:23:00Z</time>
      </trkpt>
      <trkpt lat="44.06957" lon="6.62811">
        <ele>1783</ele>
        <time>2019-08-07T12:23:08Z</time>
      </trkpt>
      <trkpt lat="44.06938" lon="6.6279">
        <ele>1786.44</ele>
        <time>2019-08-07T12:23:16Z</time>
      </trkpt>
      <trkpt lat="44.06914" lon="6.62767">
        <ele>1788.82</ele>
        <time>2019-08-07T12:23:22Z</time>
      </trkpt>
      <trkpt lat="44.06896" lon="6.62753">
        <ele>1790.17</ele>
        <time>2019-08-07T12:23:26Z</time>
      </trkpt>
      <trkpt lat="44.06879" lon="6.62733">
        <ele>1795.27</ele>
        <time>2019-08-07T12:23:32Z</time>
      </trkpt>
      <trkpt lat="44.0686" lon="6.62706">
        <ele>1800.88</ele>
        <time>2019-08-07T12:23:38Z</time>
      </trkpt>
      <trkpt lat="44.06846" lon="6.62688">
        <ele>1804.45</ele>
        <time>2019-08-07T12:23:42Z</time>
      </trkpt>
      <trkpt lat="44.06825" lon="6.62662">
        <ele>1808.69</ele>
        <time>2019-08-07T12:23:48Z</time>
      </trkpt>
      <trkpt lat="44.06812" lon="6.62641">
        <ele>1812.51</ele>
        <time>2019-08-07T12:23:52Z</time>
      </trkpt>
      <trkpt lat="44.06809" lon="6.62615">
        <ele>1813.63</ele>
        <time>2019-08-07T12:23:56Z</time>
      </trkpt>
      <trkpt lat="44.06811" lon="6.62588">
        <ele>1821.3</ele>
        <time>2019-08-07T12:24:06Z</time>
      </trkpt>
      <trkpt lat="44.06818" lon="6.62561">
        <ele>1830.68</ele>
        <time>2019-08-07T12:24:16Z</time>
      </trkpt>
      <trkpt lat="44.06837" lon="6.62555">
        <ele>1825.13</ele>
        <time>2019-08-07T12:24:20Z</time>
      </trkpt>
      <trkpt lat="44.0684" lon="6.62523">
        <ele>1822.97</ele>
        <time>2019-08-07T12:24:24Z</time>
      </trkpt>
      <trkpt lat="44.0683" lon="6.625">
        <ele>1821.68</ele>
        <time>2019-08-07T12:24:30Z</time>
      </trkpt>
      <trkpt lat="44.06825" lon="6.62475">
        <ele>1816.79</ele>
        <time>2019-08-07T12:24:38Z</time>
      </trkpt>
      <trkpt lat="44.0681" lon="6.62456">
        <ele>1812.47</ele>
        <time>2019-08-07T12:24:44Z</time>
      </trkpt>
      <trkpt lat="44.06691" lon="6.62462">
        <ele>1818.53</ele>
        <time>2019-08-07T12:24:46Z</time>
      </trkpt>
      <trkpt lat="44.06678" lon="6.62428">
        <ele>1799.49</ele>
        <time>2019-08-07T12:24:48Z</time>
      </trkpt>
      <trkpt lat="44.06681" lon="6.62394">
        <ele>1743.78</ele>
        <time>2019-08-07T12:24:58Z</time>
      </trkpt>
      <trkpt lat="44.06681" lon="6.6236">
        <ele>1709.44</ele>
        <time>2019-08-07T12:25:06Z</time>
      </trkpt>
      <trkpt lat="44.067" lon="6.6233">
        <ele>1671.24</ele>
        <time>2019-08-07T12:25:10Z</time>
      </trkpt>
      <trkpt lat="44.06708" lon="6.62302">
        <ele>1637.04</ele>
        <time>2019-08-07T12:25:20Z</time>
      </trkpt>
      <trkpt lat="44.06712" lon="6.62276">
        <ele>1617.34</ele>
        <time>2019-08-07T12:25:30Z</time>
      </trkpt>
      <trkpt lat="44.0671" lon="6.62248">
        <ele>1602.91</ele>
        <time>2019-08-07T12:25:38Z</time>
      </trkpt>
      <trkpt lat="44.0672" lon="6.62222">
        <ele>1597.43</ele>
        <time>2019-08-07T12:25:48Z</time>
      </trkpt>
      <trkpt lat="44.0671" lon="6.62195">
        <ele>1591.04</ele>
        <time>2019-08-07T12:25:56Z</time>
      </trkpt>
      <trkpt lat="44.06692" lon="6.62184">
        <ele>1585.91</ele>
        <time>2019-08-07T12:26:06Z</time>
      </trkpt>
      <trkpt lat="44.06692" lon="6.62158">
        <ele>1567.74</ele>
        <time>2019-08-07T12:26:58Z</time>
      </trkpt>
      <trkpt lat="44.06702" lon="6.62134">
        <ele>1558.87</ele>
        <time>2019-08-07T12:27:06Z</time>
      </trkpt>
      <trkpt lat="44.06709" lon="6.62105">
        <ele>1548.26</ele>
        <time>2019-08-07T12:27:14Z</time>
      </trkpt>
      <trkpt lat="44.06722" lon="6.62085">
        <ele>1541.17</ele>
        <time>2019-08-07T12:27:20Z</time>
      </trkpt>
      <trkpt lat="44.0674" lon="6.62069">
        <ele>1528.45</ele>
        <time>2019-08-07T12:27:28Z</time>
      </trkpt>
      <trkpt lat="44.06759" lon="6.62056">
        <ele>1518.58</ele>
        <time>2019-08-07T12:27:34Z</time>
      </trkpt>
      <trkpt lat="44.06774" lon="6.62042">
        <ele>1506.21</ele>
        <time>2019-08-07T12:27:44Z</time>
      </trkpt>
      <trkpt lat="44.06782" lon="6.62019">
        <ele>1503.95</ele>
        <time>2019-08-07T12:28:18Z</time>
      </trkpt>
      <trkpt lat="44.06777" lon="6.61991">
        <ele>1502.9</ele>
        <time>2019-08-07T12:28:34Z</time>
      </trkpt>
      <trkpt lat="44.06761" lon="6.6197">
        <ele>1501.98</ele>
        <time>2019-08-07T12:28:38Z</time>
      </trkpt>
      <trkpt lat="44.06745" lon="6.61956">
        <ele>1494.87</ele>
        <time>2019-08-07T12:28:48Z</time>
      </trkpt>
      <trkpt lat="44.06733" lon="6.61935">
        <ele>1492.2</ele>
        <time>2019-08-07T12:28:56Z</time>
      </trkpt>
      <trkpt lat="44.06732" lon="6.619">
        <ele>1489.4</ele>
        <time>2019-08-07T12:29:02Z</time>
      </trkpt>
      <trkpt lat="44.06729" lon="6.61873">
        <ele>1489.55</ele>
        <time>2019-08-07T12:29:16Z</time>
      </trkpt>
      <trkpt lat="44.06718" lon="6.61848">
        <ele>1489.22</ele>
        <time>2019-08-07T12:29:22Z</time>
      </trkpt>
      <trkpt lat="44.06728" lon="6.61822">
        <ele>1488.74</ele>
        <time>2019-08-07T12:29:48Z</time>
      </trkpt>
      <trkpt lat="44.06727" lon="6.61791">
        <ele>1489.75</ele>
        <time>2019-08-07T12:29:58Z</time>
      </trkpt>
      <trkpt lat="44.06725" lon="6.61765">
        <ele>1489.68</ele>
        <time>2019-08-07T12:30:04Z</time>
      </trkpt>
      <trkpt lat="44.06747" lon="6.61744">
        <ele>1490.23</ele>
        <time>2019-08-07T12:30:14Z</time>
      </trkpt>
      <trkpt lat="44.06767" lon="6.6173">
        <ele>1490.36</ele>
        <time>2019-08-07T12:30:20Z</time>
      </trkpt>
      <trkpt lat="44.06774" lon="6.61706">
        <ele>1490.2</ele>
        <time>2019-08-07T12:30:24Z</time>
      </trkpt>
      <trkpt lat="44.0679" lon="6.61686">
        <ele>1487.78</ele>
        <time>2019-08-07T12:30:32Z</time>
      </trkpt>
      <trkpt lat="44.06805" lon="6.61671">
        <ele>1486.16</ele>
        <time>2019-08-07T12:30:40Z</time>
      </trkpt>
      <trkpt lat="44.06819" lon="6.61651">
        <ele>1489.52</ele>
        <time>2019-08-07T12:30:48Z</time>
      </trkpt>
      <trkpt lat="44.06833" lon="6.6163">
        <ele>1489.87</ele>
        <time>2019-08-07T12:30:54Z</time>
      </trkpt>
      <trkpt lat="44.06845" lon="6.61607">
        <ele>1488.27</ele>
        <time>2019-08-07T12:31:00Z</time>
      </trkpt>
      <trkpt lat="44.0686" lon="6.61586">
        <ele>1485</ele>
        <time>2019-08-07T12:31:06Z</time>
      </trkpt>
      <trkpt lat="44.06873" lon="6.61567">
        <ele>1484.33</ele>
        <time>2019-08-07T12:31:12Z</time>
      </trkpt>
      <trkpt lat="44.06887" lon="6.6154">
        <ele>1484.49</ele>
        <time>2019-08-07T12:31:20Z</time>
      </trkpt>
      <trkpt lat="44.06893" lon="6.61506">
        <ele>1486.25</ele>
        <time>2019-08-07T12:31:26Z</time>
      </trkpt>
      <trkpt lat="44.06902" lon="6.61474">
        <ele>1488.15</ele>
        <time>2019-08-07T12:31:32Z</time>
      </trkpt>
      <trkpt lat="44.0691" lon="6.61446">
        <ele>1490.4</ele>
        <time>2019-08-07T12:31:38Z</time>
      </trkpt>
      <trkpt lat="44.06913" lon="6.61416">
        <ele>1490.64</ele>
        <time>2019-08-07T12:31:44Z</time>
      </trkpt>
      <trkpt lat="44.06912" lon="6.61388">
        <ele>1488.69</ele>
        <time>2019-08-07T12:31:50Z</time>
      </trkpt>
      <trkpt lat="44.06923" lon="6.61367">
        <ele>1487.08</ele>
        <time>2019-08-07T12:31:56Z</time>
      </trkpt>
      <trkpt lat="44.06946" lon="6.61352">
        <ele>1481.75</ele>
        <time>2019-08-07T12:32:02Z</time>
      </trkpt>
      <trkpt lat="44.06965" lon="6.61345">
        <ele>1480.27</ele>
        <time>2019-08-07T12:32:06Z</time>
      </trkpt>
      <trkpt lat="44.06992" lon="6.61345">
        <ele>1477.95</ele>
        <time>2019-08-07T12:32:12Z</time>
      </trkpt>
      <trkpt lat="44.07011" lon="6.61355">
        <ele>1476.32</ele>
        <time>2019-08-07T12:32:16Z</time>
      </trkpt>
      <trkpt lat="44.07032" lon="6.61351">
        <ele>1474.43</ele>
        <time>2019-08-07T12:32:20Z</time>
      </trkpt>
      <trkpt lat="44.07044" lon="6.61325">
        <ele>1472.93</ele>
        <time>2019-08-07T12:32:24Z</time>
      </trkpt>
      <trkpt lat="44.07062" lon="6.61299">
        <ele>1472.57</ele>
        <time>2019-08-07T12:32:28Z</time>
      </trkpt>
      <trkpt lat="44.07081" lon="6.61285">
        <ele>1472.25</ele>
        <time>2019-08-07T12:32:32Z</time>
      </trkpt>
      <trkpt lat="44.07103" lon="6.61272">
        <ele>1473.69</ele>
        <time>2019-08-07T12:32:36Z</time>
      </trkpt>
      <trkpt lat="44.07127" lon="6.61259">
        <ele>1475.27</ele>
        <time>2019-08-07T12:32:40Z</time>
      </trkpt>
      <trkpt lat="44.0715" lon="6.61247">
        <ele>1475.9</ele>
        <time>2019-08-07T12:32:44Z</time>
      </trkpt>
      <trkpt lat="44.07174" lon="6.61231">
        <ele>1475.72</ele>
        <time>2019-08-07T12:32:48Z</time>
      </trkpt>
      <trkpt lat="44.07199" lon="6.61215">
        <ele>1475.96</ele>
        <time>2019-08-07T12:32:52Z</time>
      </trkpt>
      <trkpt lat="44.07225" lon="6.61202">
        <ele>1475.68</ele>
        <time>2019-08-07T12:32:56Z</time>
      </trkpt>
      <trkpt lat="44.0725" lon="6.61186">
        <ele>1474.33</ele>
        <time>2019-08-07T12:33:00Z</time>
      </trkpt>
      <trkpt lat="44.07275" lon="6.61174">
        <ele>1472.05</ele>
        <time>2019-08-07T12:33:04Z</time>
      </trkpt>
      <trkpt lat="44.07295" lon="6.61164">
        <ele>1469.24</ele>
        <time>2019-08-07T12:33:08Z</time>
      </trkpt>
      <trkpt lat="44.07309" lon="6.61145">
        <ele>1467.88</ele>
        <time>2019-08-07T12:33:12Z</time>
      </trkpt>
      <trkpt lat="44.07322" lon="6.61112">
        <ele>1467.63</ele>
        <time>2019-08-07T12:33:18Z</time>
      </trkpt>
      <trkpt lat="44.07316" lon="6.61087">
        <ele>1463.33</ele>
        <time>2019-08-07T12:33:24Z</time>
      </trkpt>
      <trkpt lat="44.07293" lon="6.61087">
        <ele>1460.45</ele>
        <time>2019-08-07T12:33:30Z</time>
      </trkpt>
      <trkpt lat="44.07273" lon="6.61081">
        <ele>1458.52</ele>
        <time>2019-08-07T12:33:36Z</time>
      </trkpt>
      <trkpt lat="44.07252" lon="6.61069">
        <ele>1456.34</ele>
        <time>2019-08-07T12:33:42Z</time>
      </trkpt>
      <trkpt lat="44.0723" lon="6.61053">
        <ele>1462.51</ele>
        <time>2019-08-07T12:33:48Z</time>
      </trkpt>
      <trkpt lat="44.07212" lon="6.61036">
        <ele>1466.55</ele>
        <time>2019-08-07T12:33:54Z</time>
      </trkpt>
      <trkpt lat="44.07193" lon="6.61018">
        <ele>1469.28</ele>
        <time>2019-08-07T12:34:00Z</time>
      </trkpt>
      <trkpt lat="44.07177" lon="6.61003">
        <ele>1472.13</ele>
        <time>2019-08-07T12:34:06Z</time>
      </trkpt>
      <trkpt lat="44.07156" lon="6.60993">
        <ele>1475.86</ele>
        <time>2019-08-07T12:34:12Z</time>
      </trkpt>
      <trkpt lat="44.07136" lon="6.60981">
        <ele>1472.79</ele>
        <time>2019-08-07T12:34:18Z</time>
      </trkpt>
      <trkpt lat="44.07113" lon="6.60978">
        <ele>1471.02</ele>
        <time>2019-08-07T12:34:24Z</time>
      </trkpt>
      <trkpt lat="44.0709" lon="6.60974">
        <ele>1470.22</ele>
        <time>2019-08-07T12:34:30Z</time>
      </trkpt>
      <trkpt lat="44.07073" lon="6.60963">
        <ele>1471.96</ele>
        <time>2019-08-07T12:34:36Z</time>
      </trkpt>
      <trkpt lat="44.07067" lon="6.60938">
        <ele>1472.52</ele>
        <time>2019-08-07T12:34:42Z</time>
      </trkpt>
      <trkpt lat="44.07078" lon="6.60915">
        <ele>1473.23</ele>
        <time>2019-08-07T12:34:48Z</time>
      </trkpt>
      <trkpt lat="44.0709" lon="6.6089">
        <ele>1473.88</ele>
        <time>2019-08-07T12:34:54Z</time>
      </trkpt>
      <trkpt lat="44.07103" lon="6.60869">
        <ele>1475.89</ele>
        <time>2019-08-07T12:35:00Z</time>
      </trkpt>
      <trkpt lat="44.07113" lon="6.60841">
        <ele>1478.51</ele>
        <time>2019-08-07T12:35:08Z</time>
      </trkpt>
      <trkpt lat="44.07111" lon="6.60813">
        <ele>1483.7</ele>
        <time>2019-08-07T12:35:16Z</time>
      </trkpt>
      <trkpt lat="44.07102" lon="6.60785">
        <ele>1489.68</ele>
        <time>2019-08-07T12:35:24Z</time>
      </trkpt>
      <trkpt lat="44.07092" lon="6.6076">
        <ele>1494.83</ele>
        <time>2019-08-07T12:35:32Z</time>
      </trkpt>
      <trkpt lat="44.07084" lon="6.60733">
        <ele>1498</ele>
        <time>2019-08-07T12:35:40Z</time>
      </trkpt>
      <trkpt lat="44.07073" lon="6.60707">
        <ele>1500.98</ele>
        <time>2019-08-07T12:35:48Z</time>
      </trkpt>
      <trkpt lat="44.07065" lon="6.60678">
        <ele>1503.17</ele>
        <time>2019-08-07T12:35:54Z</time>
      </trkpt>
      <trkpt lat="44.07058" lon="6.60649">
        <ele>1506.13</ele>
        <time>2019-08-07T12:36:02Z</time>
      </trkpt>
      <trkpt lat="44.07049" lon="6.60622">
        <ele>1510.32</ele>
        <time>2019-08-07T12:36:12Z</time>
      </trkpt>
      <trkpt lat="44.07035" lon="6.60606">
        <ele>1512.68</ele>
        <time>2019-08-07T12:36:20Z</time>
      </trkpt>
      <trkpt lat="44.0702" lon="6.60591">
        <ele>1514.87</ele>
        <time>2019-08-07T12:36:26Z</time>
      </trkpt>
      <trkpt lat="44.07002" lon="6.60573">
        <ele>1519.09</ele>
        <time>2019-08-07T12:36:34Z</time>
      </trkpt>
      <trkpt lat="44.06988" lon="6.60546">
        <ele>1521.99</ele>
        <time>2019-08-07T12:36:42Z</time>
      </trkpt>
      <trkpt lat="44.0698" lon="6.60524">
        <ele>1526.09</ele>
        <time>2019-08-07T12:36:48Z</time>
      </trkpt>
      <trkpt lat="44.0697" lon="6.605">
        <ele>1528.46</ele>
        <time>2019-08-07T12:37:20Z</time>
      </trkpt>
      <trkpt lat="44.06954" lon="6.60486">
        <ele>1529.14</ele>
        <time>2019-08-07T12:37:32Z</time>
      </trkpt>
      <trkpt lat="44.06934" lon="6.60468">
        <ele>1529.6</ele>
        <time>2019-08-07T12:37:40Z</time>
      </trkpt>
      <trkpt lat="44.06915" lon="6.60447">
        <ele>1528.16</ele>
        <time>2019-08-07T12:37:46Z</time>
      </trkpt>
      <trkpt lat="44.06896" lon="6.60439">
        <ele>1524.87</ele>
        <time>2019-08-07T12:37:50Z</time>
      </trkpt>
      <trkpt lat="44.06873" lon="6.60423">
        <ele>1521.29</ele>
        <time>2019-08-07T12:37:54Z</time>
      </trkpt>
      <trkpt lat="44.06865" lon="6.60393">
        <ele>1515.24</ele>
        <time>2019-08-07T12:37:58Z</time>
      </trkpt>
      <trkpt lat="44.06839" lon="6.60371">
        <ele>1505.43</ele>
        <time>2019-08-07T12:38:04Z</time>
      </trkpt>
      <trkpt lat="44.06814" lon="6.60354">
        <ele>1499.64</ele>
        <time>2019-08-07T12:38:08Z</time>
      </trkpt>
      <trkpt lat="44.06783" lon="6.60334">
        <ele>1494.39</ele>
        <time>2019-08-07T12:38:12Z</time>
      </trkpt>
      <trkpt lat="44.06757" lon="6.6032">
        <ele>1493.58</ele>
        <time>2019-08-07T12:38:14Z</time>
      </trkpt>
      <trkpt lat="44.0674" lon="6.60311">
        <ele>1490.74</ele>
        <time>2019-08-07T12:38:16Z</time>
      </trkpt>
      <trkpt lat="44.0672" lon="6.60299">
        <ele>1489.33</ele>
        <time>2019-08-07T12:38:18Z</time>
      </trkpt>
      <trkpt lat="44.06693" lon="6.60284">
        <ele>1489.26</ele>
        <time>2019-08-07T12:38:20Z</time>
      </trkpt>
      <trkpt lat="44.06674" lon="6.60275">
        <ele>1490.22</ele>
        <time>2019-08-07T12:38:22Z</time>
      </trkpt>
      <trkpt lat="44.06649" lon="6.60264">
        <ele>1490.72</ele>
        <time>2019-08-07T12:38:24Z</time>
      </trkpt>
      <trkpt lat="44.06626" lon="6.60257">
        <ele>1489.4</ele>
        <time>2019-08-07T12:38:26Z</time>
      </trkpt>
      <trkpt lat="44.06602" lon="6.60252">
        <ele>1487.74</ele>
        <time>2019-08-07T12:38:28Z</time>
      </trkpt>
      <trkpt lat="44.06579" lon="6.60257">
        <ele>1486.68</ele>
        <time>2019-08-07T12:38:30Z</time>
      </trkpt>
      <trkpt lat="44.06557" lon="6.60267">
        <ele>1485.46</ele>
        <time>2019-08-07T12:38:32Z</time>
      </trkpt>
      <trkpt lat="44.0654" lon="6.60281">
        <ele>1483.69</ele>
        <time>2019-08-07T12:38:34Z</time>
      </trkpt>
      <trkpt lat="44.06515" lon="6.60307">
        <ele>1480.79</ele>
        <time>2019-08-07T12:38:38Z</time>
      </trkpt>
      <trkpt lat="44.06485" lon="6.6032">
        <ele>1479.41</ele>
        <time>2019-08-07T12:38:42Z</time>
      </trkpt>
      <trkpt lat="44.06465" lon="6.60331">
        <ele>1470.66</ele>
        <time>2019-08-07T12:38:46Z</time>
      </trkpt>
      <trkpt lat="44.06446" lon="6.60317">
        <ele>1464.1</ele>
        <time>2019-08-07T12:38:54Z</time>
      </trkpt>
      <trkpt lat="44.06425" lon="6.60314">
        <ele>1463.23</ele>
        <time>2019-08-07T12:39:02Z</time>
      </trkpt>
      <trkpt lat="44.06408" lon="6.60307">
        <ele>1464.77</ele>
        <time>2019-08-07T12:39:10Z</time>
      </trkpt>
      <trkpt lat="44.06388" lon="6.60304">
        <ele>1469.73</ele>
        <time>2019-08-07T12:39:20Z</time>
      </trkpt>
      <trkpt lat="44.06366" lon="6.60305">
        <ele>1474.69</ele>
        <time>2019-08-07T12:39:30Z</time>
      </trkpt>
      <trkpt lat="44.06346" lon="6.60306">
        <ele>1479.96</ele>
        <time>2019-08-07T12:39:40Z</time>
      </trkpt>
      <trkpt lat="44.06326" lon="6.60309">
        <ele>1485.66</ele>
        <time>2019-08-07T12:39:52Z</time>
      </trkpt>
      <trkpt lat="44.06306" lon="6.60314">
        <ele>1488.69</ele>
        <time>2019-08-07T12:40:04Z</time>
      </trkpt>
      <trkpt lat="44.06288" lon="6.60311">
        <ele>1489.24</ele>
        <time>2019-08-07T12:40:14Z</time>
      </trkpt>
      <trkpt lat="44.06262" lon="6.60313">
        <ele>1493.32</ele>
        <time>2019-08-07T12:40:22Z</time>
      </trkpt>
      <trkpt lat="44.06242" lon="6.60315">
        <ele>1496.42</ele>
        <time>2019-08-07T12:40:28Z</time>
      </trkpt>
      <trkpt lat="44.0622" lon="6.60316">
        <ele>1499.12</ele>
        <time>2019-08-07T12:40:36Z</time>
      </trkpt>
      <trkpt lat="44.062" lon="6.60318">
        <ele>1503.69</ele>
        <time>2019-08-07T12:40:46Z</time>
      </trkpt>
      <trkpt lat="44.0618" lon="6.60328">
        <ele>1501.76</ele>
        <time>2019-08-07T12:40:54Z</time>
      </trkpt>
      <trkpt lat="44.06162" lon="6.60346">
        <ele>1499.45</ele>
        <time>2019-08-07T12:41:02Z</time>
      </trkpt>
      <trkpt lat="44.06151" lon="6.60368">
        <ele>1498.99</ele>
        <time>2019-08-07T12:41:10Z</time>
      </trkpt>
      <trkpt lat="44.06138" lon="6.60388">
        <ele>1500.03</ele>
        <time>2019-08-07T12:41:20Z</time>
      </trkpt>
      <trkpt lat="44.06122" lon="6.604">
        <ele>1501.83</ele>
        <time>2019-08-07T12:41:26Z</time>
      </trkpt>
      <trkpt lat="44.06105" lon="6.6041">
        <ele>1505.78</ele>
        <time>2019-08-07T12:41:34Z</time>
      </trkpt>
      <trkpt lat="44.06085" lon="6.6042">
        <ele>1509.81</ele>
        <time>2019-08-07T12:41:44Z</time>
      </trkpt>
      <trkpt lat="44.06066" lon="6.60431">
        <ele>1513.52</ele>
        <time>2019-08-07T12:41:52Z</time>
      </trkpt>
      <trkpt lat="44.06045" lon="6.60441">
        <ele>1515.57</ele>
        <time>2019-08-07T12:42:00Z</time>
      </trkpt>
      <trkpt lat="44.06026" lon="6.6045">
        <ele>1515.28</ele>
        <time>2019-08-07T12:42:06Z</time>
      </trkpt>
      <trkpt lat="44.06008" lon="6.60462">
        <ele>1516.78</ele>
        <time>2019-08-07T12:42:12Z</time>
      </trkpt>
      <trkpt lat="44.05983" lon="6.60473">
        <ele>1521.08</ele>
        <time>2019-08-07T12:42:18Z</time>
      </trkpt>
      <trkpt lat="44.05963" lon="6.6048">
        <ele>1520.79</ele>
        <time>2019-08-07T12:42:22Z</time>
      </trkpt>
      <trkpt lat="44.05944" lon="6.60465">
        <ele>1518.62</ele>
        <time>2019-08-07T12:42:28Z</time>
      </trkpt>
      <trkpt lat="44.05924" lon="6.60456">
        <ele>1520.56</ele>
        <time>2019-08-07T12:42:34Z</time>
      </trkpt>
      <trkpt lat="44.059" lon="6.60461">
        <ele>1521.49</ele>
        <time>2019-08-07T12:42:38Z</time>
      </trkpt>
      <trkpt lat="44.05874" lon="6.60463">
        <ele>1522.14</ele>
        <time>2019-08-07T12:42:42Z</time>
      </trkpt>
      <trkpt lat="44.05854" lon="6.60459">
        <ele>1520.32</ele>
        <time>2019-08-07T12:42:46Z</time>
      </trkpt>
      <trkpt lat="44.05832" lon="6.60458">
        <ele>1516.62</ele>
        <time>2019-08-07T12:42:50Z</time>
      </trkpt>
      <trkpt lat="44.05809" lon="6.60456">
        <ele>1514.09</ele>
        <time>2019-08-07T12:42:54Z</time>
      </trkpt>
      <trkpt lat="44.05781" lon="6.60458">
        <ele>1508.25</ele>
        <time>2019-08-07T12:43:00Z</time>
      </trkpt>
      <trkpt lat="44.05755" lon="6.60449">
        <ele>1505</ele>
        <time>2019-08-07T12:43:04Z</time>
      </trkpt>
      <trkpt lat="44.05736" lon="6.60441">
        <ele>1504.15</ele>
        <time>2019-08-07T12:43:08Z</time>
      </trkpt>
      <trkpt lat="44.05714" lon="6.60427">
        <ele>1503.74</ele>
        <time>2019-08-07T12:43:14Z</time>
      </trkpt>
      <trkpt lat="44.05692" lon="6.60412">
        <ele>1501.49</ele>
        <time>2019-08-07T12:43:20Z</time>
      </trkpt>
      <trkpt lat="44.05681" lon="6.60392">
        <ele>1497.47</ele>
        <time>2019-08-07T12:43:24Z</time>
      </trkpt>
      <trkpt lat="44.05676" lon="6.60365">
        <ele>1494.26</ele>
        <time>2019-08-07T12:43:28Z</time>
      </trkpt>
      <trkpt lat="44.05665" lon="6.60343">
        <ele>1493.5</ele>
        <time>2019-08-07T12:43:32Z</time>
      </trkpt>
      <trkpt lat="44.05644" lon="6.60334">
        <ele>1491.44</ele>
        <time>2019-08-07T12:43:38Z</time>
      </trkpt>
      <trkpt lat="44.05622" lon="6.60326">
        <ele>1491.23</ele>
        <time>2019-08-07T12:43:44Z</time>
      </trkpt>
      <trkpt lat="44.05598" lon="6.60321">
        <ele>1492.2</ele>
        <time>2019-08-07T12:43:50Z</time>
      </trkpt>
      <trkpt lat="44.05581" lon="6.60313">
        <ele>1493.47</ele>
        <time>2019-08-07T12:44:02Z</time>
      </trkpt>
      <trkpt lat="44.05563" lon="6.60319">
        <ele>1491.52</ele>
        <time>2019-08-07T12:44:12Z</time>
      </trkpt>
      <trkpt lat="44.05546" lon="6.603">
        <ele>1491.08</ele>
        <time>2019-08-07T12:44:22Z</time>
      </trkpt>
      <trkpt lat="44.05533" lon="6.60274">
        <ele>1491.21</ele>
        <time>2019-08-07T12:44:48Z</time>
      </trkpt>
      <trkpt lat="44.05514" lon="6.60271">
        <ele>1488.63</ele>
        <time>2019-08-07T12:45:12Z</time>
      </trkpt>
      <trkpt lat="44.05496" lon="6.60285">
        <ele>1481.16</ele>
        <time>2019-08-07T12:45:54Z</time>
      </trkpt>
      <trkpt lat="44.05477" lon="6.60269">
        <ele>1476.86</ele>
        <time>2019-08-07T12:46:42Z</time>
      </trkpt>
      <trkpt lat="44.05455" lon="6.60259">
        <ele>1469.52</ele>
        <time>2019-08-07T12:47:44Z</time>
      </trkpt>
      <trkpt lat="44.05435" lon="6.60271">
        <ele>1464.43</ele>
        <time>2019-08-07T12:48:36Z</time>
      </trkpt>
      <trkpt lat="44.05423" lon="6.60296">
        <ele>1462.41</ele>
        <time>2019-08-07T12:50:44Z</time>
      </trkpt>
      <trkpt lat="44.05403" lon="6.60315">
        <ele>1459.46</ele>
        <time>2019-08-07T12:52:36Z</time>
      </trkpt>
      <trkpt lat="44.05382" lon="6.60317">
        <ele>1448.28</ele>
        <time>2019-08-07T12:54:46Z</time>
      </trkpt>
      <trkpt lat="44.05362" lon="6.60317">
        <ele>1445.07</ele>
        <time>2019-08-07T12:55:54Z</time>
      </trkpt>
      <trkpt lat="44.05358" lon="6.60292">
        <ele>1432.45</ele>
        <time>2019-08-07T13:01:24Z</time>
      </trkpt>
      <trkpt lat="44.0535" lon="6.60267">
        <ele>1430.95</ele>
        <time>2019-08-07T13:02:18Z</time>
      </trkpt>
      <trkpt lat="44.05336" lon="6.60242">
        <ele>1432.71</ele>
        <time>2019-08-07T13:04:58Z</time>
      </trkpt>
      <trkpt lat="44.05318" lon="6.60232">
        <ele>1432.39</ele>
        <time>2019-08-07T13:05:16Z</time>
      </trkpt>
      <trkpt lat="44.053" lon="6.60224">
        <ele>1431.01</ele>
        <time>2019-08-07T13:05:34Z</time>
      </trkpt>
      <trkpt lat="44.05279" lon="6.60218">
        <ele>1428.8</ele>
        <time>2019-08-07T13:05:42Z</time>
      </trkpt>
      <trkpt lat="44.05262" lon="6.60208">
        <ele>1426.9</ele>
        <time>2019-08-07T13:05:50Z</time>
      </trkpt>
      <trkpt lat="44.05246" lon="6.60194">
        <ele>1423.67</ele>
        <time>2019-08-07T13:05:56Z</time>
      </trkpt>
      <trkpt lat="44.05229" lon="6.60201">
        <ele>1419.09</ele>
        <time>2019-08-07T13:06:14Z</time>
      </trkpt>
      <trkpt lat="44.05212" lon="6.6019">
        <ele>1415.7</ele>
        <time>2019-08-07T13:06:26Z</time>
      </trkpt>
      <trkpt lat="44.052" lon="6.60165">
        <ele>1411.79</ele>
        <time>2019-08-07T13:06:36Z</time>
      </trkpt>
      <trkpt lat="44.05192" lon="6.60141">
        <ele>1409.84</ele>
        <time>2019-08-07T13:06:52Z</time>
      </trkpt>
      <trkpt lat="44.05183" lon="6.60119">
        <ele>1406.68</ele>
        <time>2019-08-07T13:07:18Z</time>
      </trkpt>
      <trkpt lat="44.05179" lon="6.60094">
        <ele>1405.84</ele>
        <time>2019-08-07T13:07:24Z</time>
      </trkpt>
      <trkpt lat="44.05177" lon="6.60067">
        <ele>1406.47</ele>
        <time>2019-08-07T13:07:30Z</time>
      </trkpt>
      <trkpt lat="44.05173" lon="6.60035">
        <ele>1406.06</ele>
        <time>2019-08-07T13:07:36Z</time>
      </trkpt>
      <trkpt lat="44.05164" lon="6.60005">
        <ele>1406.74</ele>
        <time>2019-08-07T13:07:42Z</time>
      </trkpt>
      <trkpt lat="44.05161" lon="6.59971">
        <ele>1409.84</ele>
        <time>2019-08-07T13:07:48Z</time>
      </trkpt>
      <trkpt lat="44.05161" lon="6.59938">
        <ele>1413.57</ele>
        <time>2019-08-07T13:07:54Z</time>
      </trkpt>
      <trkpt lat="44.0517" lon="6.59905">
        <ele>1415.43</ele>
        <time>2019-08-07T13:08:00Z</time>
      </trkpt>
      <trkpt lat="44.0518" lon="6.59882">
        <ele>1416.99</ele>
        <time>2019-08-07T13:08:04Z</time>
      </trkpt>
      <trkpt lat="44.05193" lon="6.59864">
        <ele>1416.67</ele>
        <time>2019-08-07T13:08:10Z</time>
      </trkpt>
      <trkpt lat="44.05209" lon="6.59848">
        <ele>1417.42</ele>
        <time>2019-08-07T13:08:16Z</time>
      </trkpt>
      <trkpt lat="44.05225" lon="6.59834">
        <ele>1418.51</ele>
        <time>2019-08-07T13:08:22Z</time>
      </trkpt>
      <trkpt lat="44.05219" lon="6.59803">
        <ele>1418.78</ele>
        <time>2019-08-07T13:08:34Z</time>
      </trkpt>
      <trkpt lat="44.05206" lon="6.59783">
        <ele>1418.8</ele>
        <time>2019-08-07T13:08:40Z</time>
      </trkpt>
      <trkpt lat="44.05191" lon="6.59757">
        <ele>1420.05</ele>
        <time>2019-08-07T13:08:48Z</time>
      </trkpt>
      <trkpt lat="44.05178" lon="6.59734">
        <ele>1420.49</ele>
        <time>2019-08-07T13:08:54Z</time>
      </trkpt>
      <trkpt lat="44.05172" lon="6.59707">
        <ele>1421.03</ele>
        <time>2019-08-07T13:09:00Z</time>
      </trkpt>
      <trkpt lat="44.05168" lon="6.59674">
        <ele>1422.12</ele>
        <time>2019-08-07T13:09:08Z</time>
      </trkpt>
      <trkpt lat="44.05155" lon="6.59655">
        <ele>1422.34</ele>
        <time>2019-08-07T13:09:14Z</time>
      </trkpt>
      <trkpt lat="44.05149" lon="6.59628">
        <ele>1423.7</ele>
        <time>2019-08-07T13:09:20Z</time>
      </trkpt>
      <trkpt lat="44.05144" lon="6.59598">
        <ele>1425.23</ele>
        <time>2019-08-07T13:09:26Z</time>
      </trkpt>
      <trkpt lat="44.05146" lon="6.59567">
        <ele>1426.26</ele>
        <time>2019-08-07T13:09:32Z</time>
      </trkpt>
      <trkpt lat="44.05149" lon="6.5954">
        <ele>1428.35</ele>
        <time>2019-08-07T13:09:38Z</time>
      </trkpt>
      <trkpt lat="44.05155" lon="6.59505">
        <ele>1430.62</ele>
        <time>2019-08-07T13:09:44Z</time>
      </trkpt>
      <trkpt lat="44.05152" lon="6.59479">
        <ele>1432.82</ele>
        <time>2019-08-07T13:09:50Z</time>
      </trkpt>
      <trkpt lat="44.05136" lon="6.59456">
        <ele>1432.74</ele>
        <time>2019-08-07T13:09:56Z</time>
      </trkpt>
      <trkpt lat="44.05122" lon="6.59428">
        <ele>1434.31</ele>
        <time>2019-08-07T13:10:04Z</time>
      </trkpt>
      <trkpt lat="44.05119" lon="6.59397">
        <ele>1436.43</ele>
        <time>2019-08-07T13:10:10Z</time>
      </trkpt>
      <trkpt lat="44.05118" lon="6.59367">
        <ele>1438.6</ele>
        <time>2019-08-07T13:10:16Z</time>
      </trkpt>
      <trkpt lat="44.05123" lon="6.59339">
        <ele>1439.72</ele>
        <time>2019-08-07T13:10:22Z</time>
      </trkpt>
      <trkpt lat="44.05125" lon="6.5931">
        <ele>1442.64</ele>
        <time>2019-08-07T13:10:30Z</time>
      </trkpt>
      <trkpt lat="44.05107" lon="6.59308">
        <ele>1445.7</ele>
        <time>2019-08-07T13:10:36Z</time>
      </trkpt>
      <trkpt lat="44.05084" lon="6.59308">
        <ele>1446.71</ele>
        <time>2019-08-07T13:10:42Z</time>
      </trkpt>
      <trkpt lat="44.05066" lon="6.59308">
        <ele>1447.76</ele>
        <time>2019-08-07T13:10:48Z</time>
      </trkpt>
      <trkpt lat="44.05048" lon="6.59308">
        <ele>1447.35</ele>
        <time>2019-08-07T13:10:52Z</time>
      </trkpt>
      <trkpt lat="44.05032" lon="6.59293">
        <ele>1445.83</ele>
        <time>2019-08-07T13:10:58Z</time>
      </trkpt>
      <trkpt lat="44.05007" lon="6.59287">
        <ele>1446.62</ele>
        <time>2019-08-07T13:11:06Z</time>
      </trkpt>
      <trkpt lat="44.04989" lon="6.59292">
        <ele>1446.81</ele>
        <time>2019-08-07T13:11:10Z</time>
      </trkpt>
      <trkpt lat="44.04968" lon="6.59305">
        <ele>1445.94</ele>
        <time>2019-08-07T13:11:16Z</time>
      </trkpt>
      <trkpt lat="44.04948" lon="6.59315">
        <ele>1441.59</ele>
        <time>2019-08-07T13:11:22Z</time>
      </trkpt>
      <trkpt lat="44.04929" lon="6.59313">
        <ele>1437.22</ele>
        <time>2019-08-07T13:11:28Z</time>
      </trkpt>
      <trkpt lat="44.04905" lon="6.59318">
        <ele>1432.69</ele>
        <time>2019-08-07T13:11:36Z</time>
      </trkpt>
      <trkpt lat="44.04887" lon="6.59307">
        <ele>1430.22</ele>
        <time>2019-08-07T13:11:40Z</time>
      </trkpt>
      <trkpt lat="44.04863" lon="6.59319">
        <ele>1424.49</ele>
        <time>2019-08-07T13:11:46Z</time>
      </trkpt>
      <trkpt lat="44.04839" lon="6.59317">
        <ele>1421.54</ele>
        <time>2019-08-07T13:11:58Z</time>
      </trkpt>
      <trkpt lat="44.04825" lon="6.59334">
        <ele>1420.5</ele>
        <time>2019-08-07T13:12:06Z</time>
      </trkpt>
      <trkpt lat="44.04806" lon="6.59334">
        <ele>1418.68</ele>
        <time>2019-08-07T13:12:12Z</time>
      </trkpt>
      <trkpt lat="44.04787" lon="6.59328">
        <ele>1416.52</ele>
        <time>2019-08-07T13:12:16Z</time>
      </trkpt>
      <trkpt lat="44.04762" lon="6.59325">
        <ele>1412.94</ele>
        <time>2019-08-07T13:12:22Z</time>
      </trkpt>
      <trkpt lat="44.04737" lon="6.59325">
        <ele>1409.69</ele>
        <time>2019-08-07T13:12:28Z</time>
      </trkpt>
      <trkpt lat="44.04714" lon="6.59332">
        <ele>1403.07</ele>
        <time>2019-08-07T13:12:36Z</time>
      </trkpt>
      <trkpt lat="44.04693" lon="6.59321">
        <ele>1396.88</ele>
        <time>2019-08-07T13:12:48Z</time>
      </trkpt>
      <trkpt lat="44.04711" lon="6.59323">
        <ele>1394.95</ele>
        <time>2019-08-07T13:14:36Z</time>
      </trkpt>
      <trkpt lat="44.04732" lon="6.59319">
        <ele>1393.28</ele>
        <time>2019-08-07T13:15:20Z</time>
      </trkpt>
      <trkpt lat="44.04761" lon="6.59319">
        <ele>1392.83</ele>
        <time>2019-08-07T13:15:30Z</time>
      </trkpt>
      <trkpt lat="44.04667" lon="6.59326">
        <ele>1395.76</ele>
        <time>2019-08-07T13:15:56Z</time>
      </trkpt>
      <trkpt lat="44.04683" lon="6.59313">
        <ele>1395.88</ele>
        <time>2019-08-07T13:16:28Z</time>
      </trkpt>
      <trkpt lat="44.047" lon="6.59303">
        <ele>1397.83</ele>
        <time>2019-08-07T13:16:46Z</time>
      </trkpt>
      <trkpt lat="44.04662" lon="6.59304">
        <ele>1395.17</ele>
        <time>2019-08-07T13:17:06Z</time>
      </trkpt>
      <trkpt lat="44.04648" lon="6.59328">
        <ele>1397</ele>
        <time>2019-08-07T13:17:36Z</time>
      </trkpt>
      <trkpt lat="44.04678" lon="6.59318">
        <ele>1397.66</ele>
        <time>2019-08-07T13:17:40Z</time>
      </trkpt>
      <trkpt lat="44.04698" lon="6.59316">
        <ele>1397.83</ele>
        <time>2019-08-07T13:17:50Z</time>
      </trkpt>
    </trkseg>
  </trk>
</gpx>